     2.11           OBSERVATION DATA    G (GPS)             RINEX VERSION / TYPE
teqc 2010Oct21 OPUS Account 20111028 01:46:08UTC            PGM / RUN BY / DATE
S 1526                                                      MARKER NAME
3053                                                        MARKER NUMBER
CSMIDDLETON NGS                                             OBSERVER / AGENCY
4624K01615 TRIMBLE NETR5 4.41                               REC # / TYPE / VERS
12338145 TRM41249.00 NONE                                   ANT # / TYPE
  -747815.4643 -5574757.4770  2997177.4936                  APPROX POSITION XYZ
        2.0000        0.0000        0.0000                  ANTENNA: DELTA H/E/N
     1     1                                                WAVELENGTH FACT L1/2
     5    L1    L2    C1    P1    P2                        # / TYPES OF OBSERV
    15                                                      LEAP SECONDS
  2011     8    21     0     0    0.0000000     GPS         TIME OF FIRST OBS
                                                            END OF HEADER
 11  8 21  0  0  0.0000000  0  7G10G17G09G02G12G05G04
 110075266.11918  85773058.87156  20946605.758                    20946614.199
 120175075.74517  93642996.44817  22868561.953                    22868570.875
 121851327.50617  94949161.88754  23187549.617                    23187560.813
 108575731.86018  84604663.64956  20661278.273                    20661284.426
 114991999.98217  89604320.47817  21882268.688                    21882276.613
 118498037.25717  92336151.16217  22549400.359                    22549410.379
 111671240.31018  87016653.21656  21250316.352                    21250324.855
 11  8 21  0  0 30.0000000  0  7G10G17G09G02G12G05G04
 110055800.125 8  85757890.58546  20942901.578                    20942909.832
 120222273.214 7  93679773.683 6  22877543.078                    22877551.914
 121921661.737 6  95003967.64944  23200933.805                    23200944.953
 108565828.625 8  84596946.85746  20659393.945                    20659399.523
 114918714.400 7  89547214.887 7  21868322.703                    21868330.578
 118400101.588 7  92259837.774 7  22530763.844                    22530774.215
 111742463.625 8  87072151.86646  21263869.617                    21263878.398
 11  8 21  0  1  0.0000000  0  7G10G17G09G02G12G05G04
 110036941.491 8  85743195.56846  20939312.875                    20939321.379
 120269605.914 7  93716656.280 6  22886550.656                    22886559.313
 121992273.424 7  95058989.60844  23214371.148                    23214382.563
 108556245.381 8  84589479.40546  20657570.398                    20657576.078
 114845773.463 8  89490377.845 7  21854442.188                    21854450.152
 118302376.325 7  92183688.354 7  22512166.836                    22512177.188
 111813888.989 8  87127807.96746  21277461.352                    21277470.363
 11  8 21  0  1 30.0000000  0  7G10G17G09G02G12G05G04
 110018692.217 8  85728975.37346  20935840.039                    20935848.457
 120317075.329 7  93753645.409 6  22895583.727                    22895592.449
 122063160.156 7  95114225.87344  23227860.391                    23227871.922
 108546983.047 8  84582262.01446  20655807.797                    20655813.512
 114773181.160 7  89433812.461 7  21840628.688                    21840636.539
 118204865.404 7  92107705.949 7  22493611.570                    22493621.355
 111885515.488 8  87183620.80446  21291091.656                    21291100.000
 11  8 21  0  2  0.0000000  0  7G10G17G09G02G12G05G04
 110001052.909 8  85715230.48846  20932483.336                    20932492.027
 120364681.843 7  93790741.366 7  22904642.977                    22904651.977
 122134318.052 7  95169673.45544  23241401.227                    23241412.809
 108538039.907 8  84575293.35346  20654105.781                    20654111.770
 114700939.350 8  89377520.187 7  21826881.391                    21826889.641
 118107571.666 7  92031892.771 7  22475096.836                    22475107.156
 111957340.285 8  87239588.15046  21304759.609                    21304767.973
 11  8 21  0  2 30.0000000  0  7G10G17G09G02G12G05G04
 109984025.052 8  85701962.05346  20929243.070                    20929251.637
 120412426.303 7  93827944.808 6  22913728.273                    22913737.176
 122205744.046 7  95225329.95544  23254993.352                    23255004.766
 108529415.119 8  84568572.75946  20652464.359                    20652470.414
 114629050.381 8  89321502.848 7  21813201.547                    21813209.426
 118010498.026 7  91956251.103 7  22456624.219                    22456634.586
 112029361.537 8  87295708.58445  21318464.445                    21318473.250
 11  8 21  0  3  0.0000000  0  8G10G17G09G02G30G12G05G04
 109967609.079 7  85689170.42746  20926119.313                    20926128.074
 120460309.144 7  93865256.068 6  22922839.922                    22922849.406
 122277434.325 6  95281192.38244  23268635.781                    23268647.074
 108521107.336 8  84562099.19146  20650883.867                    20650889.633
 128030004.58416                  24363308.500
 114557516.774 8  89265762.412 7  21799588.609                    21799596.926
 117913647.296 7  91880783.130 7  22438193.734                    22438203.977
 112101576.463 7  87351979.92345  21332206.609                    21332215.273
 11  8 21  0  3 30.0000000  0  9G10G17G09G02G30G12G05G04G25
 109951806.655 8  85676856.88746  20923112.094                    20923120.340
 120508331.612 7  93902676.132 6  22931978.297                    22931987.605
 122349385.958 7  95337258.44944  23282327.711                    23282338.984
 108513116.120 8  84555872.29346  20649362.938                    20649368.871
 127924954.925 5                  24343317.516
 114486341.585 8  89210301.258 7  21786044.922                    21786052.477
 117817022.867 7  91805491.500 7  22419807.242                    22419816.891
 112173983.549 8  87408401.01745  21345985.297                    21345993.883
 129625960.92015 101007328.79815  24667008.055                    24667020.211
 11  8 21  0  4  0.0000000  0  9G10G17G09G02G30G12G05G04G25
 109936618.745 8  85665022.18946  20920221.813                    20920230.219
 120556493.975 7  93940205.204 7  22941143.781                    22941152.863
 122421595.680 7  95393525.64644  23296068.719                    23296079.809
 108505440.136 8  84549891.03546  20647902.430                    20647908.039
 127820082.060 5  99600132.22452  24323360.844                    24323371.109
 114415527.113 7  89155121.184 7  21772568.977                    21772577.070
 117720627.864 7  91730378.646 7  22401463.461                    22401473.477
 112246580.414 8  87464969.97645  21359800.398                    21359808.816
 129522727.535 5 100926887.294 6  24647363.016                    24647376.363
 11  8 21  0  4 30.0000000  0  9G10G17G09G02G30G12G05G04G25
 109922046.097 7  85653666.91546  20917448.703                    20917457.238
 120604796.565 7  93977843.534 6  22950335.266                    22950344.336
 122494059.699 7  95449990.97244  23309858.297                    23309869.746
 108498078.263 8  84544154.53146  20646501.094                    20646506.980
 127715388.575 6  99518552.97842  24303438.578                    24303449.262
 114345075.659 7  89100223.969 7  21759162.773                    21759170.590
 117624464.679 7  91655446.422 7  22383164.125                    22383174.117
 112319364.631 8  87521684.93745  21373650.656                    21373659.238
 129419599.149 6 100846527.611 6  24627737.789                    24627751.363
 11  8 21  0  5  0.0000000  0  9G10G17G09G02G30G12G05G04G25
 109908089.197 8  85642791.45046  20914792.922                    20914801.172
 120653240.074 6  94015591.682 7  22959553.719                    22959562.742
 122566774.328 7  95506651.58944  23323695.367                    23323707.391
 108491029.086 8  84538661.68846  20645160.125                    20645165.664
 127610877.133 6  99437115.58543  24283551.266                    24283560.777
 114274989.822 8  89045611.660 7  21745825.695                    21745833.449
 117528535.964 7  91580696.904 7  22364909.289                    22364919.047
 112392333.849 8  87578544.05845  21387535.859                    21387544.758
 129316578.031 6 100766251.508 6  24608133.617                    24608146.777
 11  8 21  0  5 30.0000000  0  9G10G17G09G02G30G12G05G04G25
 109894749.630 8  85632397.01546  20912254.305                    20912262.727
 120701825.221 7  94053450.202 7  22968799.352                    22968808.699
 122639736.156 7  95563504.81444  23337579.391                    23337591.480
 108484292.200 8  84533412.18746  20643878.047                    20643883.430
 127506550.613 6  99355822.28543  24263697.922                    24263708.215
 114205271.951 7  88991286.063 7  21732558.594                    21732566.453
 117432845.030 7  91506132.675 7  22346699.625                    22346709.645
 112465485.903 8  87635545.63945  21401456.359                    21401464.977
 129213666.889 6 100686061.105 6  24588550.836                    24588563.594
 11  8 21  0  6  0.0000000  0  9G10G17G09G02G30G12G05G04G25
 109882028.028 8  85622484.11946  20909833.695                    20909841.645
 120750552.368 7  94091419.376 7  22978072.195                    22978080.852
 122712942.306 7  95620548.41244  23351510.664                    23351522.148
 108477866.628 8  84528405.26346  20642655.180                    20642661.230
 127402411.864 6  99274675.28244  24243881.398                    24243891.656
 114135924.689 7  88937249.253 7  21719362.516                    21719370.098
 117337394.968 7  91431756.131 7  22328536.414                    22328546.207
 112538818.811 8  87692688.14345  21415411.063                    21415419.660
 129110868.092 6 100605958.237 6  24568989.414                    24569001.762
 11  8 21  0  6 30.0000000  0  9G10G17G09G02G30G12G05G04G25
 109869924.919 8  85613053.15546  20907530.688                    20907538.875
 120799422.291 7  94129499.794 7  22987371.664                    22987380.813
 122786388.905 7  95677779.40444  23365486.750                    23365498.836
 108471750.983 8  84523639.84846  20641491.555                    20641497.109
 127298463.426 6  99193676.59743  24224100.070                    24224110.656
 114066950.527 7  88883503.169 7  21706237.125                    21706244.922
 117242188.531 7  91357569.427 7  22310418.570                    22310428.750
 112612330.369 8  87749969.86645  21429400.211                    21429408.438
 129008184.083 7 100525944.823 6  24549449.180                    24549461.480
 11  8 21  0  7  0.0000000  0  9G10G17G09G02G30G12G05G04G25
 109858441.378 8  85604104.97546  20905344.836                    20905353.430
 120848435.775 7  94167692.085 7  22996698.992                    22996707.914
 122860072.750 7  95735195.24644  23379508.781                    23379520.820
 108465944.299 8  84519115.17846  20640386.258                    20640392.285
 127194708.099 6  99112828.40644  24204356.406                    24204366.750
 113998351.806 7  88830049.634 7  21693183.156                    21693190.691
 117147228.581 7  91283574.807 7  22292348.453                    22292358.352
 112686018.346 8  87807389.06045  21443422.664                    21443430.953
 128905617.367 7 100446022.812 6  24529931.117                    24529943.926
 11  8 21  0  7 30.0000000  0  9G10G17G09G02G30G12G05G04G25
 109847578.177 8  85595640.16746  20903277.906                    20903286.098
 120897593.436 7  94205996.719 6  23006052.859                    23006062.176
 122933990.566 7  95792793.39944  23393574.938                    23393586.973
 108460445.626 8  84514830.51446  20639339.930                    20639345.832
 127091148.719 6  99032132.85143  24184649.406                    24184659.523
 113930130.949 7  88776890.547 7  21680201.344                    21680209.391
 117052518.294 7  91209774.726 7  22274325.727                    22274335.398
 112759880.757 8  87864944.17545  21457478.227                    21457486.410
 128803170.380 6 100366194.086 6  24510436.086                    24510448.449
 11  8 21  0  8  0.0000000  0  9G10G17G09G02G30G12G05G04G25
 109837336.103 8  85587659.36246  20901328.828                    20901337.316
 120946895.765 7  94244414.091 7  23015435.055                    23015444.371
 123008138.915 7  95850571.18444  23407684.953                    23407697.578
 108455253.852 8  84510784.99146  20638351.930                    20638357.844
 126987788.149 6  98951592.26643  24164980.594                    24164990.934
 113862290.799 7  88724028.104 7  21667291.914                    21667299.770
 116958060.594 7  91136171.467 7  22256350.813                    22256360.617
 112833915.232 8  87922633.36545  21471566.273                    21471574.891
 128700845.694 6 100286460.662 6  24490964.094                    24490976.840
 11  8 21  0  8 30.0000000  0  9G10G17G09G02G30G12G05G04G25
 109827715.650 8  85580162.93046  20899498.000                    20899506.461
 120996343.338 7  94282944.640 7  23024844.617                    23024853.805
 123082514.287 7  95908525.88244  23421838.422                    23421850.027
 108450367.609 8  84506977.53746  20637421.961                    20637427.824
 126884629.063 6  98871208.65043  24145350.203                    24145359.891
 113794833.603 7  88671464.058 7  21654455.016                    21654462.605
 116863858.276 7  91062767.190 7  22238424.547                    22238434.465
 112908119.613 8  87980454.95245  21485686.961                    21485695.723
 128598645.697 6 100206824.401 6  24471516.070                    24471528.859
 11  8 21  0  9  0.0000000  0  9G10G17G09G02G30G12G05G04G25
 109818718.021 8  85573151.81346  20897785.766                    20897794.258
 121045937.043 7  94321589.051 7  23034281.969                    23034291.203
 123157113.434 7  95966654.93044  23436034.250                    23436046.008
 108445786.333 8  84503407.72846  20636550.344                    20636556.184
 126781674.317 6  98790984.21043  24125758.664                    24125768.184
 113727761.878 7  88619200.391 7  21641691.727                    21641699.539
 116769914.349 7  90989564.269 7  22220547.375                    22220556.770
 112982491.678 8  88038407.19945  21499839.461                    21499848.059
 128496573.096 6 100127287.384 6  24452091.977                    24452104.668
 11  8 21  0  9 30.0000000  0  9G10G17G09G02G30G12G05G04G25
 109810343.945 8  85566626.58446  20896192.484                    20896200.555
 121095677.407 7  94360347.736 7  23043747.297                    23043756.250
 123231932.784 7  96024955.58344  23450272.359                    23450283.898
 108441508.846 8  84500074.64446  20635736.445                    20635742.078
 126678926.777 6  98710921.24543  24106206.219                    24106215.996
 113661078.549 7  88567239.358 7  21629002.383                    21629009.906
 116676232.200 7  90916565.316 7  22202720.625                    22202729.617
 113057029.727 8  88096488.78145  21514023.563                    21514032.262
 128394630.330 6 100047851.525 6  24432692.781                    24432704.984
 11  8 21  0 10  0.0000000  0  9G10G17G09G02G30G12G05G04G25
 109802594.084 8  85560587.75346  20894717.367                    20894725.742
 121145565.087 7  94399221.201 7  23053241.078                    23053249.336
 123306969.235 7  96083425.39144  23464550.680                    23464562.938
 108437534.179 8  84496977.51646  20634979.898                    20634985.773
 126576389.178 6  98631021.83643  24086692.820                    24086703.863
 113594786.063 7  88515582.885 7  21616386.883                    21616394.688
 116582814.432 7  90843772.375 7  22184943.234                    22184952.969
 113131731.484 8  88154697.92045  21528238.617                    21528247.500
 128292820.021 6  99968518.884 6  24413319.039                    24413331.594
 11  8 21  0 10 30.0000000  0  9G10G17G09G02G30G12G05G04G25
 109795468.902 8  85555035.68746  20893361.734                    20893370.031
 121195600.545 7  94438209.826 7  23062762.266                    23062771.621
 123382219.239 7  96142061.60444  23478870.531                    23478883.109
 108433861.209 8  84494115.47746  20634281.063                    20634286.801
 126474064.492 6  98551288.37042  24067221.461                    24067231.875
 113528886.161 7  88464232.325 7  21603846.813                    21603854.430
 116489664.213 7  90771187.915 7  22167217.383                    22167226.668
 113206594.995 8  88213033.10245  21542485.070                    21542493.602
 128191144.749 6  99889291.429 6  24393970.945                    24393983.145
 11  8 21  0 11  0.0000000  0  9G10G17G09G02G30G12G05G04G25
 109788968.729 8  85549970.63846  20892124.727                    20892133.000
 121245784.513 7  94477314.172 7  23072311.953                    23072321.051
 123457679.204 6  96200861.43644  23493230.336                    23493242.168
 108430488.639 8  84491487.50846  20633639.414                    20633645.203
 126371955.313 6  98471722.82643  24047790.789                    24047800.891
 113463381.590 8  88413189.809 7  21591381.828                    21591389.598
 116396784.183 7  90698813.989 7  22149543.148                    22149552.598
 113281617.746 8  88271492.35745  21556761.297                    21556770.379
 128089606.827 6  99810171.022 6  24374648.742                    24374661.016
 11  8 21  0 11 30.0000000  0  9G10G17G09G02G30G12G05G04G25
 109783094.342 8  85545393.22146  20891006.977                    20891015.078
 121296117.505 7  94516534.642 6  23081889.805                    23081899.109
 123533345.752 6  96259822.21943  23507629.234                    23507641.313
 108427415.388 8  84489092.78946  20633054.695                    20633060.168
 126270064.538 6  98392327.45843  24028401.711                    24028412.063
 113398274.737 7  88362457.204 7  21578992.266                    21579000.125
 116304177.404 7  90626652.986 7  22131920.492                    22131930.180
 113356798.041 8  88330074.38845  21571066.992                    21571076.039
 127988208.984 6  99731159.746 6  24355353.281                    24355365.406
 11  8 21  0 12  0.0000000  0  9G10G17G09G02G30G12G05G04G25
 109777846.310 7  85541303.86146  20890008.500                    20890016.645
 121346600.273 7  94555871.821 6  23091496.633                    23091505.613
 123609215.642 6  96318941.46744  23522066.719                    23522079.168
 108424640.688 7  84486930.69646  20632526.539                    20632532.070
 126168395.068 6  98313104.51043  24009054.734                    24009064.656
 113333568.253 8  88312036.577 7  21566679.313                    21566686.801
 116211846.809 7  90554707.186 7  22114349.961                    22114359.688
 113432133.402 8  88388777.24245  21585403.398                    21585412.293
 127886953.710 6  99652259.548 6  24336085.555                    24336097.617
 11  8 21  0 12 30.0000000  0  9G10G17G09G02G30G12G05G04G25
 109773224.613 8  85537702.55446  20889128.758                    20889136.934
 121397233.226 7  94595326.037 6  23101131.727                    23101140.566
 123685285.181 6  96378216.27244  23536542.586                    23536554.949
 108422162.760 8  84484999.85946  20632054.859                    20632060.852
 126066949.281 6  98234055.87543  23989750.461                    23989760.738
 113269264.143 7  88261929.490 7  21554442.297                    21554450.141
 116119794.874 7  90482978.514 7  22096833.547                    22096842.824
 113507621.765 8  88447599.31945  21599768.367                    21599777.270
 127785843.346 7  99573472.265 6  24316844.680                    24316856.500
 11  8 21  0 13  0.0000000  0  9G10G17G09G02G30G12G05G04G25
 109769230.289 8  85534590.11846  20888368.664                    20888376.813
 121448017.373 7  94634898.058 6  23110795.375                    23110804.902
 123761551.182 6  96437644.18244  23551055.859                    23551068.133
 108419981.297 7  84483300.02746  20631639.656                    20631645.859
 125965730.440 7  98155184.07943  23970489.508                    23970498.742
 113205365.527 7  88212138.375 7  21542283.109                    21542290.477
 116028024.908 7  90411469.555 7  22079369.922                    22079379.363
 113583261.452 7  88506539.31245  21614162.172                    21614170.605
 127684880.755 7  99494800.117 6  24297632.055                    24297643.465
 11  8 21  0 13 30.0000000  0  9G10G17G09G02G30G12G05G04G25
 109765863.835 8  85531966.92746  20887727.352                    20887735.840
 121498952.920 7  94674588.059 6  23120488.188                    23120497.355
 123838010.458 6  96497222.69143  23565605.430                    23565617.797
 108418094.991 8  84481830.19146  20631280.711                    20631286.461
 125864741.353 6  98076491.30943  23951271.469                    23951281.375
 113141874.557 7  88162664.912 7  21530200.797                    21530208.563
 115936539.821 7  90340182.587 7  22061961.031                    22061970.672
 113659050.423 8  88565595.62445  21628584.453                    21628592.855
 127584068.506 6  99416245.174 6  24278448.195                    24278460.953
 11  8 21  0 14  0.0000000  0  9G10G17G09G02G30G12G05G04G25
 109763125.749 8  85529833.37946  20887207.016                    20887215.090
 121550040.500 7  94714396.523 6  23130209.633                    23130218.664
 123914659.414 6  96556949.01444  23580191.227                    23580203.586
 108416502.573 7  84480589.35446  20630977.617                    20630983.652
 125763984.773 7  97997979.73443  23932098.266                    23932108.105
 113078793.497 7  88113510.861 7  21518197.188                    21518204.594
 115845342.626 7  90269119.945 7  22044606.492                    22044616.039
 113734986.438 8  88624766.52845  21643034.484                    21643043.230
 127483409.045 7  99337809.250 6  24259293.188                    24259305.457
 11  8 21  0 14 30.0000000  0  9G10G17G09G02G30G12G05G04G25
 109761016.377 8  85528189.73046  20886805.352                    20886814.113
 121601280.760 7  94754323.961 6  23139960.766                    23139969.953
 123991494.482 7  96616820.33644  23594813.055                    23594825.578
 108415202.826 7  84479576.57946  20630730.313                    20630736.000
 125663463.582 7  97919651.60443  23912969.406                    23912979.086
 113016124.668 7  88064678.028 7  21506271.711                    21506279.078
 115754436.114 7  90198283.814 7  22027307.250                    22027317.023
 113811067.400 8  88684050.38345  21657512.000                    21657520.809
 127382905.066 7  99259494.525 6  24240167.578                    24240180.625
 11  8 21  0 15  0.0000000  0  9G10G17G09G02G30G12G05G04G25
 109759535.630 8  85527035.92646  20886523.633                    20886531.840
 121652674.387 7  94794370.913 6  23149740.789                    23149749.492
 124068512.356 6  96676834.10944  23609468.625                    23609481.344
 108414194.649 8  84478791.00246  20630538.766                    20630544.469
 125563180.438 6  97841508.93843  23893886.492                    23893896.559
 112953870.482 7  88016168.295 7  21494425.188                    21494432.832
 115663823.106 7  90127676.396 7  22010064.352                    22010073.836
 113887291.205 8  88743445.55245  21672017.430                    21672026.074
 127282558.973 7  99181302.828 6  24221072.836                    24221084.832
 11  8 21  0 15 30.0000000  0  9G10G17G09G02G30G12G05G04G25
 109758683.934 8  85526372.29746  20886361.586                    20886369.754
 121704222.081 7  94834537.921 6  23159549.734                    23159558.852
 124145709.644 7  96736987.67844  23624159.328                    23624171.621
 108413476.832 8  84478231.67846  20630402.055                    20630407.574
 125463138.222 6  97763554.04843  23874848.711                    23874858.648
 112892033.550 7  87967983.701 7  21482657.508                    21482665.449
 115573506.398 7  90057299.851 7  21992877.617                    21992886.910
 113963655.931 8  88802950.54145  21686548.797                    21686557.652
 127182373.390 7  99103236.231 6  24202008.172                    24202020.305
 11  8 21  0 16  0.0000000  0  9G10G17G09G02G30G12G05G04G25
 109758461.745 8  85526199.18546  20886319.039                    20886327.773
 121755924.477 7  94874825.478 6  23169388.094                    23169397.492
 124223083.042 7  96797278.48844  23638883.344                    23638895.223
 108413048.851 8  84477898.21346  20630320.609                    20630326.480
 125363339.954 6  97685789.23143  23855857.219                    23855867.488
 112830616.109 7  87920125.985 7  21470970.156                    21470978.043
 115483489.107 7  89987156.623 7  21975747.203                    21975756.773
 114040159.803 8  88862563.95845  21701107.109                    21701115.895
 127082351.210 7  99025296.934 6  24182974.445                    24182986.574
 11  8 21  0 16 30.0000000  0  9G10G17G09G02G30G12G05G04G25
 109758869.855 8  85526517.23046  20886397.234                    20886405.738
 121807782.090 7  94915233.983 6  23179256.320                    23179265.777
 124300629.229 7  96857703.94144  23653640.266                    23653652.723
 108412909.583 8  84477789.72546  20630293.813                    20630299.641
 125263788.505 6  97608216.76943  23836912.953                    23836923.613
 112769620.628 8  87872597.061 7  21459363.383                    21459371.195
 115393774.420 7  89917249.186 7  21958676.039                    21958684.691
 114116800.847 8  88922284.26345  21715691.039                    21715700.016
 126982494.965 6  98947486.955 7  24163971.453                    24163984.539
 11  8 21  0 17  0.0000000  0  9G10G17G09G02G30G12G05G04G25
 109759907.893 8  85527326.11246  20886594.063                    20886602.586
 121859795.453 7  94955763.844 6  23189154.234                    23189163.750
 124378344.503 7  96918261.15744  23668428.563                    23668441.277
 108413057.323 8  84477904.87346  20630322.070                    20630327.711
 125164486.449 6  97530838.64943  23818016.641                    23818027.051
 112709049.155 7  87825398.536 7  21447837.000                    21447844.578
 115304364.900 7  89847579.529 7  21941661.086                    21941670.285
 114193576.610 8  88982109.55045  21730301.258                    21730310.090
 126882806.959 6  98869808.087 7  24145002.078                    24145014.609
 11  8 21  0 17 30.0000000  0  9G10G17G09G02G30G12G05G04G25
 109761576.531 8  85528626.37846  20886911.914                    20886920.145
 121911965.225 7  94996415.576 6  23199081.945                    23199091.020
 124456225.904 7  96978947.81144  23683248.844                    23683261.492
 108413491.506 8  84478243.22246  20630404.523                    20630410.547
 125065436.933 6  97453657.29443  23799168.195                    23799178.488
 112648904.427 8  87778532.535 7  21436391.555                    21436399.504
 115215263.562 7  89778150.021 7  21924705.797                    21924715.113
 114270485.646 8  89042038.68545  21744936.438                    21744945.289
 126783290.172 6  98792262.641 6  24126064.336                    24126077.250
 11  8 21  0 18  0.0000000  0  9G10G17G09G02G30G12G05G04G25
 109763875.708 7  85530417.96746  20887349.406                    20887357.617
 121964291.976 7  95037189.629 6  23209039.438                    23209049.301
 124534269.783 7  97039761.08044  23698100.570                    23698113.223
 108414210.700 8  84478803.66246  20630541.641                    20630547.566
 124966642.716 6  97376674.89043  23780368.633                    23780378.188
 112589188.627 8  87732000.772 7  21425028.539                    21425035.992
 115126473.021 7  89708962.681 7  21907809.477                    21907818.641
 114347525.722 7  89102069.93145  21759596.531                    21759605.789
 126683947.062 6  98714852.529 6  24107160.078                    24107172.652
 11  8 21  0 18 30.0000000  0  9G10G17G09G02G30G12G05G04G25
 109766805.653 7  85532701.05746  20887907.000                    20887915.211
 122016776.065 7  95078086.279 6  23219026.844                    23219036.008
 124612472.761 6  97100698.31943  23712981.648                    23712995.105
 108415213.652 8  84479585.21846  20630732.477                    20630737.992
 124868106.549 6  97299893.54243  23761617.625                    23761627.617
 112529904.458 8  87685805.335 7  21413746.609                    21413754.250
 115037996.522 7  89640020.054 7  21890972.820                    21890982.230
 114424694.917 7  89162201.78545  21774281.391                    21774290.156
 126584780.280 6  98637579.822 6  24088289.000                    24088301.539
 11  8 21  0 19  0.0000000  0  9G10G17G09G02G30G12G05G04G25
 109770366.286 7  85535475.58746  20888584.492                    20888592.625
 122069418.115 7  95119106.026 6  23229044.758                    23229053.828
 124690831.586 7  97161756.97444  23727892.938                    23727906.090
 108416499.155 7  84480586.94146  20630977.070                    20630982.793
 124769831.167 6  97223315.38943  23742916.156                    23742926.598
 112471053.504 7  87639947.470 7  21402547.688                    21402555.508
 114949836.482 7  89571324.019 7  21874196.289                    21874206.184
 114501991.045 7  89222432.54645  21788990.031                    21788999.371
 126485792.174 6  98560446.336 6  24069452.047                    24069464.328
 11  8 21  0 19 30.0000000  0  9G10G17G09G02G30G12G05G04G25
 109774557.712 8  85538741.64746  20889382.164                    20889390.383
 122122218.747 7  95160249.330 6  23239092.633                    23239101.375
 124769342.632 7  97222934.24944  23742833.234                    23742846.160
 108418065.931 8  84481807.83146  20631275.063                    20631280.734
 124671819.401 6  97146942.65143  23724265.219                    23724275.086
 112412638.281 7  87594429.134 7  21391431.367                    21391439.266
 114861995.758 7  89502876.803 7  21857481.156                    21857490.242
 114579412.129 7  89282760.67845  21803723.141                    21803732.031
 126386985.448 7  98483454.179 6  24050650.227                    24050662.129
 11  8 21  0 20  0.0000000  0  9G10G17G09G02G30G12G05G04G25
 109779379.762 7  85542499.10346  20890299.750                    20890308.195
 122175178.606 7  95201516.705 6  23249170.414                    23249179.340
 124848002.788 6  97284227.76043  23757802.055                    23757815.348
 108419913.160 8  84483247.25346  20631626.570                    20631632.133
 124574074.029 7  97070777.51043  23705665.063                    23705674.453
 112354660.973 8  87549252.030 7  21380398.992                    21380406.695
 114774477.265 7  89434680.676 7  21840826.594                    21840835.898
 114656956.425 8  89343184.82045  21818479.578                    21818488.152
 126288362.719 7  98406605.361 6  24031882.352                    24031894.816
 11  8 21  0 20 30.0000000  0  9G10G17G09G02G30G12G05G04G25
 109784832.583 7  85546748.06346  20891337.633                    20891345.668
 122228298.245 7  95242908.587 6  23259278.734                    23259287.668
 124926808.408 7  97345634.59243  23772798.320                    23772811.348
 108422039.196 7  84484903.93146  20632030.969                    20632036.598
 124476597.782 7  96994822.05643  23687115.148                    23687125.367
 112297123.799 7  87504417.887 7  21369449.734                    21369457.313
 114687283.779 7  89366737.790 7  21824234.156                    21824243.621
 114734621.538 8  89403703.09645  21833258.836                    21833267.238
 126189926.462 7  98329901.842 6  24013150.914                    24013162.738
 11  8 21  0 21  0.0000000  0  9G10G17G09G02G30G12G05G04G25
 109790916.717 7  85551488.95646  20892494.781                    20892503.418
 122281578.123 7  95284425.335 6  23269417.727                    23269426.754
 125005756.307 6  97407152.31343  23787821.727                    23787834.527
 108424443.453 7  84486777.40046  20632488.578                    20632494.371
 124379393.905 6  96919078.81943  23668618.281                    23668628.105
 112240029.454 8  87459928.806 7  21358585.055                    21358592.781
 114600418.351 7  89299050.540 7  21807704.258                    21807713.227
 114812406.228 7  89464314.54545  21848060.758                    21848069.047
 126091679.680 7  98253345.956 6  23994455.031                    23994466.875
 11  8 21  0 21 30.0000000  0  9G10G17G09G02G30G12G05G04G25
 109797631.790 8  85556721.48346  20893772.805                    20893781.195
 122335018.851 7  95326067.416 6  23279586.688                    23279596.145
 125084843.107 7  97468778.26543  23802871.734                    23802884.207
 108427124.524 8  84488866.57346  20632998.844                    20633004.246
 124282465.140 7  96843549.94343  23650173.820                    23650183.281
 112183380.132 8  87415786.504 7  21347805.047                    21347812.184
 114513883.686 7  89231621.024 7  21791237.391                    21791246.387
 114890308.228 7  89525017.39645  21862885.211                    21862893.508
 125993624.917 7  98176939.721 6  23975795.945                    23975807.359
 11  8 21  0 22  0.0000000  0  9G10G17G09G02G30G12G05G04G25
 109804977.696 8  85562445.57146  20895170.781                    20895179.070
 122388620.880 7  95367835.190 6  23289786.930                    23289796.320
 125164065.480 6  97530509.86644  23817947.641                    23817960.266
 108430081.335 8  84491170.60446  20633561.180                    20633567.016
 124185814.260 7  96768237.62443  23631781.398                    23631791.160
 112127178.012 8  87371992.674 7  21337110.367                    21337118.000
 114427682.957 7  89164451.719 7  21774833.563                    21774842.590
 114968325.595 7  89585810.14745  21877731.055                    21877739.676
 125895764.794 7  98100685.129 6  23957173.313                    23957185.793
 11  8 21  0 22 30.0000000  0  9G10G17G09G02G30G12G05G04G25
 109812954.400 8  85568661.19446  20896688.773                    20896696.941
 122442385.236 7  95409729.451 6  23300018.477                    23300027.574
 125243419.745 6  97592344.22143  23833048.797                    23833060.961
 108433312.700 8  84493688.57246  20634176.445                    20634181.871
 124089444.065 7  96693144.02743  23613442.609                    23613452.438
 112071425.274 7  87328549.015 7  21326500.844                    21326508.496
 114341818.410 7  89097544.376 7  21758494.117                    21758503.008
 115046456.594 8  89646691.43445  21892598.695                    21892607.367
 125798101.824 7  98024584.151 6  23938588.867                    23938600.641
 11  8 21  0 23  0.0000000  0  9G10G17G09G02G30G12G05G04G25
 109821561.592 8  85575368.10046  20898326.789                    20898334.820
 122496311.928 7  95451750.211 6  23310279.750                    23310289.488
 125322902.628 7  97654278.79344  23848173.250                    23848186.273
 108436817.167 8  84496419.34146  20634843.367                    20634848.953
 123993357.368 6  96618271.33143  23595158.227                    23595167.676
 112016123.901 8  87285457.072 7  21315977.914                    21315985.043
 114256293.233 7  89030901.475 7  21742219.039                    21742228.398
 115124699.333 8  89707659.79445  21907487.859                    21907496.645
 125700638.665 7  97948638.876 6  23920042.078                    23920054.156
 11  8 21  0 23 30.0000000  0  9G10G17G09G02G30G12G05G04G25
 109830799.337 8  85582566.35046  20900084.234                    20900092.898
 122550401.860 7  95493898.176 6  23320573.117                    23320582.410
 125402511.159 7  97716311.27843  23863322.234                    23863334.918
 108440594.035 8  84499362.36446  20635562.055                    20635567.605
 123897557.144 6  96543621.84543  23576927.570                    23576937.988
 111961276.470 8  87242718.849 7  21305540.227                    21305547.809
 114171109.887 7  88964524.943 7  21726009.313                    21726018.313
 115203051.882 8  89768713.70945  21922397.977                    21922406.707
 125603378.135 7  97872851.494 6  23901534.133                    23901545.918
 11  8 21  0 24  0.0000000  0  9G10G17G09G02G30G12G05G04G25
 109840667.345 8  85590255.71746  20901962.406                    20901970.535
 122604655.420 7  95536173.638 6  23330897.078                    23330906.566
 125482241.667 6  97778438.84044  23878494.805                    23878507.320
 108444641.667 8  84502516.37046  20636332.164                    20636337.848
 123802046.065 7  96469197.68843  23558752.680                    23558762.406
 111906885.101 8  87200336.008 7  21295189.844                    21295197.176
 114086271.131 7  88898416.919 7  21709864.898                    21709874.168
 115281512.272 7  89829851.65845  21937328.227                    21937337.313
 125506322.718 7  97797223.936 6  23883064.594                    23883077.043
 11  8 21  0 24 30.0000000  0  9G10G17G09G02G30G12G05G04G25
 109851165.402 8  85598436.03946  20903959.969                    20903968.227
 122659073.234 7  95578577.101 6  23341252.453                    23341262.184
 125562090.862 6  97840658.87343  23893689.219                    23893702.270
 108448959.080 7  84505880.59146  20637153.484                    20637159.516
 123706827.060 7  96395001.09744  23540632.977                    23540642.473
 111852952.078 8  87158310.316 7  21284926.930                    21284934.230
 114001780.028 7  88832579.789 7  21693786.531                    21693795.316
 115360078.702 8  89891072.23245  21952278.961                    21952288.152
 125409475.055 7  97721758.263 7  23864635.617                    23864647.484
 11  8 21  0 25  0.0000000  0  9G10G17G09G02G30G12G05G04G25
 109862293.285 8  85607107.12846  20906077.422                    20906085.605
 122713655.556 7  95621108.738 6  23351638.898                    23351648.324
 125642055.556 6  97902968.89843  23908905.922                    23908919.563
 108453545.187 8  84509454.17346  20638026.539                    20638032.129
 123611903.065 6  96321034.41543  23522569.289                    23522578.941
 111799479.438 8  87116643.369 7  21274751.008                    21274758.598
 113917639.145 7  88767015.563 7  21677775.000                    21677784.086
 115438749.409 7  89952374.06245  21967249.586                    21967258.750
 125312838.023 7  97646456.725 7  23846245.984                    23846258.371
 11  8 21  0 25 30.0000000  0  9G10G17G09G02G30G12G05G04G25
 109874050.784 8  85616268.83646  20908315.047                    20908323.055
 122768403.286 7  95663769.271 6  23362057.336                    23362066.590
 125722132.030 6  97965365.99843  23924144.000                    23924157.465
 108458398.760 8  84513236.17646  20638949.930                    20638955.934
 123517276.833 7  96247299.75444  23504562.781                    23504572.516
 111746469.163 8  87075336.707 7  21264663.797                    21264671.008
 113833851.216 8  88701726.355 7  21661830.508                    21661839.754
 115517522.581 7  90013755.72945  21982239.742                    21982248.727
 125216414.193 7  97571321.341 6  23827896.195                    23827909.063
 11  8 21  0 26  0.0000000  0  9G10G17G09G02G30G12G05G04G25
 109886437.753 8  85625921.02946  20910672.188                    20910680.375
 122823316.559 7  95706558.804 6  23372506.703                    23372516.430
 125802317.183 6  98027847.76243  23939402.961                    23939416.609
 108463518.624 8  84517225.66846  20639924.234                    20639930.082
 123422951.336 7  96173799.45444  23486612.594                    23486622.609
 111693923.590 8  87034392.150 7  21254664.203                    21254671.789
 113750419.345 8  88636714.603 7  21645953.906                    21645963.152
 115596396.298 7  90075215.75345  21997248.945                    21997258.277
 125120206.331 7  97496354.250 7  23809589.555                    23809601.363
 11  8 21  0 26 30.0000000  0  9G10G17G09G02G30G12G05G04G25
 109899453.653 8  85636063.29146  20913148.805                    20913157.102
 122878396.175 7  95749477.958 6  23382988.359                    23382997.438
 125882607.723 6  98090411.69443  23954682.609                    23954695.035
 108468903.459 8  84521421.63046  20640949.117                    20640954.719
 123328929.236 7  96100535.56844  23468720.898                    23468730.965
 111641844.922 8  86993811.420 7  21244754.102                    21244761.691
 113667345.881 8  88571982.121 7  21630145.961                    21630154.590
 115675368.770 8  90136752.71745  22012276.797                    22012285.813
 125024216.911 7  97421557.371 6  23791322.969                    23791334.859
 11  8 21  0 27  0.0000000  0  9G10G17G09G02G30G12G05G04G25
 109913098.145 8  85646695.38046  20915745.250                    20915753.574
 122933642.465 7  95792526.989 6  23393501.586                    23393510.738
 125963000.171 6  98153055.04243  23969980.219                    23969993.785
 108474551.906 8  84525823.00246  20642023.563                    20642029.410
 123235213.227 7  96027510.18544  23450887.680                    23450897.223
 111590235.054 8  86953595.980 7  21234933.430                    21234940.750
 113584633.544 8  88507531.039 7  21614405.930                    21614414.871
 115754438.003 7  90198365.08245  22027323.203                    22027332.117
 124928448.478 7  97346932.712 7  23773098.867                    23773111.129
 11  8 21  0 27 30.0000000  0  9G10G17G09G02G30G12G05G04G25
 109927370.815 8  85657816.96746  20918461.250                    20918469.473
 122989056.127 7  95835706.439 6  23404045.789                    23404055.625
 126043491.389 6  98215775.34143  23985297.977                    23985310.715
 108480463.178 8  84530429.17146  20643148.484                    20643154.406
 123141806.364 6  95954725.70544  23433112.633                    23433122.551
 111539096.530 8  86913747.814 7  21225201.609                    21225209.449
 113502285.244 7  88443363.623 7  21598735.398                    21598744.410
 115833602.386 7  90260051.59745  22042388.148                    22042396.816
 124832904.026 7  97272482.581 6  23754917.938                    23754929.379
 11  8 21  0 28  0.0000000  0  9G10G17G09G02G30G12G05G04G25
 109942271.489 8  85669427.91246  20921296.695                    20921304.609
 123044637.495 7  95879016.564 6  23414622.297                    23414632.504
 126124077.746 6  98278569.76343  24000633.164                    24000646.176
 108486635.912 8  84535239.08646  20644323.422                    20644329.027
 123048711.464 7  95882184.32044  23415397.602                    23415407.207
 111488430.851 8  86874268.097 7  21215560.516                    21215567.941
 113420303.732 8  88379482.010 7  21583134.898                    21583143.934
 115912859.987 7  90321810.74345  22057470.297                    22057479.230
 124737586.028 7  97198208.918 6  23736779.141                    23736790.461
 11  8 21  0 28 30.0000000  0  9G10G17G09G02G30G12G05G04G25
 109957799.768 8  85681527.88646  20924251.383                    20924259.633
 123100386.993 7  95922457.696 6  23425232.109                    23425241.355
 126204756.351 6  98341436.08143  24015985.930                    24015998.453
 108493068.850 8  84540251.76546  20645547.508                    20645553.348
 122955931.270 7  95809888.15044  23397741.672                    23397751.301
 111438240.310 8  86835158.618 7  21206009.617                    21206016.836
 113338691.671 8  88315888.288 7  21567604.508                    21567613.383
 115992209.138 7  90383641.22845  22072569.453                    22072578.734
 124642497.162 7  97124113.807 6  23718683.875                    23718695.559
 11  8 21  0 29  0.0000000  0  9G10G17G09G02G30G12G05G04G25
 109973954.775 8  85694116.23446  20927325.953                    20927334.129
 123156305.253 7  95966030.334 6  23435872.430                    23435882.000
 126285523.570 6  98404371.47243  24031355.164                    24031368.492
 108499760.727 8  84545466.21046  20646821.000                    20646826.742
 122863468.559 7  95737839.40243  23380146.570                    23380156.039
 111388526.964 8  86796420.971 7  21196549.398                    21196556.863
 113257451.606 7  88252584.423 7  21552145.016                    21552153.777
 116071648.120 7  90445541.71445  22087686.602                    22087695.559
 124547640.167 7  97050199.367 6  23700633.648                    23700644.684
 11  8 21  0 29 30.0000000  0  9G10G17G09G02G30G12G05G04G25
 109990736.080 8  85707192.58746  20930519.648                    20930527.672
 123212392.986 7  96009735.032 6  23446545.547                    23446554.973
 126366376.262 6  98467373.43443  24046741.086                    24046753.711
 108506710.500 8  84550881.62646  20648143.492                    20648148.777
 122771326.237 7  95666040.27943  23362611.969                    23362622.223
 111339293.021 8  86758056.882 7  21187180.523                    21187187.961
 113176586.171 7  88189572.486 7  21536756.773                    21536765.500
 116151175.025 7  90507510.71445  22102820.133                    22102828.848
 124453017.640 7  96976467.624 6  23682627.195                    23682638.379
 11  8 21  0 30  0.0000000  0  9G10G17G09G02G30G12G05G04G25
 110008143.283 8  85720756.65946  20933831.867                    20933840.035
 123268650.323 7  96053571.886 6  23457251.625                    23457260.555
 126447311.249 6  98530439.52743  24062142.883                    24062155.582
 108513916.877 8  84556496.98946  20649514.664                    20649520.473
 122679507.118 6  95594492.99144  23345139.188                    23345149.340
 111290540.503 8  86720067.925 7  21177902.969                    21177910.398
 113096098.250 7  88126854.710 7  21521440.445                    21521449.137
 116230788.226 7  90569546.95645  22117969.914                    22117978.793
 124358632.330 7  96902920.745 6  23664666.039                    23664677.125
 11  8 21  0 30 30.0000000  0  9G10G17G09G02G30G12G05G04G25
 110026176.029 8  85734808.17346  20937263.180                    20937271.531
 123325078.164 7  96097541.607 6  23467989.352                    23467998.188
 126528325.029 6  98593567.00643  24077559.289                    24077572.141
 108521378.740 8  84562311.44346  20650934.891                    20650940.246
 122588013.900 6  95523199.66844  23327729.273                    23327738.004
 111242271.319 8  86682455.585 7  21168717.906                    21168725.160
 113015990.351 8  88064433.053 7  21506196.281                    21506205.340
 116310485.845 7  90631648.98045  22133136.000                    22133144.387
 124264486.833 7  96829560.707 6  23646750.414                    23646762.086
 11  8 21  0 31  0.0000000  0  9G10G17G09G02G30G12G05G04G25
 110044833.651 8  85749346.60546  20940813.539                    20940821.691
 123381676.640 7  96141644.284 6  23478759.633                    23478769.141
 126609414.306 6  98656753.31743  24092989.734                    24093003.180
 108529094.910 8  84568324.05346  20652402.984                    20652408.637
 122496849.541 6  95452162.60143  23310380.797                    23310390.270
 111194487.559 8  86645221.488 7  21159624.742                    21159632.441
 112936265.215 7  88002309.657 7  21491025.000                    21491033.574
 116390266.371 7  90693815.59745  22148317.328                    22148326.137
 124170583.882 7  96756389.663 6  23628880.992                    23628892.777
 11  8 21  0 31 30.0000000  0  9G10G17G09G02G30G12G05G04G25
 110064115.657 8  85764371.57946  20944482.609                    20944491.105
 123438446.273 7  96185880.330 6  23489562.969                    23489571.516
 126690575.947 6  98719996.01743  24108433.891                    24108448.000
 108537064.063 8  84574533.80246  20653919.344                    20653925.426
 122406016.799 6  95381383.91744  23293096.102                    23293105.113
 111147191.161 8  86608367.152 7  21150624.453                    21150632.023
 112856925.720 7  87940486.756 7  21475927.000                    21475936.043
 116470127.880 7  90756045.31145  22163514.742                    22163523.531
 124076926.138 7  96683409.701 6  23611058.859                    23611070.652
 11  8 21  0 32  0.0000000  0  9G10G17G09G02G30G12G05G04G25
 110084021.318 8  85779882.50646  20948270.539                    20948279.125
 123495387.573 7  96230250.144 6  23500398.359                    23500407.629
 126771806.731 6  98783292.54443  24123892.492                    24123905.809
 108545285.137 8  84580939.86546  20655484.070                    20655489.449
 122315518.530 6  95310865.88143  23275874.938                    23275884.445
 111100384.151 8  86571894.151 7  21141717.594                    21141725.133
 112777974.298 8  87878966.242 7  21460903.203                    21460911.934
 116550068.668 7  90818336.81245  22178727.430                    22178736.203
 123983516.321 7  96610622.933 6  23593283.867                    23593295.348
 11  8 21  0 32 30.0000000  0  9G10G17G09G02G30G12G05G04G25
 110104549.870 8  85795878.79946  20952177.016                    20952185.238
 123552501.047 7  96274754.129 6  23511266.641                    23511275.855
 126853102.985 6  98846640.10443  24139362.414                    24139376.609
 108553756.812 8  84587541.18846  20657096.047                    20657101.777
 122225357.493 6  95240610.60844  23258717.719                    23258727.539
 111054068.626 8  86535804.120 7  21132903.844                    21132911.215
 112699413.838 8  87817750.380 7  21445953.680                    21445961.945
 116630087.188 7  90880688.87645  22193954.430                    22193963.242
 123890357.130 7  96538031.447 6  23575555.633                    23575567.250
 11  8 21  0 33  0.0000000  0  9G10G17G09G02G30G12G05G04G25
 110125700.452 8  85812359.77346  20956202.211                    20956210.008
 123609787.257 7  96319392.713 6  23522168.008                    23522177.180
 126934461.662 6  98910036.27243  24154845.234                    24154858.508
 108562477.669 8  84594336.69046  20658755.633                    20658761.219
 122135536.303 6  95170620.16044  23241624.938                    23241634.551
 111008246.284 8  86500098.392 7  21124184.477                    21124191.711
 112621246.045 7  87756840.491 7  21431078.383                    21431087.301
 116710181.509 7  90943100.00845  22209195.531                    22209204.211
 123797451.108 7  96465637.242 6  23557876.133                    23557888.031
 11  8 21  0 33 30.0000000  0  9G10G17G09G02G30G12G05G04G25
 110147472.466 8  85829324.99146  20960345.109                    20960353.367
 123667246.340 7  96364166.016 6  23533101.930                    23533111.145
 127015879.652 6  98973478.65343  24170338.039                    24170351.777
 108571446.766 8  84601325.61446  20660462.336                    20660467.949
 122046057.987 6  95100896.86644  23224597.883                    23224607.207
 110962919.263 8  86464778.631 7  21115558.672                    21115566.379
 112543474.117 7  87696239.063 7  21416279.102                    21416287.707
 116790350.163 7  91005569.05145  22224451.117                    22224459.914
 123704801.012 7  96393442.447 7  23540245.688                    23540256.934
 11  8 21  0 34  0.0000000  0  9G10G17G09G02G30G12G05G04G25
 110169864.843 8  85846773.61646  20964606.453                    20964614.535
 123724878.804 7  96409074.427 6  23544069.109                    23544078.152
 127097353.370 6  99036964.47143  24185842.523                    24185856.109
 108580662.535 8  84608506.75146  20662216.070                    20662221.660
 121956925.004 7  95031442.66644  23207636.664                    23207645.973
 110918088.988 8  86429845.938 7  21107027.891                    21107035.738
 112466100.535 8  87635948.036 7  21401555.234                    21401563.680
 116870591.053 7  91068094.38745  22239720.688                    22239729.563
 123612409.360 7  96321449.035 7  23522663.469                    23522675.918
 11  8 21  0 34 30.0000000  0  9G10G17G09G02G30G12G05G04G25
 110192876.949 8  85864705.13046  20968985.438                    20968993.348
 123782685.328 7  96454118.464 6  23555069.492                    23555079.070
 127178879.826 6  99100491.34043  24201356.180                    24201369.988
 108590124.245 8  84615879.52446  20664016.305                    20664022.297
 121868140.424 7  94962259.94344  23190741.039                    23190750.645
 110873757.885 8  86395302.212 7  21098592.039                    21098599.836
 112389127.963 8  87575969.487 7  21386907.844                    21386916.359
 116950902.825 7  91130674.94045  22255003.547                    22255012.277
 123520278.980 7  96249659.213 7  23505132.352                    23505143.766
 11  8 21  0 35  0.0000000  0  9G10G17G09G02G30G12G05G04G25
 110216508.713 8  85883119.50646  20973482.070                    20973490.621
 123840666.263 6  96499298.397 6  23566102.305                    23566112.316
 127260455.753 6  99164056.79344  24216879.969                    24216894.211
 108599831.013 8  84623443.26146  20665863.633                    20665869.227
 121779707.251 7  94893351.05044  23173912.695                    23173922.402
 110829927.788 8  86361148.886 7  21090251.578                    21090259.207
 112312558.937 7  87516305.388 7  21372337.328                    21372346.059
 117031284.101 7  91193309.66145  22270299.547                    22270308.621
 123428412.844 7  96178075.289 7  23487650.563                    23487662.094
 11  8 21  0 35 30.0000000  0  9G10G17G09G02G30G12G05G04G25
 110240758.484 8  85902015.42746  20978097.047                    20978104.637
 123898821.685 7  96544614.302 6  23577169.430                    23577179.047
 127342077.653 6  99227658.06443  24232411.984                    24232426.332
 108609780.332 8  84631195.98846  20667756.711                    20667762.648
 121691627.771 7  94824717.75944  23157151.797                    23157161.207
 110786600.202 8  86327387.124 7  21082006.508                    21082013.676
 112236395.943 8  87456957.676 7  21357843.672                    21357852.570
 117111732.753 7  91255996.87445  22285608.484                    22285617.477
 123336813.083 7  96106698.927 7  23470219.969                    23470231.363
 11  8 21  0 36  0.0000000  0  9G10G17G09G02G30G12G05G04G25
 110265625.243 8  85921392.11045  20982828.891                    20982836.984
 123957152.212 7  96590066.648 6  23588269.523                    23588278.848
 127423742.510 6  99291292.77443  24247953.094                    24247966.348
 108619971.487 8  84639137.15646  20669696.188                    20669701.961
 121603904.712 7  94756362.19144  23140459.078                    23140468.273
 110743777.047 8  86294018.433 7  21073857.680                    21073864.922
 112160641.262 8  87397928.135 7  21343427.953                    21343436.496
 117192247.192 7  91318735.35545  22300930.281                    22300939.008
 123245482.437 7  96035532.253 7  23452839.484                    23452851.324
 11  8 21  0 36 30.0000000  0  9G10G17G09G02G30G12G05G04G25
 110291108.894 8  85941249.50246  20987678.117                    20987686.313
 124015658.451 6  96635655.905 6  23599402.508                    23599412.551
 127505447.333 6  99354958.62843  24263501.031                    24263514.621
 108630403.914 8  84647266.32146  20671681.547                    20671686.883
 121516541.201 7  94688286.80144  23123833.664                    23123843.453
 110701460.369 8  86261044.397 7  21065804.633                    21065812.332
 112085297.853 8  87339219.071 7  21329090.539                    21329098.945
 117272826.128 7  91381524.10645  22316263.359                    22316272.102
 123154423.887 7  95964577.620 7  23435511.961                    23435523.594
 11  8 21  0 37  0.0000000  0  9G10G17G09G02G30G12G05G04G25
 110317208.118 8  85961586.56946  20992644.641                    20992652.824
 124074340.726 6  96681382.326 6  23610569.539                    23610578.871
 127587188.688 6  99418652.90443  24279056.297                    24279070.148
 108641075.847 8  84655582.11546  20673712.188                    20673717.859
 121429539.876 7  94620493.64444  23107277.875                    23107287.520
 110659651.953 7  86228466.425 7  21057849.133                    21057856.496
 112010367.951 8  87280832.207 7  21314831.961                    21314840.535
 117353467.683 7  91444361.63545  22331609.188                    22331617.781
 123063639.963 7  95893836.970 6  23418236.211                    23418247.844
 11  8 21  0 37 30.0000000  0  9G10G17G09G02G30G12G05G04G25
 110343921.574 7  85982402.26846  20997727.953                    20997735.957
 124133199.556 6  96727246.319 6  23621770.000                    23621779.457
 127668963.329 6  99482373.21943  24294617.344                    24294631.484
 108651986.144 8  84664083.64446  20675788.500                    20675793.969
 121342903.426 7  94552984.78944  23090791.375                    23090800.590
 110618353.574 8  86196285.875 7  21049989.977                    21049997.555
 111935854.185 8  87222769.614 7  21300652.234                    21300660.707
 117434170.099 7  91507246.59045  22346966.656                    22346975.180
 122973133.356 7  95823312.416 7  23401013.672                    23401024.969
 11  8 21  0 38  0.0000000  0  9G10G17G09G02G30G12G05G04G25
 110371248.599 7  86003696.06846  21002928.242                    21002936.293
 124192235.104 6  96773248.021 6  23633004.367                    23633013.973
 127750768.005 6  99546116.93143  24310184.555                    24310198.375
 108663133.400 8  84672769.81946  20677909.703                    20677915.406
 121256634.563 7  94485762.35444  23074375.086                    23074384.176
 110577566.789 8  86164503.974 7  21042228.461                    21042236.090
 111861759.052 8  87165033.212 7  21286552.672                    21286560.641
 117514932.111 7  91570177.99844  22362335.008                    22362343.691
 122882906.678 7  95753005.990 6  23383843.852                    23383855.230
 11  8 21  0 38 30.0000000  0  9G10G17G09G02G30G12G05G04G25
 110399188.381 8  86025467.34246  21008244.875                    21008253.332
 124251447.980 6  96819387.888 6  23644270.961                    23644281.629
 127832599.563 6  99609881.58243  24325757.164                    24325771.059
 108674516.845 8  84681640.04246  20680076.047                    20680081.203
 121170736.182 7  94418828.61044  23058029.000                    23058037.934
 110537293.890 8  86133122.508 7  21034564.617                    21034572.719
 111788085.010 8  87107624.947 7  21272532.875                    21272541.285
 117595752.148 7  91633154.62045  22377714.563                    22377723.445
 122792962.847 7  95682919.960 6  23366727.773                    23366738.938
 11  8 21  0 39  0.0000000  0  9G10G17G09G02G30G12G05G04G25
 110427739.875 8  86047715.26646  21013678.234                    21013686.078
 124310838.484 6  96865666.167 6  23655573.109                    23655583.602
 127914455.314 6  99673665.13043  24341333.844                    24341348.180
 108686135.375 8  84690693.44446  20682286.648                    20682292.102
 121085211.127 7  94352185.77344  23041754.016                    23041763.363
 110497536.518 8  86102142.754 7  21026999.594                    21027007.184
 111714834.608 8  87050546.787 7  21258593.484                    21258601.836
 117676628.568 7  91696175.19044  22393104.703                    22393113.289
 122703304.535 7  95613056.413 7  23349666.414                    23349677.711
 11  8 21  0 39 30.0000000  0  9G10G17G09G02G30G12G05G04G25
 110456902.001 8  86070439.01846  21019227.750                    21019235.422
 124370406.921 6  96912083.094 6  23666908.844                    23666918.441
 127996331.516 6  99737464.57543  24356913.758                    24356928.430
 108697987.333 8  84699928.74346  20684541.781                    20684547.453
 121000061.992 7  94285835.85144  23025550.625                    23025559.953
 110458296.246 8  86071565.935 7  21019532.430                    21019539.934
 111642010.534 8  86993800.832 7  21244735.703                    21244743.848
 117757559.818 7  91759238.48645  22408505.734                    22408514.086
 122613934.269 7  95543417.316 6  23332659.789                    23332670.828
 11  8 21  0 40  0.0000000  0  9G10G17G09G02G30G12G05G04G25
 110486673.734 8  86093637.79846  21024893.133                    21024901.117
 124430153.929 6  96958639.162 6  23678278.375                    23678288.172
 128078224.918 6  99801277.43543  24372497.875                    24372511.793
 108710071.404 8  84709344.91146  20686841.656                    20686847.227
 120915291.276 7  94219780.81343  23009419.148                    23009428.355
 110419574.324 8  86041393.025 7  21012163.883                    21012170.871
 111569614.607 8  86937388.498 7  21230958.742                    21230967.418
 117838544.158 7  91822343.14344  22423916.000                    22423925.172
 122524854.635 7  95474004.676 6  23315708.063                    23315719.758
 11  8 21  0 40 30.0000000  0  9G10G17G09G02G30G12G05G04G25
 110517053.814 8  86117310.61846  21030674.102                    21030682.133
 124490079.751 6  97005334.573 6  23689682.227                    23689691.699
 128160132.401 6  99865101.25043  24388083.719                    24388098.723
 108722386.742 8  84718941.29446  20689185.234                    20689191.168
 120830901.956 7  94154022.94444  22993360.680                    22993369.992
 110381372.976 8  86011625.762 7  21004894.227                    21004901.750
 111497649.504 8  86881311.865 7  21217264.219                    21217272.926
 117919580.447 7  91885488.29444  22439336.953                    22439345.359
 122436068.392 7  95404820.660 6  23298812.906                    23298824.008
 11  8 21  0 41  0.0000000  0  9G10G17G09G02G30G12G05G04G25
 110548040.953 8  86141456.47146  21036570.797                    21036578.984
 124550184.803 7  97052169.644 6  23701119.414                    23701129.523
 128242050.926 6  99928933.70943  24403672.648                    24403687.211
 108734932.200 8  84728716.98546  20691572.336                    20691578.141
 120746896.781 7  94088564.42144  22977374.977                    22977383.996
 110343693.878 8  85982265.445 7  20997723.773                    20997731.352
 111426117.638 8  86825572.822 7  21203652.398                    21203660.719
 118000666.998 7  91948672.62744  22454767.422                    22454776.168
 122347578.289 7  95335867.390 6  23281974.016                    23281985.320
 11  8 21  0 41 30.0000000  0  9G10G17G09G02G30G12G05G04G25
 110579633.804 8  86166074.29746  21042582.523                    21042590.668
 124610469.061 6  97099144.369 6  23712590.766                    23712600.961
 128323977.465 6  99992772.39043  24419263.672                    24419277.586
 108747706.072 8  84738670.67046  20694003.195                    20694008.691
 120663278.184 7  94023407.12844  22961462.469                    22961471.902
 110306538.238 8  85953313.017 7  20990653.680                    20990661.277
 111355021.159 8  86770173.041 7  21190123.297                    21190131.109
 118081801.934 7  92011894.66244  22470206.695                    22470215.375
 122259386.761 7  95267146.771 6  23265191.828                    23265202.848
 11  8 21  0 42  0.0000000  0  9G10G17G09G02G30G12G05G04G25
 110611831.454 8  86191163.38846  21048709.203                    21048717.336
 124670933.204 6  97146259.267 6  23724097.430                    23724106.977
 128405909.003 6 100056615.04043  24434854.781                    24434869.438
 108760707.447 8  84748801.63646  20696477.227                    20696482.711
 120580048.946 7  93958553.23344  22945624.977                    22945634.074
 110269908.266 8  85924770.196 7  20983683.023                    20983690.367
 111284362.660 8  86715114.542 7  21176677.117                    21176685.586
 118162984.108 7  92075153.50244  22485655.352                    22485664.078
 122171496.603 7  95198660.986 7  23248466.344                    23248477.723
 11  8 21  0 42 30.0000000  0  9G10G17G09G02G30G12G05G04G25
 110644632.667 7  86216722.79946  21054951.438                    21054959.461
 124731577.492 6  97193514.542 6  23735637.867                    23735647.035
 128487841.971 6 100120458.77243  24450446.156                    24450460.602
 108773934.717 8  84759108.61246  20698994.578                    20698999.699
 120497211.624 7  93894004.71944  22929861.445                    22929870.656
 110233804.938 8  85896637.756 7  20976812.992                    20976820.387
 111214144.462 8  86660399.134 7  21163315.242                    21163323.156
 118244211.669 7  92138447.68445  22501112.531                    22501121.102
 122083910.256 7  95130411.933 7  23231798.938                    23231810.449
 11  8 21  0 43  0.0000000  0  9G10G17G09G02G30G12G05G04G25
 110678036.654 8  86242751.90646  21061307.766                    21061316.059
 124792402.336 6  97240910.516 6  23747212.391                    23747221.367
 128569773.341 6 100184301.26943  24466037.492                    24466051.477
 108787387.239 8  84769591.12046  20701554.336                    20701559.793
 120414769.176 7  93829763.91244  22914172.656                    22914182.074
 110198230.109 8  85868917.136 7  20970043.086                    20970050.832
 111144369.051 8  86606028.757 7  21150037.180                    21150045.453
 118325483.320 7  92201776.22844  22516577.742                    22516586.492
 121996630.686 7  95062401.914 6  23215190.688                    23215201.977
 11  8 21  0 43 30.0000000  0  9G10G17G09G02G30G12G05G04G25
 110712041.678 8  86269249.35746  21067778.664                    21067786.918
 124853408.107 7  97288447.476 6  23758821.063                    23758830.910
 128651700.142 6 100248140.20243  24481627.758                    24481642.828
 108801063.479 8  84780247.94946  20704156.617                    20704162.281
 120332724.080 7  93765832.73844  22898560.555                    22898569.707
 110163185.412 8  85841609.607 7  20963374.250                    20963381.793
 111075038.649 8  86552005.132 7  21136843.875                    21136852.160
 118406797.419 7  92265137.84644  22532051.344                    22532060.113
 121909660.511 7  94994632.991 7  23198640.711                    23198651.969
 11  8 21  0 44  0.0000000  0  9G10G17G09G02G30G12G05G04G25
 110746646.557 8  86296214.23446  21074363.859                    21074372.035
 124914595.073 7  97336125.629 6  23770465.422                    23770474.031
 128733619.249 6 100311973.08243  24497216.633                    24497230.539
 108814962.606 8  84791078.46646  20706801.469                    20706806.922
 120251079.283 7  93702213.48844  22883023.750                    22883032.746
 110128672.589 8  85814716.523 7  20956806.813                    20956814.477
 111006155.664 8  86498330.149 7  21123735.852                    21123743.953
 118488152.949 7  92328531.75844  22547532.633                    22547541.953
 121823002.413 7  94927107.246 7  23182150.383                    23182161.613
 11  8 21  0 44 30.0000000  0  9G10G17G09G02G30G12G05G04G25
 110781849.492 7  86323645.10446  21081062.344                    21081070.941
 124975963.471 6  97383945.165 6  23782142.992                    23782151.902
 128815527.447 6 100375797.51943  24512802.695                    24512817.320
 108829082.973 8  84802081.38446  20709488.688                    20709494.121
 120169837.104 7  93638907.95544  22867563.797                    22867572.949
 110094692.988 8  85788238.946 7  20950340.375                    20950348.066
 110937722.200 8  86445005.435 7  21110713.609                    21110721.422
 118569548.261 7  92391956.67644  22563021.703                    22563030.641
 121736658.837 7  94859826.584 7  23165719.516                    23165730.730
 11  8 21  0 45  0.0000000  0  9G10G17G09G02G30G12G05G04G25
 110817649.516 8  86351541.24945  21087875.133                    21087883.113
 125037513.881 6  97431906.527 6  23793855.469                    23793865.160
 128897421.673 6 100439611.02343  24528387.117                    24528401.527
 108843423.487 8  84813255.83546  20712217.328                    20712222.715
 120089000.292 7  93575918.29844  22852181.008                    22852190.426
 110061248.238 8  85762178.124 7  20943976.328                    20943983.906
 110869740.438 8  86392032.694 7  21097777.008                    21097785.160
 118650981.665 7  92455411.25744  22578517.641                    22578526.863
 121650632.556 7  94792793.163 7  23149349.406                    23149360.371
 11  8 21  0 45 30.0000000  0  9G10G17G09G02G30G12G05G04G25
 110854045.368 8  86379901.66846  21094801.477                    21094809.305
 125099246.429 6  97480009.819 6  23805603.016                    23805612.008
 128979298.871 6 100503411.27043  24543968.133                    24543982.629
 108857983.014 8  84824600.95246  20714988.180                    20714993.324
 120008571.623 7  93513246.67144  22836875.477                    22836885.047
 110028339.740 8  85736535.170 7  20937713.938                    20937721.355
 110802213.076 8  86339414.030 7  21084926.750                    21084934.922
 118732451.870 7  92518894.50744  22594021.305                    22594030.215
 121564926.311 7  94726009.120 7  23133039.672                    23133051.266
 11  8 21  0 46  0.0000000  0  9G10G17G09G02G30G12G05G04G25
 110891035.988 8  86408725.54346  21101840.227                    21101848.363
 125161161.416 6  97528255.279 6  23817385.211                    23817394.340
 129061156.007 6 100567195.90543  24559544.742                    24559559.992
 108872760.354 8  84836115.79446  20717800.047                    20717805.484
 119928553.656 7  93450895.07344  22821649.172                    22821657.859
 109995969.058 8  85711311.304 7  20931554.211                    20931561.594
 110735142.260 8  86287151.117 7  21072163.688                    21072171.660
 118813957.678 7  92582405.48144  22609530.891                    22609540.215
 121479542.697 7  94659476.477 7  23116791.430                    23116802.715
 11  8 21  0 46 30.0000000  0  9G10G17G09G02G30G12G05G04G25
 110928619.653 8  86438011.51846  21108992.313                    21108999.930
 125223259.204 6  97576643.187 6  23829201.570                    23829211.211
 129142989.972 6 100630962.46743  24575118.016                    24575132.863
 108887754.396 8  84847799.49746  20720653.117                    20720659.012
 119848949.000 7  93388865.53044  22806500.508                    22806509.801
 109964137.576 8  85686507.586 7  20925496.703                    20925504.023
 110668529.813 8  86235245.378 7  21059487.492                    21059495.402
 118895497.405 7  92645942.88344  22625048.023                    22625057.102
 121394484.319 7  94593197.282 7  23100605.750                    23100617.633
 11  8 21  0 47  0.0000000  0  9G10G17G09G02G30G12G05G04G25
 110966794.620 8  86467758.24645  21116256.430                    21116264.391
 125285540.217 6  97625173.870 6  23841053.672                    23841062.465
 129224797.597 6 100694708.49043  24590685.266                    24590700.293
 108902963.987 8  84859651.16846  20723547.484                    20723552.898
 119769760.234 7  93327160.05044  22791431.648                    22791440.945
 109932846.622 8  85662125.067 7  20919542.188                    20919549.406
 110602378.314 8  86183698.813 7  21046899.234                    21046907.875
 118977069.795 7  92709505.75944  22640570.063                    22640579.738
 121309753.888 7  94527173.611 7  23084481.430                    23084492.895
 11  8 21  0 47 30.0000000  0  9G10G17G09G02G30G12G05G04G25
 111005559.599 8  86497964.71746  21123633.227                    21123641.160
 125348004.655 6  97673847.476 6  23852939.680                    23852949.355
 129306575.953 6 100758431.74743  24606247.023                    24606262.730
 108918387.917 8  84871669.85046  20726482.719                    20726488.027
 119690990.140 7  93265780.80044  22776441.594                    22776451.277
 109902098.325 8  85638165.389 7  20913691.094                    20913698.410
 110536690.102 8  86132513.256 7  21034399.594                    21034407.309
 119058673.551 7  92773093.07644  22656099.047                    22656108.508
 121225354.047 7  94461407.546 7  23068421.508                    23068432.387
 11  8 21  0 48  0.0000000  0  9G10G17G09G02G30G12G05G04G25
 111044912.873 8  86528629.59745  21131122.195                    21131129.953
 125410652.556 6  97722664.041 6  23864861.445                    23864870.887
 129388321.899 6 100822129.68043  24621802.805                    24621818.211
 108934024.394 8  84883854.15646  20729457.984                    20729463.555
 119612640.832 7  93204729.43044  22761532.383                    22761541.512
 109871892.660 8  85614628.537 7  20907942.938                    20907950.309
 110471467.288 8  86081690.341 7  21021987.414                    21021995.832
 119140306.873 7  92836703.44044  22671633.047                    22671642.570
 121141287.030 7  94395900.821 7  23052423.852                    23052434.898
 11  8 21  0 48 30.0000000  0  9G10G17G09G02G30G12G05G04G25
 111084853.498 8  86559752.16645  21138722.641                    21138730.996
 125473484.383 6  97771623.923 6  23876817.578                    23876827.340
 129470032.365 6 100885799.97543  24637352.273                    24637367.254
 108949872.765 8  84896203.56546  20732473.781                    20732479.137
 119534715.303 7  93144008.27144  22746704.313                    22746712.875
 109842231.958 8  85591516.336 7  20902298.680                    20902305.859
 110406711.849 8  86031231.616 7  21009665.094                    21009673.453
 119221968.665 7  92900336.01144  22687173.891                    22687182.059
 121057555.855 7  94330655.783 7  23036490.031                    23036500.914
 11  8 21  0 49  0.0000000  0  9G10G17G09G02G30G12G05G04G25
 111125380.028 8  86591331.28046  21146434.094                    21146442.508
 125536500.415 6  97820727.332 6  23888809.453                    23888818.793
 129551704.329 6 100949440.27043  24652893.867                    24652908.992
 108965931.743 8  84908717.08746  20735530.070                    20735535.160
 119457216.097 7  93083619.31044  22731956.289                    22731964.934
 109813117.512 8  85568829.792 7  20896758.336                    20896765.676
 110342425.999 8  85981138.809 7  20997431.930                    20997439.996
 119303657.684 7  92963989.78844  22702718.055                    22702727.340
 120974163.118 7  94265674.467 7  23020621.273                    23020632.168
 11  8 21  0 49 30.0000000  0  9G10G17G09G02G30G12G05G04G25
 111166490.103 8  86623365.10545  21154257.305                    21154265.523
 125599700.811 6  97869974.390 6  23900836.023                    23900845.977
 129633334.760 6 101013048.20143  24668428.125                    24668443.117
 108982199.612 8  84921393.37546  20738625.531                    20738630.902
 119380145.392 7  93023564.25344  22717290.000                    22717299.543
 109784550.265 8  85546569.632 7  20891322.195                    20891329.734
 110278611.375 8  85931413.192 7  20985288.500                    20985296.672
 119385372.122 7  93027663.36344  22718267.852                    22718277.332
 120891111.113 7  94200958.655 7  23004816.422                    23004827.648
 11  8 21  0 50  0.0000000  0  9G10G17G09G02G30G12G05G04G25
 111208182.468 8  86655852.66245  21162191.203                    21162199.172
 125663085.829 6  97919365.295 6  23912897.586                    23912907.594
 129714920.815 6 101076621.51242  24683953.219                    24683969.125
 108998676.112 8  84934232.23446  20741760.867                    20741766.063
 119303506.257 7  92963845.46544  22702705.961                    22702715.043
 109756531.836 8  85524737.128 7  20885990.625                    20885997.945
 110215270.855 8  85882056.996 7  20973235.336                    20973243.160
 119467110.886 7  93091355.88944  22733822.695                    22733831.438
 120808402.822 7  94136510.678 7  22989077.930                    22989088.672
 11  8 21  0 50 30.0000000  0  9G10G17G09G02G30G12G05G04G25
 111250455.583 8  86688792.75245  21170235.383                    21170243.316
 125726655.669 6  97968900.216 6  23924994.367                    23925004.680
 129796459.510 6 101140157.94542  24699469.586                    24699485.535
 109015359.618 8  84947232.39146  20744935.594                    20744941.004
 119227300.923 7  92904464.71444  22688204.266                    22688213.887
 109729063.640 8  85503333.368 7  20880763.344                    20880770.438
 110152406.412 8  85833071.773 7  20961272.320                    20961280.129
 119548873.247 7  93155066.80244  22749381.477                    22749390.539
 120726040.720 7  94072332.452 7  22973405.016                    22973416.020
 11  8 21  0 51  0.0000000  0  9G10G17G09G02G30G12G05G04G25
 111293307.751 8  86722184.06646  21178390.102                    21178398.066
 125790410.724 6  98018579.451 6  23937126.734                    23937136.531
 129877947.442 6 101203654.79543  24714976.750                    24714991.848
 109032248.754 8  84960392.78546  20748149.352                    20748154.738
 119151532.024 7  92845424.04444  22673786.508                    22673795.113
 109702146.810 8  85482359.243 7  20875641.313                    20875648.641
 110090019.821 8  85784458.912 7  20949400.406                    20949408.449
 119630657.033 7  93218794.41044  22764944.141                    22764952.961
 120644027.345 7  94008425.958 7  22957798.211                    22957809.117
 11  8 21  0 51 30.0000000  0  9G10G17G09G02G30G12G05G04G25
 111336737.384 8  86756025.36246  21186654.289                    21186662.426
 125854350.993 6  98068403.009 6  23949294.000                    23949304.070
 129959382.093 6 101267110.18243  24730473.781                    24730488.266
 109049342.633 8  84973712.69746  20751402.141                    20751407.746
 119076202.096 7  92786725.41644  22659451.500                    22659460.340
 109675782.517 8  85461815.673 7  20870624.289                    20870631.453
 110028113.384 8  85736220.191 7  20937619.680                    20937627.789
 119712461.255 7  93282537.96144  22780511.414                    22780519.859
 120562365.398 7  93944793.311 7  22942258.813                    22942269.453
 11  8 21  0 52  0.0000000  0  9G10G17G09G02G30G12G05G04G25
 111380743.113 8  86790315.56945  21195028.313                    21195036.629
 125918477.010 6  98118371.307 6  23961496.984                    23961506.699
 130040760.355 6 101330521.57743  24745959.328                    24745974.227
 109066640.223 8  84987191.34546  20754693.961                    20754698.977
 119001313.829 7  92728370.95544  22645200.609                    22645209.813
 109649972.625 8  85441704.089 7  20865712.648                    20865720.105
 109966689.355 8  85688357.369 8  20925931.039                    20925939.391
 119794284.718 7  93346296.49544  22796081.664                    22796090.375
 120481057.587 7  93881436.612 7  22926786.469                    22926797.195
 11  8 21  0 52 30.0000000  0  9G10G17G09G02G30G12G05G04G25
 111425322.776 8  86825052.99045  21203511.742                    21203519.371
 125982788.831 6  98168484.396 6  23973735.273                    23973744.953
 130122079.089 6 101393886.59143  24761434.188                    24761449.164
 109084140.028 8  85000827.56546  20758024.195                    20758029.520
 118926869.435 7  92670362.35544  22631034.844                    22631042.887
 109624717.243 8  85422024.602 7  20860906.766                    20860914.367
 109905749.717 8  85640872.001 8  20914334.898                    20914342.969
 119876125.758 7  93410068.71544  22811655.578                    22811663.875
 120400106.218 7  93818357.669 7  22911381.203                    22911392.203
 11  8 21  0 53  0.0000000  0  9G10G17G09G02G30G12G05G04G25
 111470474.901 7  86860236.48345  21212103.570                    21212111.957
 126047286.513 6  98218742.310 6  23986008.719                    23986018.898
 130203335.460 6 101457203.00743  24776897.008                    24776912.184
 109101840.632 8  85014620.24646  20761392.297                    20761397.805
 118852871.323 7  92612701.52844  22616953.469                    22616961.988
 109600017.865 8  85402778.357 7  20856206.758                    20856214.012
 109845295.998 8  85593765.263 7  20902830.680                    20902838.980
 119957983.428 7  93473853.87944  22827232.211                    22827241.289
 120319513.822 7  93755558.447 7  22896045.078                    22896056.418
 11  8 21  0 53 30.0000000  0  9G10G17G09G02G30G12G05G04G25
 111516197.648 8  86895864.62845  21220804.367                    21220812.359
 126111970.472 6  98269145.384 6  23998317.953                    23998327.770
 130284526.483 6 101520468.53843  24792347.422                    24792362.543
 109119741.082 8  85028568.63946  20764798.445                    20764803.887
 118779322.102 7  92555390.46344  22602956.758                    22602966.039
 109575876.103 8  85383966.618 7  20851612.758                    20851620.090
 109785330.334 8  85547038.842 7  20891419.641                    20891427.715
 120039856.332 7  93537650.89944  22842812.273                    22842821.066
 120239283.116 7  93693041.063 7  22880777.188                    22880788.750
 11  8 21  0 54  0.0000000  0  9G10G17G09G02G30G12G05G04G25
 111562489.023 7  86931935.86045  21229613.563                    21229621.629
 126176840.763 6  98319693.654 6  24010662.477                    24010672.078
 130365649.236 6 101583680.86743  24807784.555                    24807799.617
 109137840.163 8  85042671.81046  20768243.078                    20768248.316
 118706224.165 7  92498431.07344  22589046.672                    22589055.859
 109552292.509 8  85365589.807 7  20847124.469                    20847132.086
 109725854.808 8  85500694.332 8  20880102.102                    20880110.098
 120121743.097 7  93601458.71844  22858394.375                    22858403.770
 120159416.569 7  93630807.434 7  22865579.781                    22865590.547
 11  8 21  0 54 30.0000000  0  9G10G17G09G02G30G12G05G04G25
 111609347.417 8  86968448.92145  21238530.516                    21238538.152
 126241897.713 6  98370387.382 6  24023042.313                    24023052.035
 130446700.833 6 101646837.76543  24823208.461                    24823223.805
 109156136.714 8  85056928.84846  20771724.578                    20771730.094
 118633579.940 7  92441825.22344  22575223.313                    22575231.809
 109529268.213 8  85347648.814 7  20842743.547                    20842750.691
 109666871.357 8  85454733.270 8  20868877.477                    20868885.574
 120203642.465 7  93665276.35944  22873979.500                    22873988.680
 120079916.766 7  93568859.581 7  22850451.047                    22850462.328
 11  8 21  0 55  0.0000000  0  9G10G17G09G02G30G12G05G04G25
 111656771.048 8  87005402.42945  21247554.695                    21247562.805
 126307141.384 6  98421226.615 6  24035457.109                    24035467.285
 130527678.226 6 101709936.85743  24838618.313                    24838633.164
 109174630.079 8  85071339.24746  20775243.414                    20775249.195
 118561392.087 7  92385574.98144  22561486.406                    22561494.777
 109506804.686 8  85330144.774 7  20838468.523                    20838475.762
 109608381.959 8  85409157.171 7  20857747.664                    20857755.406
 120285553.610 7  93729103.19044  22889567.211                    22889575.996
 120000786.444 7  93507199.634 7  22835393.141                    22835404.426
 11  8 21  0 55 30.0000000  0  9G10G17G09G02G30G12G05G04G25
 111704758.122 8  87042794.98445  21256686.445                    21256694.203
 126372572.094 6  98472211.606 6  24047908.852                    24047918.285
 130608578.608 6 101772975.94343  24854012.813                    24854028.469
 109193318.741 8  85085901.82346  20778800.219                    20778805.195
 118489663.037 7  92329682.25444  22547836.258                    22547845.242
 109484903.226 8  85313078.707 7  20834301.211                    20834307.926
 109550388.662 8  85363967.653 7  20846711.852                    20846719.008
 120367475.079 7  93792938.05544  22905156.195                    22905165.594
 119922028.136 7  93445829.568 7  22820405.961                    22820417.059
 11  8 21  0 56  0.0000000  0  9G10G17G09G02G30G12G05G04G25
 111753307.861 8  87080625.95545  21265925.219                    21265933.027
 126438190.992 6  98523343.241 6  24060395.977                    24060405.023
 130689399.998 6 101835953.44943  24869392.594                    24869408.203
 109212202.425 8  85100616.37146  20782393.617                    20782399.246
 118418396.060 7  92274149.57544  22534275.547                    22534284.180
 109463565.516 8  85296451.915 7  20830240.555                    20830247.754
 109492894.511 8  85319167.078 8  20835770.406                    20835778.434
 120449406.713 7  93856780.82944  22920747.273                    22920756.254
 119843645.248 7  93384752.041 7  22805490.391                    22805501.551
 11  8 21  0 56 30.0000000  0  8G10G17G02G30G12G05G04G25
 111802418.365 8  87118893.89645  21275270.102                    21275278.184
 126503998.428 6  98574621.793 6  24072918.609                    24072927.789
 109231280.174 8  85115482.15246  20786023.969                    20786029.488
 118347593.690 7  92218978.93744  22520801.523                    22520810.789
 109442792.508 8  85280265.156 7  20826287.547                    20826294.738
 109435901.056 8  85274756.649 8  20824925.266                    20824933.402
 120531347.395 7  93920630.66644  22936340.102                    22936349.164
 119765640.469 7  93323969.139 7  22790646.563                    22790657.340
 11  8 21  0 57  0.0000000  0  8G10G17G02G30G12G05G04G25
 111852086.121 8  87157596.04645  21284721.719                    21284729.797
 126569992.930 6  98626046.100 6  24085476.492                    24085486.203
 109250549.330 8  85130497.07646  20789690.563                    20789696.086
 118277256.834 7  92164171.03944  22507416.758                    22507425.801
 109422583.929 8  85264518.208 7  20822442.008                    20822448.992
 109379408.766 8  85230736.732 7  20814175.070                    20814182.605
 120613294.426 7  93984485.45544  22951934.500                    22951943.555
 119688014.838 7  93263481.681 7  22775874.508                    22775885.629
 11  8 21  0 57 30.0000000  0  8G10G17G02G30G12G05G04G25
 111902309.557 8  87196731.19345  21294278.609                    21294286.965
 126636174.765 6  98677616.390 6  24098070.695                    24098079.938
 109270009.109 8  85145660.54246  20793393.805                    20793399.195
 118207388.113 7  92109727.92045  22494120.914                    22494130.457
 109402941.288 8  85249212.254 7  20818704.461                    20818711.535
 109323419.852 8  85187109.065 8  20803520.797                    20803528.793
 120695246.795 7  94048344.40344  22967528.992                    22967538.293
 119610771.112 7  93203291.803 7  22761175.617                    22761186.094
 11  8 21  0 58  0.0000000  0  8G10G17G02G30G12G05G04G25
 111953086.735 7  87236297.82245  21303941.680                    21303949.504
 126702544.060 6  98729332.752 6  24110700.633                    24110709.637
 109289658.238 8  85160971.56446  20797132.992                    20797138.574
 118137989.853 7  92055651.39744  22480915.203                    22480924.102
 109383865.203 8  85234347.766 7  20815074.133                    20815081.176
 109267936.237 8  85143875.130 8  20792962.031                    20792970.434
 120777203.369 7  94112206.62544  22983125.227                    22983134.180
 119533911.711 7  93143401.399 7  22746549.898                    22746560.816
 11  8 21  0 58 30.0000000  0  8G10G17G02G30G12G05G04G25
 112004415.410 7  87276294.18445  21313709.352                    21313717.324
 126769101.029 6  98781195.354 6  24123365.422                    24123374.957
 109309495.299 8  85176429.04046  20800907.508                    20800912.961
 118069064.121 7  92001943.07944  22467798.984                    22467807.730
 109365356.138 8  85219925.117 7  20811552.000                    20811559.281
 109212959.179 8  85101035.924 8  20782500.625                    20782508.594
 120859162.803 7  94176071.08944  22998721.477                    22998730.766
 119457438.966 7  93083812.294 7  22731997.578                    22732008.309
 11  8 21  0 59  0.0000000  0  8G10G17G02G30G12G05G04G25
 112056293.737 7  87316718.83745  21323580.930                    21323589.277
 126835845.576 6  98833204.141 6  24136065.898                    24136076.277
 109329519.131 8  85192032.05046  20804718.164                    20804723.641
 118000613.436 7  91948604.94244  22454773.633                    22454782.328
 109347415.083 8  85205945.072 7  20808137.984                    20808145.172
 109158490.684 8  85058592.988 8  20772135.695                    20772143.660
 120941123.865 7  94239936.81244  23014318.563                    23014327.348
 119381355.468 7  93024526.505 7  22717519.250                    22717529.855
 11  8 21  0 59 30.0000000  0  8G10G17G02G30G12G05G04G25
 112108720.098 7  87357570.52545  21333557.461                    21333565.605
 126902778.296 6  98885359.533 5  24148803.195                    24148812.586
 109349729.281 8  85207780.25746  20808563.758                    20808569.383
 117932640.355 7  91895638.96445  22441838.617                    22441847.336
 109330043.469 8  85192408.746 7  20804832.266                    20804839.473
 109104532.771 8  85016547.920 8  20761867.672                    20761875.484
 121023085.870 7  94303803.27444  23029914.953                    23029924.094
 119305663.990 7  92965546.195 7  22703115.680                    22703126.320
 11  8 21  1  0  0.0000000  0  8G10G17G02G30G12G05G04G25
 112161692.069 7  87398847.37245  21343637.750                    21343645.633
 126969899.030 6  98937661.452 6  24161576.000                    24161585.207
 109370124.096 8  85223672.36146  20812445.164                    20812450.363
 117865146.887 7  91843046.72245  22428994.594                    22429004.180
 109313241.955 8  85179316.658 7  20801635.141                    20801642.070
 109051087.097 8  84974901.999 8  20751697.203                    20751705.563
 121105047.269 7  94367669.24844  23045511.813                    23045520.891
 119230366.789 7  92906873.106 7  22688786.969                    22688797.891
 11  8 21  1  0 30.0000000  0  8G10G17G02G30G12G05G04G25
 112215207.757 7  87440547.91245  21353821.625                    21353829.758
 127037207.789 6  98990109.872 6  24174383.844                    24174393.809
 109390702.484 8  85239707.50546  20816360.813                    20816366.477
 117798135.486 7  91790830.12045  22416242.922                    22416251.684
 109297011.441 8  85166669.508 7  20798546.195                    20798553.750
 108998155.494 8  84933656.648 8  20741624.820                    20741632.480
 121187007.289 7  94431534.17344  23061108.469                    23061117.574
 119155466.378 7  92848509.229 7  22674534.070                    22674544.512
 11  8 21  1  1  0.0000000  0  8G10G17G02G30G12G05G04G25
 112269265.523 7  87482670.85545  21364108.313                    21364116.473
 127104704.834 6  99042705.010 6  24187228.422                    24187237.906
 109411463.520 8  85255884.97746  20820311.453                    20820316.664
 117731608.515 7  91738990.98945  22403583.297                    22403592.063
 109281352.706 8  85154467.901 7  20795566.859                    20795573.891
 108945739.858 8  84892813.345 8  20731650.156                    20731658.129
 121268964.925 7  94495397.25444  23076704.406                    23076713.563
 119080965.359 7  92790456.556 7  22660356.867                    22660367.758
 11  8 21  1  1 30.0000000  0  8G10G17G02G30G12G05G04G25
 112323863.072 7  87525214.42845  21374498.242                    21374505.887
 127172390.260 6  99095446.941 6  24200108.836                    24200117.945
 109432406.220 8  85272204.00446  20824296.680                    20824302.109
 117665568.221 7  91687531.09245  22391016.102                    22391024.730
 109266266.783 8  85142712.646 7  20792695.680                    20792703.098
 108893841.654 8  84852373.246 8  20721774.141                    20721782.281
 121350919.094 7  94559257.64744  23092299.797                    23092308.621
 119006866.249 7  92732717.079 7  22646256.188                    22646266.828
 11  8 21  1  2  0.0000000  0  8G10G17G02G30G12G05G04G25
 112378998.079 8  87568176.79245  21384989.906                    21384997.820
 127240264.192 6  99148335.758 6  24213024.563                    24213034.184
 109453529.182 8  85288663.48246  20828316.461                    20828321.672
 117600016.726 7  91636452.07345  22378542.023                    22378550.910
 109251753.879 8  85131403.897 7  20789934.211                    20789941.367
 108842462.356 8  84812337.485 7  20711997.063                    20712004.566
 121432868.293 7  94623114.14744  23107894.219                    23107903.063
 118933171.249 7  92675292.485 7  22632232.250                    22632243.094
 11  8 21  1  2 30.0000000  0  8G10G17G02G30G12G05G04G25
 112434668.689 8  87611556.50445  21395583.320                    21395591.223
 127308326.529 6  99201371.386 6  24225976.617                    24225986.082
 109474831.290 8  85305262.56646  20832370.070                    20832375.555
 117534956.323 7  91585755.72945  22366161.500                    22366170.258
 109237815.353 8  85120542.709 7  20787281.555                    20787288.613
 108791603.977 8  84772707.634 8  20702319.070                    20702327.086
 121514811.697 7  94686966.12944  23123487.320                    23123496.375
 118859882.951 7  92618184.805 7  22618286.133                    22618296.629
 11  8 21  1  3  0.0000000  0  8G10G17G02G30G12G05G04G25
 112490872.794 7  87655351.93145  21406278.453                    21406286.922
 127376577.598 6  99254554.070 6  24238964.445                    24238973.621
 109496311.866 8  85322000.71146  20836457.500                    20836462.832
 117470389.435 7  91535443.94344  22353874.234                    22353883.020
 109224451.620 8  85110129.422 7  20784738.617                    20784746.109
 108741268.083 8  84733484.918 8  20692740.188                    20692747.969
 121596748.460 7  94750812.93043  23139079.633                    23139088.344
 118787003.873 7  92561396.005 7  22604417.344                    22604427.941
 11  8 21  1  3 30.0000000  0  8G10G17G02G30G12G05G04G25
 112547608.178 7  87699561.34545  21417075.414                    21417083.609
 127445017.150 6  99307883.641 6  24251987.977                    24251997.281
 109517969.290 8  85338876.65146  20840578.648                    20840584.094
 117406317.845 7  91485518.11345  22341682.102                    22341690.703
 109211663.148 8  85100164.389 7  20782305.273                    20782312.410
 108691456.331 8  84694670.617 8  20683261.672                    20683269.191
 121678677.301 7  94814653.56644  23154670.359                    23154679.063
 118714536.203 7  92504927.781 7  22590627.156                    22590637.785
 11  8 21  1  4  0.0000000  0  8G10G17G02G30G12G05G04G25
 112604872.503 7  87744182.92745  21427971.938                    21427980.043
 127513645.468 6  99361360.294 6  24265047.781                    24265056.953
 109539802.542 8  85355889.60146  20844733.063                    20844738.543
 117342743.974 7  91435980.10845  22329584.555                    22329593.551
 109199450.912 8  85090648.367 7  20779981.008                    20779988.094
 108642169.773 8  84656265.555 8  20673882.297                    20673889.914
 121760597.055 7  94878487.10744  23170259.086                    23170267.930
 118642482.366 7  92448782.020 7  22576916.008                    22576926.762
 11  8 21  1  4 30.0000000  0  8G10G17G02G30G12G05G04G25
 112662663.527 7  87789214.92245  21438969.648                    21438977.074
 127582462.567 6  99414984.045 6  24278142.773                    24278152.031
 109561810.796 8  85373038.90946  20848921.539                    20848926.914
 117279670.009 7  91386831.63945  22317581.906                    22317590.695
 109187815.616 8  85081581.918 7  20777767.398                    20777774.410
 108593410.338 8  84618271.242 8  20664603.656                    20664611.508
 121842506.766 7  94942312.83944  23185845.758                    23185855.168
 118570844.872 7  92392960.681 7  22563283.203                    22563294.379
 11  8 21  1  5  0.0000000  0  8G10G17G02G30G12G05G04G25
 112720979.511 7  87834655.96645  21450066.961                    21450074.508
 127651468.256 6  99468754.758 6  24291274.188                    24291283.734
 109583992.791 8  85390323.60146  20853142.555                    20853148.082
 117217098.082 7  91338074.37445  22305675.008                    22305683.594
 109176757.398 8  85072965.133 7  20775662.625                    20775669.660
 108545179.621 8  84580688.909 8  20655425.797                    20655433.723
 121924405.614 6  95006130.08744  23201431.039                    23201440.102
 118499626.142 7  92337465.635 7  22549731.125                    22549741.633
 11  8 21  1  5 30.0000000  0  8G10G17G02G30G12G05G04G25
 112779818.199 7  87880504.32145  21461263.297                    21461271.453
 127720662.756 6  99522672.590 6  24304441.492                    24304450.914
 109606347.672 8  85407743.01046  20857396.500                    20857402.316
 117155030.434 7  91289710.05845  22293863.539                    22293872.422
 109166277.205 8  85064798.753 7  20773668.555                    20773675.527
 108497479.001 8  84543519.638 8  20646348.727                    20646356.422
 122006292.625 7  95069938.14344  23217013.094                    23217022.625
 118428828.609 7  92282298.796 7  22536258.820                    22536269.117
 11  8 21  1  6  0.0000000  0  8G10G17G02G30G12G05G04G25
 112839176.807 8  87926757.78845  21472558.602                    21472566.613
 127790046.051 6  99576737.538 6  24317644.273                    24317653.664
 109628874.218 8  85425296.17346  20861683.000                    20861688.879
 117093469.035 7  91241740.22545  22282148.859                    22282157.355
 109156375.598 8  85057083.218 7  20771784.070                    20771791.574
 108450310.104 8  84506764.697 8  20637372.680                    20637380.117
 122088166.514 7  95133735.96844  23232593.453                    23232602.793
 118358454.480 7  92227461.883 7  22522866.898                    22522877.195
 11  8 21  1  6 30.0000000  0  9G10G17G29G02G30G12G05G04G25
 112899053.073 7  87973414.62145  21483952.750                    21483961.043
 127859617.705 6  99630949.270 6  24330882.977                    24330893.039
 129583850.54316 100974476.05716  24658993.211                    24659003.871
 109651570.792 7  85442981.81646  20866002.242                    20866007.824
 117032415.560 7  91194166.16545  22270530.367                    22270539.145
 109147052.670 8  85049818.605 7  20770010.305                    20770017.582
 108403673.987 8  84470424.909 8  20628497.953                    20628505.613
 122170026.007 7  95197522.57744  23248171.500                    23248179.965
 118288505.726 7  92172956.424 7  22509555.688                    22509566.449
 11  8 21  1  7  0.0000000  0  9G10G17G29G02G30G12G05G04G25
 112959444.348 8  88020472.74445  21495444.945                    21495452.891
 127929377.561 6  99685307.632 6  24344157.922                    24344167.832
 129504378.727 7 100912550.036 6  24643869.797                    24643880.617
 109674436.220 8  85460799.04146  20870353.484                    20870358.980
 116971871.863 7  91146989.33845  22259009.258                    22259018.371
 109138308.950 8  85043005.327 7  20768346.125                    20768353.438
 108357571.819 8  84434501.184 8  20619725.172                    20619732.773
 122251869.817 7  95261296.97544  23263745.555                    23263754.598
 118218984.461 7  92118784.068 7  22496326.414                    22496337.004
 11  8 21  1  7 30.0000000  0  9G10G17G29G02G30G12G05G04G25
 113020349.298 7  88067931.13845  21507035.023                    21507042.566
 127999326.412 6  99739813.272 6  24357469.539                    24357478.641
 129424827.498 6 100850562.176 6  24628731.891                    24628742.145
 109697470.361 7  85478747.72046  20874736.633                    20874742.105
 116911841.042 7  91100212.14045  22247585.789                    22247594.254
 109130145.498 8  85036644.210 7  20766793.078                    20766800.262
 108312006.050 8  84398995.431 8  20611054.523                    20611061.648
 122333698.064 7  95325059.20844  23279316.070                    23279325.617
 118149894.048 7  92064947.442 7  22483179.070                    22483189.656
 11  8 21  1  8  0.0000000  0  9G10G17G29G02G30G12G05G04G25
 113081765.441 7  88115787.85645  21518721.805                    21518729.594
 128069464.205 6  99794466.157 6  24370815.734                    24370825.297
 129345197.180 6 100788512.745 6  24613578.547                    24613589.395
 109720672.015 8  85496826.93546  20879151.938                    20879157.297
 116852324.763 7  91053835.89145  22236260.375                    22236269.172
 109122562.285 8  85030735.228 7  20765349.953                    20765356.867
 108266977.569 8  84363908.353 8  20602485.617                    20602493.512
 122415509.537 7  95388808.39044  23294885.078                    23294893.613
 118081236.405 7  92011448.043 7  22470113.664                    22470124.313
 11  8 21  1  8 30.0000000  0  9G10G17G29G02G30G12G05G04G25
 113143690.635 7  88164041.24745  21530506.117                    21530513.852
 128139790.729 6  99849266.096 6  24384198.320                    24384207.984
 129265488.171 6 100726402.034 6  24598410.594                    24598420.906
 109744039.899 8  85515035.67846  20883598.406                    20883603.668
 116793325.089 7  91007862.17745  22225032.883                    22225041.766
 109115560.008 8  85025278.919 7  20764017.609                    20764024.316
 108222488.054 8  84329241.239 8  20594019.500                    20594027.078
 122497303.150 6  95452543.67444  23310449.289                    23310458.906
 118013013.949 7  91958287.739 7  22457131.477                    22457141.695
 11  8 21  1  9  0.0000000  0  9G10G17G29G02G30G12G05G04G25
 113206122.518 7  88212689.44745  21542386.281                    21542394.223
 128210305.986 6  99904213.100 6  24397617.672                    24397626.836
 129185701.104 6 100664230.544 6  24583226.477                    24583237.559
 109767572.970 8  85533373.14246  20888076.484                    20888081.895
 116734844.081 7  90962292.62345  22213904.430                    22213913.297
 109109139.614 8  85020276.035 7  20762795.555                    20762802.684
 108178538.812 8  84294995.120 8  20585656.102                    20585663.965
 122579078.114 6  95516264.42744  23326010.305                    23326020.027
 117945229.007 7  91905468.362 7  22444232.219                    22444242.918
 11  8 21  1  9 30.0000000  0  9G10G17G29G02G30G12G05G04G25
 113269058.255 7  88261730.27245  21554362.609                    21554370.238
 128281009.901 6  99959307.117 6  24411070.852                    24411081.004
 129105836.408 6 100601998.540 6  24568028.703                    24568039.227
 109791270.062 8  85551838.41746  20892586.148                    20892591.430
 116676883.559 7  90917128.61945  22202875.063                    22202883.547
 109103300.644 8  85015726.210 7  20761684.422                    20761691.668
 108135130.886 8  84261170.803 8  20577395.938                    20577403.684
 122660833.264 6  95579969.75844  23341568.617                    23341577.605
 117877883.649 7  91852991.506 7  22431417.117                    22431427.371
 11  8 21  1 10  0.0000000  0  9G10G17G29G02G30G12G05G04G25
 113332495.978 7  88311162.24645  21566434.688                    21566442.105
 128351902.387 6 100014548.073 6  24424561.969                    24424571.078
 129025895.043 6 100539706.790 6  24552816.602                    24552827.023
 109815130.625 8  85570431.06546  20897126.602                    20897131.910
 116619445.798 7  90872371.96545  22191944.938                    22191953.625
 109098043.965 8  85011630.122 7  20760684.141                    20760691.109
 108092266.041 8  84227769.670 8  20569239.086                    20569246.602
 122742567.871 6  95643659.06744  23357121.297                    23357131.195
 117810980.478 7  91800859.211 7  22418685.820                    22418696.051
 11  8 21  1 10 30.0000000  0  9G10G17G29G02G30G12G05G04G25
 113396433.000 7  88360983.28945  21578601.016                    21578609.156
 128422983.477 6 100069935.983 6  24438087.836                    24438097.367
 128945877.079 6 100477355.299 5  24537589.391                    24537599.984
 109839153.127 8  85589149.91046  20901697.523                    20901703.359
 116562532.380 7  90828023.88045  22181114.516                    22181122.859
 109093369.506 8  85007987.717 7  20759794.727                    20759801.750
 108049945.388 8  84194792.588 8  20561185.391                    20561192.941
 122824280.738 6  95707331.44044  23372671.594                    23372680.375
 117744521.336 7  91749072.907 7  22406039.070                    22406049.309
 11  8 21  1 11  0.0000000  0  9G10G17G29G02G30G12G05G04G25
 113460867.169 7  88411191.72145  21590862.578                    21590870.969
 128494253.187 6 100125470.888 5  24451650.273                    24451659.441
 128865783.523 6 100414944.913 5  24522347.781                    24522357.879
 109863337.175 8  85607994.62746  20906299.898                    20906305.602
 116506145.589 7  90784086.14545  22170384.570                    22170393.027
 109089278.117 8  85004799.654 7  20759015.711                    20759023.109
 108008170.186 8  84162240.524 8  20553236.227                    20553243.801
 122905971.297 6  95770986.40743  23388216.430                    23388225.789
 117678508.963 7  91697634.732 7  22393476.719                    22393487.113
 11  8 21  1 11 30.0000000  0  9G10G17G29G02G30G12G05G04G25
 113525795.764 7  88461785.43245  21603218.273                    21603226.238
 128565711.175 6 100181152.501 5  24465248.367                    24465257.566
 128785614.561 6 100352475.747 6  24507091.695                    24507102.699
 109887681.117 8  85626963.94046  20910932.430                    20910937.895
 116450287.150 7  90740560.11545  22159754.813                    22159763.195
 109085769.716 8  85002065.869 7  20758348.180                    20758355.453
 107966941.541 8  84130114.358 8  20545390.516                    20545397.836
 122987638.562 6  95834623.21644  23403757.234                    23403766.438
 117612945.276 7  91646546.174 7  22381000.211                    22381010.836
 11  8 21  1 12  0.0000000  0  9G10G17G29G02G30G12G05G04G25
 113591216.384 8  88512762.53945  21615667.391                    21615675.086
 128637357.481 6 100236980.909 5  24478882.047                    24478891.203
 128705370.997 6 100289948.445 6  24491822.094                    24491832.813
 109912183.926 8  85646057.04846  20915595.172                    20915600.648
 116394958.776 7  90697447.12545  22149226.484                    22149234.980
 109082844.277 8  84999786.349 7  20757791.602                    20757798.672
 107926260.744 8  84098415.092 8  20537648.844                    20537656.215
 123069281.551 6  95898241.12243  23419293.055                    23419302.656
 117547832.378 7  91595808.875 7  22368610.008                    22368620.703
 11  8 21  1 12 30.0000000  0  9G10G17G29G02G30G12G05G04G25
 113657126.774 7  88564121.28845  21628209.594                    21628217.598
 128709192.076 6 100292956.012 5  24492551.422                    24492560.543
 128625053.140 6 100227363.260 6  24476538.234                    24476548.316
 109936844.544 8  85665273.12446  20920287.961                    20920293.594
 116340162.460 7  90654748.72945  22138798.852                    22138807.039
 109080502.225 8  84997961.408 7  20757345.773                    20757352.875
 107886128.844 8  84067143.531 8  20530012.008                    20530019.434
 123150899.290 6  95961839.34543  23434824.695                    23434834.023
 117483172.565 7  91545424.639 7  22356305.711                    22356315.992
 11  8 21  1 13  0.0000000  0  9G10G17G29G02G30G12G05G04G25
 113723525.620 8  88615860.64645  21640845.063                    21640852.988
 128781215.568 6 100349078.316 5  24506257.242                    24506266.086
 128544663.148 6 100164721.823 6  24461240.758                    24461250.789
 109961663.307 8  85684612.43146  20925010.547                    20925016.102
 116285901.255 7  90612467.29945  22128473.094                    22128481.313
 109078745.004 8  84996592.188 8  20757011.266                    20757018.402
 107846548.384 8  84036301.674 8  20522480.375                    20522487.695
 123232492.257 7  96025418.29444  23450351.539                    23450360.438
 117418969.282 7  91495396.136 7  22344088.383                    22344098.742
 11  8 21  1 13 30.0000000  0  8G10G29G02G30G12G05G04G25
 113790410.582 7  88667978.79445  21653572.750                    21653580.707
 128464201.530 6 100102024.538 6  24445928.969                    24445938.898
 109986639.140 8  85704074.13046  20929763.672                    20929768.875
 116232176.983 7  90570604.25845  22118249.922                    22118258.355
 109077572.665 8  84995678.720 7  20756788.508                    20756795.316
 107807520.149 8  84005890.111 8  20515053.125                    20515060.781
 123314059.468 7  96088977.15344  23465873.305                    23465882.047
 117355224.595 7  91445724.975 7  22331957.852                    22331968.773
 11  8 21  1 14  0.0000000  0  8G10G29G02G30G12G05G04G25
 113857777.841 7  88720472.75845  21666392.242                    21666400.547
 128383667.720 6 100039270.939 6  24430603.406                    24430614.160
 110011770.089 8  85723656.69846  20934545.586                    20934551.316
 116178990.372 7  90529160.18145  22108129.055                    22108137.527
 109076984.424 8  84995220.392 7  20756676.359                    20756683.352
 107769044.379 8  83975909.050 8  20507731.305                    20507739.063
 123395598.982 7  96152514.40443  23481389.180                    23481398.953
 117291939.599 7  91396412.020 7  22319915.164                    22319925.840
 11  8 21  1 14 30.0000000  0  8G10G29G02G30G12G05G04G25
 113925624.238 7  88773340.08645  21679302.852                    21679311.129
 128303061.877 6  99976461.140 6  24415264.492                    24415275.305
 110037054.252 8  85743358.65746  20939357.352                    20939362.543
 116126342.602 7  90488135.98145  22098110.000                    22098118.586
 109076979.646 8  84995216.701 7  20756675.336                    20756682.359
 107731121.732 8  83946358.992 8  20500515.102                    20500522.691
 123477109.450 7  96216029.05643  23496900.813                    23496909.852
 117229115.897 7  91347458.522 7  22307960.305                    22307970.898
 11  8 21  1 15  0.0000000  0  8G10G29G02G30G12G05G04G25
 113993947.139 8  88826578.72745  21692304.484                    21692312.418
 128222384.445 6  99913595.548 5  24399912.531                    24399922.980
 110062490.529 8  85763179.13946  20944197.297                    20944202.980
 116074235.306 7  90447532.93345  22088194.578                    22088202.684
 109077558.267 8  84995667.614 7  20756785.383                    20756792.496
 107693753.272 8  83917240.762 8  20493404.086                    20493411.719
 123558590.079 6  96279520.43344  23512405.383                    23512414.453
 117166755.434 7  91298865.994 7  22296093.359                    22296103.996
 11  8 21  1 15 30.0000000  0  8G10G29G02G30G12G05G04G25
 114062745.472 7  88880187.81745  21705396.273                    21705404.164
 128141637.519 6  99850675.798 6  24384547.203                    24384557.441
 110088079.394 8  85783118.52246  20949066.555                    20949072.059
 116022671.411 7  90407353.31245  22078382.227                    22078390.563
 109078721.766 8  84996574.267 7  20757006.563                    20757013.914
 107656940.595 8  83888555.609 8  20486398.719                    20486406.418
 123640040.814 7  96342988.49743  23527905.438                    23527914.680
 117104861.631 7  91250637.098 7  22284315.414                    22284325.785
 11  8 21  1 16  0.0000000  0  8G10G29G02G30G12G05G04G25
 114132015.819 7  88934164.71345  21718577.984                    21718586.156
 128060820.987 6  99787701.829 6  24369168.352                    24369178.371
 110113818.940 8  85803175.32946  20953965.195                    20953970.184
 115971651.855 7  90367597.85445  22068673.688                    22068681.895
 109080469.143 8  84997935.886 7  20757339.055                    20757346.570
 107620684.349 8  83860304.044 8  20479499.758                    20479506.988
 123721460.415 6  96406432.33444  23543399.258                    23543408.117
 117043435.765 7  91202772.836 7  22272626.516                    22272637.020
 11  8 21  1 16 30.0000000  0  8G10G29G02G30G12G05G04G25
 114201755.723 7  88988507.51745  21731848.891                    21731857.051
 127979935.547 6  99724674.193 6  24353775.422                    24353786.641
 110139708.160 8  85823348.75446  20958891.352                    20958896.977
 115921178.398 7  90328267.91145  22059068.313                    22059076.816
 109082800.690 8  84999752.699 7  20757782.961                    20757789.793
 107584985.608 8  83832486.889 8  20472706.320                    20472713.496
 123802847.962 7  96469851.19644  23558886.555                    23558896.199
 116982479.864 7  91155274.771 7  22261026.945                    22261037.496
 11  8 21  1 17  0.0000000  0  8G10G29G02G30G12G05G04G25
 114271962.500 7  89043214.11345  21745208.797                    21745216.973
 127898981.835 6  99661593.382 6  24338371.422                    24338381.762
 110165746.032 8  85843638.02446  20963846.344                    20963851.621
 115871252.686 7  90289364.78845  22049567.953                    22049576.281
 109085716.048 8  85002024.432 7  20758337.703                    20758345.070
 107549845.123 8  83805104.739 8  20466019.211                    20466026.668
 123884202.853 6  96533244.60644  23574367.867                    23574377.504
 116921996.128 8  91108144.633 7  22249517.383                    22249527.777
 11  8 21  1 17 30.0000000  0  8G10G29G02G30G12G05G04G25
 114342633.485 7  89098282.43245  21758657.227                    21758665.023
 127817960.648 6  99598460.027 6  24322953.656                    24322964.078
 110191931.433 8  85864042.24746  20968829.203                    20968834.402
 115821876.339 7  90250889.72645  22040171.844                    22040180.203
 109089215.166 8  85004751.031 7  20759003.258                    20759010.770
 107515263.931 8  83778158.402 8  20459438.711                    20459445.891
 123965523.985 7  96596611.70744  23589842.711                    23589852.207
 116861986.433 7  91061383.860 7  22238097.695                    22238108.051
 11  8 21  1 18  0.0000000  0  8G10G29G02G30G12G05G04G25
 114413766.357 7  89153710.65345  21772193.180                    21772201.145
 127736872.721 6  99535274.716 6  24307522.438                    24307533.348
 110218263.741 8  85884560.93546  20973840.016                    20973845.152
 115773051.139 7  90212844.13145  22030880.852                    22030889.285
 109093298.220 8  85007932.638 7  20759780.805                    20759787.520
 107481243.272 8  83751648.835 8  20452964.391                    20452972.086
 124046810.885 7  96659952.12943  23605311.641                    23605320.609
 116802453.074 7  91014994.265 7  22226768.586                    22226779.152
 11  8 21  1 18 30.0000000  0  8G10G29G02G30G12G05G04G25
 114485358.771 7  89209496.95145  21785816.930                    21785824.676
 127655719.265 6  99472038.387 6  24292080.188                    24292090.504
 110244742.338 8  85905193.61246  20978878.813                    20978884.270
 115724779.089 7  90175229.55745  22021694.672                    22021703.207
 109097965.595 8  85011569.558 7  20760668.758                    20760675.777
 107447784.116 8  83725576.813 8  20446597.672                    20446604.750
 124128063.048 7  96723265.44843  23620773.469                    23620782.418
 116743398.328 7  90968977.610 7  22215530.781                    22215541.426
 11  8 21  1 19  0.0000000  0  8G10G29G02G30G12G05G04G25
 114557408.059 7  89265639.25345  21799527.461                    21799535.270
 127574500.998 6  99408751.566 6  24276624.734                    24276634.754
 110271366.376 8  85925939.62046  20983945.141                    20983950.402
 115677061.810 7  90138047.27145  22012614.641                    22012622.793
 109103217.067 8  85015661.619 7  20761667.914                    20761675.230
 107414887.567 8  83699943.176 8  20440337.156                    20440345.004
 124209279.645 7  96786551.09643  23636228.164                    23636238.117
 116684824.336 8  90923335.566 7  22204384.500                    22204394.957
 11  8 21  1 19 30.0000000  0  8G10G29G02G30G12G05G04G25
 114629911.342 7  89322135.31945  21813324.094                    21813332.078
 127493218.182 6  99345414.465 6  24261157.023                    24261166.742
 110298134.400 8  85946797.82446  20989038.758                    20989044.109
 115629900.466 8  90101298.17745  22003640.406                    22003648.652
 109109052.084 8  85020208.381 7  20762778.273                    20762785.438
 107382553.949 8  83674748.189 8  20434184.148                    20434191.859
 124290459.941 7  96849808.45243  23651676.031                    23651685.977
 116626732.654 8  90878069.351 7  22193330.320                    22193340.836
 11  8 21  1 20  0.0000000  0  8G10G29G02G30G12G05G04G25
 114702866.125 7  89378983.19545  21827206.750                    21827215.168
 127411871.904 6  99282027.935 6  24245677.125                    24245687.059
 110325045.684 8  85967767.66946  20994159.859                    20994165.219
 115583296.872 7  90064983.70545  21994771.930                    21994780.098
 109115470.595 8  85025209.814 7  20763999.727                    20764006.711
 107350784.484 8  83649992.797 8  20428138.758                    20428146.848
 124371603.168 7  96913036.92343  23667116.859                    23667126.500
 116569125.541 7  90833180.719 7  22182367.922                    22182378.434
 11  8 21  1 20 30.0000000  0  8G10G29G02G30G12G05G04G25
 114776269.613 7  89436180.70545  21841175.594                    21841183.289
 127330462.693 6  99218592.358 6  24230184.977                    24230195.484
 110352099.165 8  85988848.31146  20999308.250                    20999313.391
 115537252.491 7  90029104.99645  21986009.633                    21986018.195
 109122472.845 8  85030666.105 7  20765332.133                    20765339.305
 107319579.722 8  83625677.436 8  20422200.586                    20422208.090
 124452708.652 6  96976235.94343  23682551.094                    23682560.668
 116512004.822 8  90788671.083 7  22171498.148                    22171508.598
 11  8 21  1 21  0.0000000  0  8G10G29G02G30G12G05G04G25
 114850119.772 7  89493726.27945  21855228.258                    21855236.309
 127248991.671 6  99155108.594 6  24214681.453                    24214691.707
 110379294.400 7  86010039.40946  21004483.523                    21004488.637
 115491769.104 7  89993663.42245  21977354.781                    21977362.797
 109130058.082 8  85036576.675 7  20766775.344                    20766782.461
 107288940.848 8  83601803.024 8  20416370.359                    20416378.012
 124533775.846 6  97039405.17043  23697978.156                    23697987.367
 116455372.816 7  90744542.280 7  22160721.641                    22160731.742
 11  8 21  1 21 30.0000000  0  8G10G29G02G30G12G05G04G25
 114924413.417 7  89551617.41645  21869366.195                    21869374.109
 127167459.200 6  99091576.932 6  24199166.297                    24199176.777
 110406629.954 8  86031339.84546  21009685.281                    21009690.164
 115446847.920 7  89958659.93945  21968806.391                    21968814.539
 109138226.199 8  85042941.430 8  20768329.875                    20768337.043
 107258868.516 8  83578370.072 8  20410647.766                    20410655.160
 124614803.771 7  97102543.82143  23713396.336                    23713405.895
 116399231.110 8  90700795.524 7  22150038.016                    22150048.625
 11  8 21  1 22  0.0000000  0  8G10G29G02G30G12G05G04G25
 114999148.186 7  89609852.31445  21883587.563                    21883595.590
 127085866.749 6  99027998.513 6  24183640.094                    24183649.715
 110434105.419 8  86052749.29846  21014913.398                    21014919.145
 115402490.595 7  89924095.84145  21960365.172                    21960373.691
 109146977.583 8  85049760.680 7  20769995.500                    20770002.590
 107229363.068 8  83555378.846 8  20405032.883                    20405040.316
 124695792.211 6  97165651.69043  23728808.141                    23728817.949
 116343581.894 8  90657432.541 7  22139448.367                    22139458.461
 11  8 21  1 22 30.0000000  0  8G10G29G02G30G12G05G04G25
 115074320.952 7  89668428.48945  21897892.484                    21897900.660
 127004214.856 6  98964373.780 6  24168101.688                    24168111.445
 110461719.471 8  86074266.75546  21020168.242                    21020173.840
 115358698.518 7  89889972.20445  21952031.633                    21952039.906
 109156311.048 8  85057033.506 7  20771771.453                    20771778.785
 107200425.479 8  83532830.117 8  20399526.352                    20399533.781
 124776739.998 6  97228727.89643  23744211.625                    23744221.293
 116288426.986 8  90614454.735 7  22128952.688                    22128962.984
 11  8 21  1 23  0.0000000  0  8G10G29G02G30G12G05G04G25
 115149928.924 7  89727343.79945  21912280.383                    21912288.035
 126922503.333 6  98900702.585 6  24152551.922                    24152562.281
 110489470.245 8  86095890.74846  21025449.414                    21025454.469
 115315472.566 7  89856289.70445  21943806.180                    21943814.500
 109166225.895 8  85064759.350 7  20773658.234                    20773665.168
 107172055.837 8  83510723.938 8  20394127.836                    20394135.363
 124857646.123 7  97291771.63243  23759608.367                    23759617.488
 116233767.658 8  90571863.106 7  22118551.289                    22118561.918
 11  8 21  1 23 30.0000000  0  8G10G29G02G30G12G05G04G25
 115225970.031 7  89786596.61845  21926750.141                    21926758.090
 126840734.208 6  98836986.495 6  24136992.250                    24137002.145
 110517358.131 8  86117621.57746  21030756.180                    21030761.273
 115272814.678 7  89823049.86145  21935688.672                    21935697.063
 109176722.748 8  85072938.719 7  20775656.141                    20775662.902
 107144255.425 8  83489061.308 8  20388837.344                    20388844.781
 124938510.563 7  97354782.87543  23774995.898                    23775005.590
 116179606.465 8  90529659.630 7  22108245.008                    22108255.027
 11  8 21  1 24  0.0000000  0  8G10G29G02G30G12G05G04G25
 115302441.573 7  89846184.83445  21941302.742                    21941310.316
 126758908.150 6  98773226.021 6  24121421.133                    24121431.141
 110545382.353 8  86139458.64946  21036088.320                    21036094.246
 115230726.470 7  89790253.92845  21927679.656                    21927687.359
 109187801.049 8  85081571.164 7  20777763.828                    20777771.035
 107117025.181 8  83467842.977 8  20383655.852                    20383663.215
 125019332.768 6  97417761.21243  23790376.141                    23790385.109
 116125945.381 8  90487845.860 7  22098032.820                    22098043.465
 11  8 21  1 24 30.0000000  0  8G10G29G02G30G12G05G04G25
 115379340.982 7  89906106.46845  21955936.273                    21955944.016
 126677026.181 6  98709421.988 6  24105840.078                    24105849.645
 110573542.050 8  86161401.28646  21041447.273                    21041452.867
 115189209.137 7  89757902.83145  21919778.938                    21919787.191
 109199460.453 8  85090656.422 7  20779982.820                    20779989.555
 107090365.602 8  83447069.310 8  20378582.563                    20378589.918
 125100112.045 6  97480706.13443  23805747.844                    23805757.281
 116072786.217 8  90446423.195 7  22087917.500                    22087927.371
 11  8 21  1 25  0.0000000  0  8G10G29G02G30G12G05G04G25
 115456664.808 7  89966358.81345  21970650.477                    21970658.832
 126595088.474 6  98645574.512 6  24090247.820                    24090257.406
 110601835.594 8  86183448.22046  21046831.516                    21046836.711
 115148263.722 7  89725997.37745  21911987.352                    21911995.590
 109211700.291 8  85100193.964 7  20782311.633                    20782318.742
 107064276.808 8  83426740.416 8  20373617.836                    20373625.418
 125180847.424 7  97543616.81443  23821111.945                    23821120.715
 116020130.389 8  90405392.741 7  22077897.391                    22077907.645
 11  8 21  1 25 30.0000000  0  8G10G29G02G30G12G05G04G25
 115534410.985 7  90026940.26645  21985445.125                    21985453.059
 126513096.772 6  98581684.974 6  24074645.289                    24074654.758
 110630263.096 8  86205599.53446  21052241.227                    21052246.492
 115107892.134 7  89694539.05645  21904304.406                    21904312.668
 109224520.056 8  85110183.403 7  20784751.375                    20784758.527
 107038760.060 8  83406857.273 8  20368762.438                    20368769.430
 125261538.707 7  97606493.20443  23836466.648                    23836475.363
 115967980.339 8  90364756.396 7  22067973.633                    22067983.738
 11  8 21  1 26  0.0000000  0  8G10G29G02G30G12G05G04G25
 115612576.350 7  90087848.35345  22000318.883                    22000327.348
 126431051.466 6  98517753.651 6  24059032.539                    24059041.641
 110658822.805 8  86227853.87046  21057675.555                    21057681.016
 115068094.974 7  89663528.33045  21896731.367                    21896739.789
 109237919.324 8  85120624.409 7  20787300.836                    20787308.273
 107013814.926 8  83387419.537 8  20364015.422                    20364022.891
 125342184.971 6  97669334.46343  23851812.820                    23851821.828
 115916337.166 8  90324515.022 7  22058146.344                    22058156.555
 11  8 21  1 26 30.0000000  0  8G10G29G02G30G12G05G04G25
 115691158.062 7  90149080.86845  22015272.969                    22015280.684
 126348953.530 6  98453781.315 6  24043408.961                    24043419.031
 110687514.163 8  86250210.78646  21063135.625                    21063140.660
 115028873.645 7  89632966.30045  21889268.039                    21889276.230
 109251897.878 8  85131516.802 7  20789961.078                    20789968.145
 106989442.402 8  83368427.993 8  20359377.555                    20359384.801
 125422785.594 6  97732140.12943  23867150.508                    23867159.770
 115865202.819 8  90284670.118 7  22048415.641                    22048425.867
 11  8 21  1 27  0.0000000  0  8G10G29G02G30G12G05G04G25
 115770153.656 7  90210635.88345  22030305.102                    22030312.984
 126266803.735 7  98389768.558 6  24027777.047                    24027786.105
 110716336.377 8  86272669.66746  21068620.094                    21068625.523
 114990229.691 7  89602854.17045  21881914.227                    21881922.563
 109266454.591 8  85142859.720 7  20792731.281                    20792738.219
 106965643.008 8  83349883.049 8  20354848.484                    20354855.738
 125503340.311 6  97794910.04243  23882479.555                    23882489.105
 115814579.298 8  90245223.271 7  22038782.383                    22038792.465
 11  8 21  1 27 30.0000000  0  8G10G29G02G30G12G05G04G25
 115849560.096 7  90272511.02245  22045415.602                    22045423.711
 126184603.075 7  98325716.162 6  24012134.242                    24012143.539
 110745288.357 8  86295229.65946  21074129.656                    21074134.961
 114952163.851 7  89573192.50445  21874670.320                    21874678.957
 109281589.565 8  85154653.226 8  20795610.984                    20795618.090
 106942417.047 8  83331784.931 8  20350428.727                    20350436.457
 125583848.026 6  97857643.30243  23897799.195                    23897809.027
 115764467.872 8  90206175.450 7  22029246.289                    22029256.273
 11  8 21  1 28  0.0000000  0  8G10G29G02G30G12G05G04G25
 115929374.550 7  90334704.09845  22060603.578                    22060611.820
 126102352.325 7  98261624.749 6  23996483.578                    23996491.684
 110774369.144 8  86317890.02246  21079663.570                    21079669.016
 114914677.339 7  89543982.26245  21867536.875                    21867544.930
 109297301.385 8  85166896.228 7  20798601.125                    20798608.008
 106919764.910 8  83314133.948 8  20346118.250                    20346125.469
 125664308.371 6  97920339.70143  23913110.609                    23913120.238
 115714870.346 7  90167528.063 7  22019808.055                    22019818.473
 11  8 21  1 28 30.0000000  0  8G10G29G02G30G12G05G04G25
 116009594.426 7  90397213.08145  22075869.398                    22075876.863
 126020052.429 6  98197495.042 6  23980821.219                    23980831.098
 110803578.079 8  86340650.23046  21085221.875                    21085227.023
 114877771.413 7  89515224.42145  21860513.891                    21860522.000
 109313589.841 8  85179588.553 7  20801700.680                    20801707.797
 106897686.956 8  83296930.380 8  20341916.828                    20341924.027
 125744720.853 6  97982998.75743  23928412.609                    23928421.996
 115665788.462 8  90129282.465 7  22010467.984                    22010478.383
 11  8 21  1 29  0.0000000  0  8G10G29G02G30G12G05G04G25
 116090217.496 7  90460036.24845  22091211.313                    22091219.203
 125937704.867 7  98133328.192 6  23965150.633                    23965160.375
 110832914.767 8  86363509.98746  21090804.297                    21090809.488
 114841447.718 7  89486920.25645  21853602.023                    21853610.371
 109330454.524 8  85192729.880 7  20804909.539                    20804916.801
 106876184.075 8  83280174.921 8  20337825.102                    20337832.168
 125825085.056 6  98045620.20943  23943705.711                    23943714.637
 115617224.362 8  90091440.337 7  22001226.648                    22001236.844
 11  8 21  1 29 30.0000000  0  8G10G29G02G30G12G05G04G25
 116171240.362 7  90523170.95045  22106629.328                    22106637.297
 125855310.293 7  98069124.690 6  23949471.977                    23949481.281
 110862377.807 8  86386468.19946  21096411.148                    21096415.832
 114805706.615 8  89459070.06045  21846800.945                    21846809.051
 109347894.253 8  85206319.297 7  20808228.438                    20808235.629
 106855256.248 8  83263867.558 8  20333842.508                    20333849.789
 125905400.061 6  98108203.28243  23958988.594                    23958998.598
 115569179.068 8  90054002.462 7  21992084.047                    21992093.988
 11  8 21  1 30  0.0000000  0  8G10G29G02G30G12G05G04G25
 116252660.597 7  90586615.29745  22122123.094                    22122131.211
 125772869.924 6  98004885.510 6  23933784.109                    23933793.422
 110891967.083 8  86409524.78146  21102041.422                    21102046.805
 114770549.932 7  89431675.24945  21840110.563                    21840119.055
 109365909.279 8  85220357.006 7  20811656.711                    20811663.582
 106834904.048 8  83248008.728 8  20329969.422                    20329977.156
 125985665.673 6  98170747.88943  23974263.320                    23974272.336
 115521654.838 8  90016970.605 7  21983040.727                    21983050.578
 11  8 21  1 30 30.0000000  0  8G10G29G02G30G12G05G04G25
 116334475.090 7  90650366.84344  22137692.031                    22137699.867
 125690384.359 6  97940611.131 6  23918086.883                    23918096.848
 110921681.411 8  86432678.79646  21107695.609                    21107701.230
 114735978.435 7  89404736.43745  21833531.500                    21833540.266
 109384498.568 8  85234842.177 7  20815194.000                    20815200.926
 106815127.822 8  83232598.715 8  20326206.656                    20326213.430
 126065881.370 6  98233253.57143  23989527.672                    23989537.043
 115474653.022 8  89980345.826 7  21974096.000                    21974106.063
 11  8 21  1 31  0.0000000  0  8G10G29G02G30G12G05G04G25
 116416680.716 7  90714423.19145  22153335.203                    22153342.719
 125607854.446 6  97876302.204 6  23902382.164                    23902391.383
 110951519.637 8  86455929.35946  21113373.820                    21113379.230
 114701992.906 7  89378254.21445  21827064.664                    21827072.969
 109403660.809 8  85249773.804 7  20818840.359                    20818847.250
 106795927.031 8  83217637.089 8  20322552.359                    20322559.652
 126146046.351 6  98295719.74243  24004782.531                    24004792.055
 115428174.996 8  89944129.199 7  21965251.867                    21965261.934
 11  8 21  1 31 30.0000000  0  8G10G29G02G30G12G05G04G25
 116499275.250 7  90778782.56645  22169052.813                    22169060.387
 125525281.666 6  97811959.886 6  23886669.281                    23886678.371
 110981481.718 8  86479276.44046  21119075.258                    21119080.527
 114668594.881 7  89352229.79545  21820708.930                    21820717.383
 109423395.555 8  85265151.552 7  20822595.945                    20822603.020
 106777302.889 8  83203124.803 8  20319008.508                    20319015.820
 126226160.727 6  98358146.46743  24020028.188                    24020037.457
 115382222.870 8  89908322.361 7  21956507.633                    21956517.426
 11  8 21  1 32  0.0000000  0  8G10G29G02G30G12G05G04G25
 116582256.183 7  90843443.02145  22184842.648                    22184851.094
 125442667.244 6  97747585.127 6  23870948.219                    23870957.625
 111011567.123 8  86502719.61346  21124800.422                    21124806.086
 114635785.460 7  89326664.03545  21814465.445                    21814473.922
 109443702.322 8  85280975.018 7  20826459.977                    20826466.613
 106759255.856 8  83189062.214 8  20315574.234                    20315581.559
 126306223.932 6  98420533.38143  24035263.172                    24035272.996
 115336798.261 7  89872926.580 7  21947863.438                    21947873.227
 11  8 21  1 32 30.0000000  0  8G10G29G02G30G12G05G04G25
 116665619.532 7  90908401.46745  22200706.656                    22200714.500
 125360011.208 6  97683177.977 6  23855218.742                    23855228.941
 111041773.626 8  86526257.14546  21130548.914                    21130553.926
 114603564.683 7  89301556.95545  21808334.352                    21808342.254
 109464579.744 8  85297243.147 7  20830433.164                    20830440.199
 106741785.075 8  83175448.653 8  20312249.563                    20312256.938
 126386234.487 6  98482879.26143  24050489.117                    24050498.547
 115291901.834 8  89837942.374 7  21939319.844                    21939329.824
 11  8 21  1 33  0.0000000  0  8G10G29G02G30G12G05G04G25
 116749362.878 7  90973656.02345  22216642.461                    22216650.715
 125277315.094 6  97618739.623 6  23839482.211                    23839492.203
 111072101.089 8  86549888.94846  21136319.602                    21136324.777
 114571933.801 7  89276909.53645  21802314.969                    21802323.570
 109486026.833 8  85313955.172 7  20834513.984                    20834521.223
 106724890.813 8  83162284.326 8  20309034.586                    20309041.730
 126466192.679 6  98545184.31843  24065704.953                    24065714.145
 115247535.389 8  89803371.144 7  21930876.930                    21930886.938
 11  8 21  1 33 30.0000000  0  8G10G29G02G30G12G05G04G25
 116833483.853 7  91039204.82845  22232650.359                    22232658.223
 125194580.121 7  97554270.990 6  23823738.016                    23823747.738
 111102548.950 8  86573614.57146  21142113.984                    21142119.188
 114540893.923 7  89252722.63945  21796408.234                    21796416.480
 109508042.955 8  85331110.606 7  20838703.555                    20838710.520
 106708573.693 8  83149569.716 8  20305929.906                    20305936.574
 126546097.948 6  98607448.15143  24080909.867                    24080919.340
 115203700.718 8  89769214.288 7  21922535.875                    21922545.684
 11  8 21  1 34  0.0000000  0  8G10G29G02G30G12G05G04G25
 116917979.399 7  91105045.50045  22248729.086                    22248737.023
 125111807.190 7  97489772.777 6  23807986.719                    23807995.980
 111133116.380 8  86597433.37146  21147930.477                    21147936.027
 114510445.895 7  89228996.92045  21790614.359                    21790622.133
 109530627.328 8  85348708.827 7  20843001.172                    20843008.598
 106692833.943 8  83137305.018 8  20302934.406                    20302941.555
 126625949.744 6  98669670.32643  24096105.289                    24096114.980
 115160399.176 8  89735472.861 7  21914295.430                    21914305.500
 11  8 21  1 34 30.0000000  0  8G10G29G02G30G12G05G04G25
 117002846.639 7  91171175.79244  22264879.000                    22264886.828
 125028997.283 7  97425245.750 6  23792228.695                    23792238.367
 111163802.690 8  86621344.80346  21153769.688                    21153775.105
 114480590.623 8  89205733.09745  21784933.086                    21784941.273
 109553779.103 8  85366749.178 7  20847407.125                    20847414.027
 106677671.506 8  83125490.162 8  20300048.961                    20300056.227
 126705747.705 6  98731850.54243  24111290.180                    24111300.047
 115117632.272 8  89702148.041 7  21906157.320                    21906166.836
 11  8 21  1 35  0.0000000  0  8G10G29G02G30G12G05G04G25
 117088082.599 7  91237593.41445  22281098.344                    22281106.758
 124946151.432 7  97360690.726 6  23776463.117                    23776472.691
 111194606.764 8  86645348.00846  21159631.961                    21159637.090
 114451328.568 7  89182931.52145  21779364.422                    21779372.766
 109577496.996 8  85385230.661 7  20851920.523                    20851927.020
 106663086.006 8  83114124.870 8  20297273.453                    20297280.500
 126785491.142 6  98793988.30543  24126465.492                    24126473.906
 115075401.155 8  89669240.719 7  21898120.945                    21898130.707
 11  8 21  1 35 30.0000000  0  8G10G29G02G30G12G05G04G25
 117173684.645 7  91304296.28944  22297388.211                    22297396.609
 124863270.913 7  97296108.672 6  23760691.695                    23760701.160
 111225528.408 8  86669442.81446  21165515.898                    21165521.309
 114422660.935 7  89160593.12245  21773909.336                    21773917.477
 109601780.448 8  85404152.835 7  20856541.516                    20856548.133
 106649077.860 8  83103209.465 8  20294607.977                    20294615.066
 126865179.969 6  98856083.52643  24141629.555                    24141639.020
 115033707.558 8  89636752.242 7  21890186.891                    21890196.914
 11  8 21  1 36  0.0000000  0  8G10G29G02G30G12G05G04G25
 117259649.829 7  91371282.14344  22313746.875                    22313754.832
 124780356.921 7  97231500.519 6  23744914.008                    23744923.246
 111256567.018 8  86693628.77346  21171422.680                    21171427.844
 114394588.636 7  89138718.63245  21768567.164                    21768575.688
 109626628.414 8  85423514.891 7  20861269.656                    20861276.363
 106635647.495 8  83092744.283 8  20292052.055                    20292058.895
 126944813.764 7  98918135.83143  24156783.648                    24156792.324
 114992553.026 8  89604683.806 7  21882355.664                    21882365.086
 11  8 21  1 36 30.0000000  0  8G10G29G02G30G12G05G04G25
 117345975.399 7  91438548.79244  22330174.086                    22330181.879
 124697410.342 7  97166866.961 6  23729129.109                    23729138.105
 111287721.592 8  86717905.08546  21177350.828                    21177356.215
 114367112.370 7  89117308.57045  21763338.508                    21763346.672
 109652039.831 8  85443316.002 7  20866105.172                    20866112.344
 106622794.882 8  83082729.288 8  20289606.273                    20289613.082
 127024392.111 6  98980144.95543  24171926.430                    24171935.957
 114951938.866 8  89573036.445 7  21874626.781                    21874636.777
 11  8 21  1 37  0.0000000  0  8G10G29G02G30G12G05G04G25
 117432658.057 7  91506093.69545  22346668.984                    22346677.137
 124614432.002 7  97102208.635 6  23713338.648                    23713347.383
 111318990.798 8  86742270.72046  21183301.469                    21183306.422
 114340232.399 7  89096363.16145  21758223.469                    21758231.633
 109678013.052 8  85463554.880 7  20871047.742                    20871054.875
 106610519.063 8  83073163.743 8  20287270.258                    20287277.586
 127103914.043 6  99042110.08443  24187058.594                    24187068.379
 114911865.875 8  89541810.766 7  21867001.195                    21867010.832
 11  8 21  1 37 30.0000000  0  8G10G29G02G30G12G05G04G25
 117519695.491 7  91573915.06144  22363231.914                    22363240.156
 124531423.606 7  97037526.895 6  23697542.711                    23697552.066
 111350374.893 8  86766725.88246  21189273.422                    21189278.688
 114313949.831 7  89075883.27145  21753222.117                    21753230.305
 109704547.814 8  85484231.312 7  20876097.164                    20876103.789
 106598820.751 8  83064048.209 8  20285044.328                    20285051.352
 127183379.872 6  99104031.57343  24202181.477                    24202190.430
 114872335.975 8  89511008.274 7  21859478.766                    21859488.887
 11  8 21  1 38  0.0000000  0  8G10G29G02G30G12G05G04G25
 117607084.453 7  91642010.33444  22379861.500                    22379869.367
 124448386.056 7  96972822.430 6  23681740.914                    23681750.117
 111381872.721 8  86791269.66246  21195267.352                    21195272.262
 114288265.209 7  89055869.31345  21748334.320                    21748342.980
 109731642.711 8  85505344.217 7  20881253.250                    20881260.320
 106587699.667 8  83055382.450 8  20282927.695                    20282934.984
 127262788.773 6  99165908.62442  24217291.477                    24217301.582
 114833350.176 8  89480629.760 7  21852059.695                    21852070.176
 11  8 21  1 38 30.0000000  0  8G10G29G02G30G12G05G04G25
 117694822.409 7  91710377.56844  22396557.320                    22396565.395
 124365320.356 7  96908096.013 6  23665934.313                    23665942.559
 111413483.680 7  86815901.58846  21201282.453                    21201287.730
 114263179.251 7  89036321.85545  21743560.586                    21743568.730
 109759296.634 7  85526892.732 7  20886515.609                    20886522.398
 106577155.797 8  83047166.469 8  20280921.398                    20280928.398
 127342140.534 6  99227741.16442  24232391.250                    24232400.285
 114794909.966 8  89450676.380 7  21844744.938                    21844754.957
 11  8 21  1 39  0.0000000  0  9G10G26G29G02G30G12G05G04G25
 117782906.319 7  91779014.37044  22413319.586                    22413327.184
 130491721.62017 101681933.92153  24831759.914                    24831770.793
 124282227.776 7  96843348.646 6  23650122.133                    23650130.836
 111445207.091 8  86840621.14646  21207319.359                    21207324.398
 114238692.582 7  89017241.37645  21738901.156                    21738909.348
 109787508.455 8  85548875.964 7  20891884.125                    20891890.984
 106567188.897 8  83039400.078 8  20279025.094                    20279031.895
 127421434.717 6  99289528.86042  24247481.164                    24247490.535
 114757016.514 8  89421149.051 7  21837534.164                    21837544.488
 11  8 21  1 39 30.0000000  0  9G10G26G29G02G30G12G05G04G25
 117871332.901 7  91847918.18844  22430146.047                    22430154.000
 130400045.417 6 101610498.11343  24814314.273                    24814325.063
 124199109.064 7  96778580.908 6  23634304.297                    23634313.555
 111477041.626 8  86865427.28046  21213377.586                    21213382.695
 114214805.197 7  88998627.88745  21734355.500                    21734363.691
 109816276.564 8  85571292.672 7  20897358.352                    20897365.176
 106557798.083 8  83032082.586 8  20277237.883                    20277244.770
 127500670.613 6  99351271.13642  24262558.555                    24262568.184
 114719670.543 7  89392048.326 7  21830427.406                    21830437.621
 11  8 21  1 40  0.0000000  0  9G10G26G29G02G30G12G05G04G25
 117960099.548 7  91917086.98844  22447038.219                    22447046.035
 130308232.067 6 101538955.41143  24796841.945                    24796853.684
 124115965.988 7  96713794.181 6  23618483.750                    23618492.445
 111508987.548 7  86890320.20246  21219456.469                    21219461.633
 114191518.272 8  88980482.28945  21729923.789                    21729932.164
 109845600.195 7  85594142.246 7  20902938.531                    20902945.516
 106548984.332 8  83025214.745 8  20275560.305                    20275567.531
 127579848.193 6  99412967.90742  24277626.094                    24277635.285
 114682873.895 8  89363375.651 7  21823424.883                    21823435.254
 11  8 21  1 40 30.0000000  0  9G10G26G29G02G30G12G05G04G25
 118049203.651 7  91986518.73944  22463994.523                    22464001.539
 130216284.250 5 101467307.95343  24779344.633                    24779356.695
 124032799.602 6  96648989.288 6  23602656.859                    23602665.984
 111541043.831 8  86915299.12346  21225556.633                    21225561.508
 114168832.406 7  88962805.04245  21725606.836                    21725615.352
 109875478.295 8  85617423.887 7  20908624.555                    20908631.258
 106540747.250 8  83018796.260 8  20273993.117                    20273999.773
 127658967.337 6  99474619.20042  24292681.945                    24292691.441
 114646627.819 8  89335131.991 7  21816527.977                    21816537.906
 11  8 21  1 41  0.0000000  0  9G10G26G29G02G30G12G05G04G25
 118138642.353 7  92056211.21444  22481014.008                    22481021.500
 130124204.858 5 101395557.97042  24761821.641                    24761834.137
 123949611.176 7  96584167.210 6  23586827.359                    23586835.930
 111573210.132 8  86940363.78146  21231677.156                    21231682.578
 114146748.168 8  88945596.60245  21721404.563                    21721412.539
 109905909.619 8  85641136.605 7  20914414.977                    20914422.246
 106533086.656 8  83012826.984 8  20272535.406                    20272542.484
 127738027.582 6  99536224.60243  24307726.625                    24307736.230
 114610933.530 8  89307318.304 7  21809735.281                    21809745.543
 11  8 21  1 41 30.0000000  0  9G10G26G29G02G30G12G05G04G25
 118228412.786 7  92126162.18744  22498096.047                    22498104.480
 130031996.634 5 101323707.63742  24744275.539                    24744287.457
 123866402.161 6  96519329.082 6  23570992.711                    23571001.809
 111605485.997 8  86965513.81046  21237819.375                    21237824.762
 114125266.101 7  88928857.36945  21717316.266                    21717324.516
 109936892.995 8  85665279.495 7  20920311.070                    20920317.855
 106526002.462 8  83007306.851 8  20271187.172                    20271194.340
 127817028.770 6  99597783.96143  24322760.148                    24322769.309
 114575792.233 7  89279935.521 7  21803047.977                    21803058.160
 11  8 21  1 42  0.0000000  0  9G10G26G29G02G30G12G05G04G25
 118318511.731 7  92196369.13844  22515241.617                    22515249.676
 129939662.508 5 101251759.13642  24726704.586                    24726715.863
 123783173.387 6  96454475.559 6  23555154.742                    23555163.820
 111637870.291 8  86990748.33546  21243981.734                    21243986.855
 114104386.409 8  88912587.51945  21713343.148                    21713351.164
 109968426.745 8  85689851.255 7  20926312.016                    20926318.902
 106519494.025 8  83002235.363 8  20269949.016                    20269955.539
 127895970.364 6  99659296.86943  24337782.047                    24337791.738
 114541204.864 8  89252984.372 7  21796466.219                    21796476.219
 11  8 21  1 42 30.0000000  0  9G10G26G29G02G30G12G05G04G25
 118408936.144 7  92266829.70944  22532448.859                    22532456.906
 129847205.202 6 101179714.60842  24709110.766                    24709121.988
 123699926.078 7  96389607.582 6  23539313.781                    23539322.070
 111670362.306 8  87016066.79646  21250164.992                    21250170.137
 114084109.377 8  88896787.26245  21709484.992                    21709493.063
 110000509.648 8  85714850.921 7  20932416.953                    20932423.887
 106513560.828 8  82997612.113 8  20268819.813                    20268826.504
 127974851.891 6  99720763.03343  24352792.844                    24352802.336
 114507172.333 8  89226465.555 7  21789990.078                    21789999.918
 11  8 21  1 43  0.0000000  0  9G10G26G29G02G30G12G05G04G25
 118499683.169 6  92337541.67344  22549717.422                    22549725.602
 129754627.265 6 101107576.05842  24691494.383                    24691504.586
 123616661.502 7  96324726.158 6  23523468.656                    23523477.598
 111702961.421 8  87041468.70846  21256368.305                    21256374.051
 114064435.394 8  88881456.90645  21705740.977                    21705748.945
 110033140.374 8  85740277.473 7  20938626.219                    20938633.281
 106508202.514 8  82993436.826 8  20267799.852                    20267806.672
 128053673.227 6  99782182.26243  24367792.203                    24367801.875
 114473695.733 8  89200379.926 7  21783619.930                    21783629.840
 11  8 21  1 43 30.0000000  0  9G10G26G29G02G30G12G05G04G25
 118590750.258 6  92408503.03244  22567046.953                    22567055.164
 129661931.902 6 101035345.93542  24673854.953                    24673865.262
 123533380.951 7  96259832.287 6  23507620.703                    23507629.586
 111735667.176 8  87066953.71546  21262591.766                    21262597.293
 114045364.966 8  88866596.85145  21702112.000                    21702119.695
 110066317.467 8  85766129.758 7  20944939.945                    20944946.910
 106503419.154 8  82989709.557 8  20266889.742                    20266896.691
 128132434.012 7  99843554.29543  24382779.688                    24382789.074
 114440776.292 8  89174728.448 7  21777355.352                    21777365.340
 11  8 21  1 44  0.0000000  0  9G10G26G29G02G30G12G05G04G25
 118682134.483 7  92479711.47844  22584436.648                    22584444.742
 129569122.134 6 100963026.79542  24656192.688                    24656203.949
 123450085.664 7  96194926.949 6  23491769.938                    23491779.430
 111768479.080 8  87092521.43746  21268835.805                    21268841.063
 114026898.576 8  88852207.46445  21698598.109                    21698605.844
 110100039.808 8  85792406.916 7  20951356.766                    20951364.004
 106499210.430 8  82986430.052 8  20266088.852                    20266095.957
 128211134.079 7  99904879.03543  24397755.680                    24397765.840
 114408415.107 8  89149511.974 7  21771197.219                    21771207.293
 11  8 21  1 44 30.0000000  0  9G10G26G29G02G30G12G05G04G25
 118773832.706 7  92551164.61144  22601886.219                    22601894.520
 129476200.474 5 100890620.48942  24638509.836                    24638521.699
 123366777.071 7  96130011.234 6  23475916.930                    23475926.488
 111801396.201 8  87118171.15146  21275100.039                    21275105.270
 114009036.351 8  88838288.84145  21695198.789                    21695206.723
 110134305.608 8  85819107.543 7  20957877.320                    20957884.184
 106495575.413 8  82983597.594 8  20265396.977                    20265403.883
 128289772.867 7  99966155.99743  24412721.109                    24412729.590
 114376613.011 8  89124731.149 7  21765145.398                    21765155.102
 11  8 21  1 45  0.0000000  0  9G10G26G29G02G30G12G05G04G25
 118865842.005 7  92622860.13144  22619395.328                    22619403.664
 129383170.087 5 100818129.44342  24620806.672                    24620818.473
 123283456.241 7  96065085.974 6  23460061.469                    23460070.313
 111834418.158 7  87143902.56146  21281383.797                    21281388.594
 113991778.553 8  88824841.20545  21691915.016                    21691922.922
 110169113.660 8  85846230.705 7  20964501.195                    20964508.625
 106492513.830 8  82981211.969 8  20264814.398                    20264821.488
 128368350.361 7 100027385.22143  24427673.328                    24427682.836
 114345370.974 8  89100386.733 7  21759200.250                    21759210.230
 11  8 21  1 45 30.0000000  0  9G10G26G29G02G30G12G05G04G25
 118958159.665 7  92694795.93644  22636963.430                    22636970.910
 129290034.141 6 100745556.15042  24603083.922                    24603095.316
 123200124.454 7  96000152.194 6  23444204.055                    23444212.980
 111867544.668 7  87169715.44546  21287687.391                    21287692.777
 113975125.739 8  88811864.98345  21688745.797                    21688753.754
 110204462.889 7  85873775.565 7  20971227.844                    20971234.512
 106490025.716 8  82979273.211 8  20264340.688                    20264347.719
 128446866.219 7 100088566.41243  24442614.609                    24442623.730
 114314690.297 7  89076479.726 7  21753361.883                    21753371.484
 11  8 21  1 46  0.0000000  0  9G10G26G29G02G30G12G05G04G25
 119050782.673 7  92766969.68444  22654588.258                    22654596.902
 129196794.983 6 100672902.39943  24585341.055                    24585352.145
 123116783.165 7  95935211.012 6  23428344.703                    23428353.512
 111900774.731 8  87195609.01346  21294011.148                    21294015.988
 113959077.840 8  88799360.12645  21685691.773                    21685699.684
 110240351.226 8  85901740.510 7  20978057.320                    20978064.332
 106488110.043 8  82977780.512 8  20263976.414                    20263983.414
 128525320.132 6 100149699.32643  24457543.641                    24457552.719
 114284571.611 8  89053010.637 7  21747630.805                    21747640.422
 11  8 21  1 46 30.0000000  0  9G10G26G29G02G30G12G05G04G25
 119143708.364 7  92839379.30444  22672271.766                    22672279.871
 129103456.032 6 100600170.87043  24567580.273                    24567590.398
 123033433.502 7  95870263.316 6  23412483.898                    23412492.590
 111934107.904 8  87221582.91746  21300353.961                    21300359.113
 113943635.186 8  88787326.88745  21682753.234                    21682761.156
 110276777.174 8  85930124.370 7  20984988.539                    20984995.879
 106486766.484 8  82976733.615 8  20263720.695                    20263727.805
 128603711.756 6 100210783.69643  24472461.227                    24472470.039
 114255015.867 7  89029980.200 7  21742006.219                    21742016.297
 11  8 21  1 47  0.0000000  0  9G10G26G29G02G30G12G05G04G25
 119236933.572 7  92912022.31744  22690011.711                    22690019.957
 129010019.991 6 100527363.68242  24549799.328                    24549809.637
 122950076.919 7  95805310.232 6  23396621.422                    23396630.109
 111967543.742 7  87247636.83146  21306716.633                    21306721.941
 113928797.921 8  88775765.37945  21679930.047                    21679937.516
 110313739.770 8  85958926.391 7  20992022.766                    20992029.809
 106485994.496 8  82976132.105 8  20263573.414                    20263580.340
 128682041.013 6 100271819.49443  24487367.141                    24487375.973
 114226023.999 8  89007389.156 7  21736489.172                    21736499.215
 11  8 21  1 47 30.0000000  0  9G10G26G29G02G30G12G05G04G25
 119330455.447 7  92984896.48844  22707808.641                    22707816.148
 128916490.006 6 100454483.30143  24532001.227                    24532011.215
 122866714.670 7  95740352.725 6  23380758.164                    23380766.266
 112001081.368 8  87273770.05046  21313098.672                    21313103.754
 113914566.137 8  88764675.68645  21677221.789                    21677229.355
 110351236.798 8  85988144.861 7  20999157.992                    20999165.027
 106485793.425 8  82975975.460 8  20263535.328                    20263542.238
 128760307.499 6 100332806.32943  24502260.016                    24502269.199
 114197596.819 8  88985238.116 7  21731079.688                    21731089.762
 11  8 21  1 48  0.0000000  0  9G10G26G29G02G30G12G05G04G25
 119424271.130 6  93057999.59244  22725660.953                    22725668.871
 128822868.867 6 100381531.90243  24514185.273                    24514195.816
 122783348.131 7  95675391.872 6  23364893.914                    23364902.008
 112034720.158 8  87299982.10146  21319500.016                    21319505.113
 113900939.893 8  88754057.84545  21674628.656                    21674636.664
 110389266.716 8  86017778.566 7  21006394.703                    21006401.973
 106486162.750 8  82976263.279 8  20263605.648                    20263612.590
 128838511.106 6 100393744.21642  24517141.742                    24517151.230
 114169735.147 7  88963527.736 7  21725777.516                    21725787.617
 11  8 21  1 48 30.0000000  0  9G10G26G29G02G30G12G05G04G25
 119518377.652 7  93131329.32544  22743568.781                    22743576.852
 128729159.703 6 100308511.90943  24496353.477                    24496363.184
 122699978.551 7  95610428.652 6  23349028.938                    23349037.148
 112068459.877 8  87326272.78746  21325920.563                    21325925.441
 113887919.437 8  88743912.04545  21672150.945                    21672158.809
 110427828.429 8  86047826.651 7  21013732.883                    21013739.664
 106487101.944 8  82976995.155 8  20263784.461                    20263791.461
 128916651.621 6 100454632.91442  24532011.828                    24532021.023
 114142439.918 8  88942258.743 7  21720583.750                    21720593.430
 11  8 21  1 49  0.0000000  0  9G10G26G29G02G30G12G05G04G25
 119612772.029 7  93204883.36944  22761531.836                    22761539.195
 128635365.431 6 100235425.56543  24478504.414                    24478514.449
 122616607.404 7  95545464.216 6  23333163.930                    23333172.402
 112102299.841 8  87352641.58646  21332359.844                    21332364.953
 113875504.679 8  88734238.22345  21669788.250                    21669796.090
 110466919.917 8  86078287.556 7  21021171.711                    21021178.918
 106488610.230 8  82978170.472 8  20264071.188                    20264078.289
 128994728.764 6 100515472.24042  24546868.523                    24546878.234
 114115711.766 8  88921431.630 7  21715497.266                    21715507.176
 11  8 21  1 49 30.0000000  0  9G10G26G29G02G30G12G05G04G25
 119707451.794 6  93278659.80344  22779548.234                    22779556.539
 128541489.071 6 100162275.28943  24460640.234                    24460650.492
 122533236.192 6  95480499.713 6  23317298.734                    23317307.406
 112136239.550 7  87379088.10446  21338818.297                    21338823.559
 113863695.728 8  88725036.46645  21667541.055                    21667548.945
 110506539.548 8  86109159.998 7  21028710.930                    21028717.914
 106490687.062 8  82979788.813 8  20264466.430                    20264473.461
 129072742.415 6 100576262.07042  24561714.070                    24561724.074
 114089551.510 8  88901047.029 7  21710519.438                    21710528.887
 11  8 21  1 50  0.0000000  0  9G10G26G29G02G30G12G05G04G25
 119802413.674 6  93352656.06544  22797619.164                    22797627.137
 128447533.734 6 100089063.42843  24442761.273                    24442771.191
 122449866.022 6  95415536.043 6  23301434.102                    23301442.688
 112170278.438 8  87405611.90046  21345295.727                    21345300.539
 113852492.673 8  88716306.83845  21665409.125                    21665417.363
 110546685.786 8  86140442.788 7  21036351.094                    21036358.070
 106493331.741 8  82981849.621 8  20264969.711                    20264976.750
 129150692.218 6 100637002.16652  24576547.688                    24576557.594
 114063960.010 8  88881105.613 7  21705649.594                    21705659.453
 11  8 21  1 50 30.0000000  0  9G10G26G29G02G30G12G05G04G25
 119897654.878 6  93426869.95944  22815742.914                    22815750.848
 128353502.541 6 100015792.47843  24424867.547                    24424877.023
 122366498.327 6  95350574.274 6  23285569.828                    23285578.203
 112204416.243 8  87432212.77746  21351791.867                    21351797.191
 113841895.626 8  88708049.42545  21663392.695                    21663400.828
 110587357.108 8  86172134.731 7  21044090.242                    21044097.250
 106496543.945 8  82984352.656 8  20265581.063                    20265588.023
 129228578.350 6 100697692.67042  24591368.555                    24591378.730
 114038938.085 8  88861608.028 7  21700887.789                    21700897.250
 11  8 21  1 51  0.0000000  0  9G10G26G29G02G30G12G05G04G25
 119993172.276 6  93501299.07344  22833919.234                    22833926.770
 128259398.267 6  99942464.59543  24406960.086                    24406970.074
 122283134.583 7  95285615.581 6  23269706.602                    23269714.516
 112238652.046 7  87458890.02446  21358306.813                    21358312.336
 113831904.210 8  88700263.93945  21661491.539                    21661499.262
 110628551.587 8  86204234.325 7  21051929.234                    21051936.320
 106500322.123 8  82987296.706 8  20266300.313                    20266307.090
 129306400.104 6 100758333.00942  24606178.109                    24606187.813
 114014486.170 8  88842554.606 7  21696234.898                    21696244.773
 11  8 21  1 51 30.0000000  0  9G10G26G29G02G30G12G05G04G25
 120088963.146 7  93575941.28044  22852147.148                    22852156.016
 128165224.465 6  99869082.51643  24389038.906                    24389049.371
 122199776.337 6  95220661.155 6  23253843.141                    23253851.719
 112272985.908 7  87485643.67746  21364840.273                    21364845.629
 113822518.693 8  88692950.57445  21659705.453                    21659713.441
 110670267.830 8  86236740.496 7  21059867.516                    21059874.176
 106504666.544 8  82990681.978 8  20267126.469                    20267133.438
 129384157.721 6 100818923.36142  24620974.594                    24620984.500
 113990605.220 8  88823946.093 7  21691690.320                    21691700.270
 11  8 21  1 52  0.0000000  0  9G10G26G29G02G30G12G05G04G25
 120185024.871 7  93650794.56644  22870428.086                    22870435.473
 128070983.643 6  99795648.24243  24371105.570                    24371115.441
 122116424.859 7  95155712.011 6  23237981.906                    23237990.426
 112307416.966 7  87512473.06746  21371392.547                    21371397.668
 113813738.629 8  88686108.99445  21658035.070                    21658042.859
 110712503.710 8  86269651.574 7  21067904.609                    21067911.953
 106509575.680 8  82994507.287 8  20268060.602                    20268067.684
 129461850.812 6 100879463.44742  24635759.500                    24635768.988
 113967295.576 8  88805782.752 7  21687254.906                    21687264.762
 11  8 21  1 52 30.0000000  0  9G10G26G29G02G30G12G05G04G25
 120281354.369 7  93725856.51144  22888758.547                    22888766.438
 127976679.269 6  99722164.41443  24353160.359                    24353170.434
 122033081.767 7  95090769.392 6  23222121.977                    23222130.629
 112341945.042 7  87539378.06046  21377962.813                    21377968.145
 113805564.107 8  88679739.26145  21656479.000                    21656486.965
 110755257.877 8  86302966.508 7  21076040.695                    21076047.793
 106515049.221 8  82998772.393 8  20269102.328                    20269109.406
 129539479.322 6 100939953.18342  24650531.633                    24650540.430
 113944558.097 8  88788065.256 7  21682927.953                    21682937.680
 11  8 21  1 53  0.0000000  0  9G10G26G29G02G30G12G05G04G25
 120377948.637 7  93801124.76244  22907139.641                    22907148.168
 127882314.175 6  99648633.27743  24335202.656                    24335212.855
 121949748.305 7  95025834.263 6  23206264.688                    23206273.230
 112376569.171 7  87566357.91446  21384551.805                    21384556.863
 113797994.791 8  88673841.12345  21655038.680                    21655046.461
 110798527.866 8  86336683.386 7  21084274.633                    21084281.848
 106521086.054 8  83003476.428 8  20270250.945                    20270257.875
 129617043.057 6 101000392.47843  24665291.500                    24665300.590
 113922393.134 8  88770793.875 7  21678710.109                    21678719.961
 11  8 21  1 53 30.0000000  0  8G10G26G29G02G30G12G05G25
 120474805.262 7  93876597.42144  22925571.227                    22925579.164
 127787891.863 6  99575057.58243  24317234.766                    24317245.023
 121866426.216 7  94960908.006 6  23190408.375                    23190417.004
 112411289.700 7  87593412.87146  21391158.320                    21391163.645
 113791030.999 8  88668414.81545  21653713.398                    21653721.555
 110842312.912 8  86370801.602 7  21092606.492                    21092613.672
 106527685.896 8  83008619.168 8  20271507.297                    20271514.129
 113900801.813 8  88753969.482 7  21674601.336                    21674610.988
 11  8 21  1 54  0.0000000  0  8G10G26G29G02G30G12G05G25
 120571920.897 7  93952271.92244  22944051.961                    22944059.391
 127693415.099 6  99501439.47043  24299256.227                    24299266.488
 121783116.708 7  94895991.542 6  23174555.422                    23174564.152
 112446105.507 8  87620542.08246  21397783.492                    21397789.004
 113784672.099 8  88663459.83945  21652503.328                    21652511.133
 110886610.159 8  86405318.936 7  21101036.547                    21101043.141
 106534847.187 8  83014199.411 8  20272869.859                    20272876.703
 113879784.257 8  88737592.179 7  21670601.883                    21670611.902
 11  8 21  1 54 30.0000000  0  8G10G26G29G02G30G12G05G25
 120669292.526 7  94028145.90344  22962580.836                    22962589.098
 127598887.166 6  99427781.46443  24281268.992                    24281278.039
 121699821.401 7  94831086.151 6  23158704.914                    23158713.484
 112481016.065 7  87647745.12546  21404427.188                    21404432.621
 113778917.806 8  88658975.98945  21651408.367                    21651415.934
 110931418.187 8  86440234.281 7  21109562.906                    21109569.996
 106542569.311 8  83020216.674 8  20274339.258                    20274346.160
 113859340.982 8  88721662.366 7  21666711.563                    21666721.254
 11  8 21  1 55  0.0000000  0  8G10G26G29G02G30G12G05G25
 120766917.532 7  94104217.32744  22981157.938                    22981166.488
 127504311.079 6  99354085.91843  24263270.828                    24263280.438
 121616541.715 7  94766192.927 6  23142857.406                    23142865.668
 112516021.389 8  87675022.01446  21411088.461                    21411093.895
 113773767.872 8  88654963.06645  21650428.414                    21650436.438
 110976735.034 8  86475546.105 7  21118186.461                    21118193.148
 106550851.337 8  83026670.219 8  20275915.234                    20275922.129
 113839472.459 8  88706180.414 7  21662930.695                    21662940.688
 11  8 21  1 55 30.0000000  0  8G10G26G29G02G30G12G05G25
 120864792.825 6  94180483.78644  22999783.453                    22999791.875
 127409689.881 6  99280355.23043  24245264.773                    24245274.719
 121533278.938 7  94701312.890 6  23127012.852                    23127021.414
 112551120.615 8  87702372.07546  21417767.563                    21417772.699
 113769221.889 7  88651420.74945  21649563.063                    21649571.145
 111022558.915 8  86511253.016 7  21126905.938                    21126913.645
 106559692.029 8  83033559.092 8  20277597.719                    20277604.648
 113820179.084 8  88691146.622 7  21659259.320                    21659269.082
 11  8 21  1 56  0.0000000  0  8G10G26G29G02G30G12G05G25
 120962915.517 6  94256943.02944  23018455.570                    23018463.539
 127315026.925 6  99206592.06543  24227251.227                    24227261.156
 121450034.907 7  94636447.456 6  23111171.773                    23111180.348
 112586313.567 8  87729795.16046  21424464.188                    21424469.824
 113765279.767 8  88648348.96245  21648813.070                    21648820.867
 111068888.025 8  86547353.612 7  21135722.227                    21135729.598
 106569090.902 8  83040882.909 8  20279385.984                    20279393.012
 113801461.443 8  88676561.460 7  21655697.211                    21655707.063
 11  8 21  1 56 30.0000000  0  8G10G26G29G02G30G12G05G25
 121061283.112 6  94333593.06943  23037173.914                    23037182.391
 127220325.338 6  99132798.77943  24209230.406                    24209240.078
 121366810.884 7  94571597.605 6  23095334.695                    23095343.422
 112621599.679 8  87757290.83346  21431179.219                    21431184.418
 113761941.108 7  88645747.41145  21648178.141                    21648185.805
 111115720.165 8  86583846.184 7  21144634.258                    21144641.430
 106579046.985 8  83048640.920 8  20281280.992                    20281287.699
 113783320.055 8  88662425.316 7  21652245.094                    21652254.688
 11  8 21  1 57  0.0000000  0  8G10G26G29G02G30G12G05G25
 121159892.300 6  94410431.38043  23055938.688                    23055946.496
 127125588.256 6  99058977.83143  24191202.086                    24191211.559
 121283608.380 7  94506764.517 7  23079502.102                    23079510.676
 112656978.461 8  87784858.72446  21437911.789                    21437917.133
 113759205.226 8  88643615.54745  21647657.250                    21647665.109
 111163053.163 8  86620729.033 7  21153641.352                    21153648.734
 106589558.994 8  83056832.114 8  20283280.805                    20283287.586
 113765755.053 8  88648738.302 7  21648902.992                    21648912.426
 11  8 21  1 57 30.0000000  0  8G10G26G29G02G30G12G05G25
 121258740.277 6  94487455.75043  23074749.398                    23074757.141
 127030818.635 6  98985131.50243  24173167.711                    24173177.711
 121200429.235 7  94441949.650 6  23063673.164                    23063681.605
 112692449.528 8  87812498.52646  21444661.547                    21444666.520
 113757072.000 8  88641953.28345  21647251.133                    21647259.105
 111210885.524 8  86658000.999 7  21162743.813                    21162751.020
 106600625.850 8  83065455.664 8  20285386.828                    20285393.785
 113748766.879 8  88635500.757 7  21645669.953                    21645679.805
 11  8 21  1 58  0.0000000  0  8G10G26G29G02G30G12G05G25
 121357824.310 6  94564664.07943  23093604.648                    23093612.035
 126936019.915 6  98911262.51043  24155127.680                    24155137.711
 121117274.465 7  94377153.762 6  23047849.477                    23047857.949
 112728012.593 8  87840210.01346  21451429.078                    21451434.250
 113755540.837 8  88640760.15445  21646959.828                    21646967.711
 111259215.072 8  86695660.378 7  21171940.305                    21171947.879
 106612246.502 8  83074510.731 8  20287598.180                    20287605.113
 113732355.854 8  88622712.941 7  21642546.867                    21642557.070
 11  8 21  1 58 30.0000000  0  8G10G26G29G02G30G12G05G25
 121457141.629 6  94642054.18444  23112503.648                    23112511.645
 126841195.495 6  98837373.48743  24137083.141                    24137092.609
 121034146.209 7  94312378.539 6  23032031.344                    23032039.520
 112763667.445 8  87867993.01846  21458213.859                    21458218.977
 113754611.517 8  88640036.00445  21646783.125                    21646790.320
 111308039.641 8  86733705.494 7  21181231.734                    21181238.469
 106624420.360 8  83083996.874 8  20289914.930                    20289921.559
 113716522.512 8  88610375.271 7  21639534.211                    21639544.223
 11  8 21  1 59  0.0000000  0  8G10G26G29G02G30G12G05G25
 121556689.168 6  94719623.70044  23131446.742                    23131455.012
 126746348.407 6  98763466.76143  24119034.484                    24119043.941
 120951045.739 7  94247624.961 6  23016217.117                    23016225.664
 112799413.624 8  87895847.18646  21465016.109                    21465021.336
 113754283.422 8  88639780.33045  21646720.227                    21646728.391
 111357357.511 8  86772135.001 7  21190616.484                    21190623.281
 106637146.085 7  83093913.044 8  20292336.625                    20292343.500
 113701267.065 8  88598487.903 7  21636631.070                    21636641.125
 11  8 21  1 59 30.0000000  0  8G10G26G29G02G30G12G05G25
 121656464.283 7  94797370.54244  23150433.313                    23150441.801
 126651481.913 6  98689544.92943  24100981.781                    24100991.984
 120867974.649 7  94182894.289 6  23000409.211                    23000418.020
 112835250.727 8  87923772.21046  21471835.727                    21471840.750
 113754556.020 8  88639992.73645  21646772.547                    21646780.242
 111407166.756 8  86810947.388 7  21200094.906                    21200102.176
 106650422.590 8  83104258.390 8  20294862.992                    20294869.656
 113686589.742 8  88587051.029 7  21633838.156                    21633848.008
 11  8 21  2  0  0.0000000  0  8G10G26G29G02G30G12G05G25
 121756464.031 7  94875292.42744  23169463.219                    23169470.875
 126556598.845 7  98615610.19043  24082926.141                    24082935.531
 120784934.665 7  94118187.863 6  22984607.297                    22984615.734
 112871177.948 8  87951767.45146  21478672.281                    21478677.758
 113755428.601 8  88640672.66645  21646938.641                    21646946.582
 111457464.792 8  86850140.666 7  21209666.492                    21209673.457
 106664248.385 8  83115031.759 8  20297493.625                    20297500.445
 113672490.602 8  88576064.684 7  21631155.133                    21631165.313
 11  8 21  2  0 30.0000000  0  8G10G26G29G02G30G12G05G25
 121856685.371 7  94953386.95844  23188534.313                    23188542.793
 126461702.987 6  98541665.47043  24064868.375                    24064878.145
 120701927.223 7  94053506.790 6  22968811.508                    22968819.891
 112907195.385 8  87979832.99246  21485526.164                    21485531.840
 113756900.634 8  88641819.70145  21647218.305                    21647226.508
 111508249.691 8  86889713.307 7  21219330.359                    21219337.641
 106678622.718 8  83126232.557 8  20300229.352                    20300235.797
 113658969.945 8  88565529.112 7  21628582.398                    21628592.492
 11  8 21  2  1  0.0000000  0  8G10G26G29G02G30G12G05G25
 121957125.882 7  95031652.27544  23207647.188                    23207655.363
 126366797.277 6  98467713.08743  24046808.281                    24046817.711
 120618954.030 7  93988852.404 6  22953021.953                    22953030.566
 112943302.470 8  88007968.37646  21492397.563                    21492402.383
 113758971.642 8  88643433.47645  21647612.906                    21647620.727
 111559519.535 8  86929663.823 7  21229086.539                    21229093.953
 106693544.292 8  83137859.774 8  20303068.781                    20303075.160
 113646028.062 8  88555444.534 7  21626119.602                    21626129.016
 11  8 21  2  1 30.0000000  0  8G10G26G29G02G30G12G05G25
 122057782.448 7  95110085.94944  23226801.305                    23226810.016
 126271885.075 6  98393755.63843  24028746.859                    24028756.363
 120536016.545 7  93924225.852 6  22937239.617                    22937248.406
 112979499.088 8  88036173.53146  21499285.297                    21499290.508
 113761640.846 7  88645513.37945  21648120.773                    21648128.598
 111611271.855 8  86969990.296 7  21238935.031                    21238941.902
 106709011.842 8  83149912.430 8  20306012.211                    20306018.961
 113633664.973 8  88545810.971 7  21623766.977                    21623776.867
 11  8 21  2  2  0.0000000  0  8G10G26G29G02G30G12G05G25
 122158652.460 7  95188685.95344  23245997.008                    23246005.063
 126176969.630 6  98319795.68443  24010684.641                    24010693.875
 120453116.590 7  93859628.539 6  22921464.461                    22921472.484
 113015784.900 8  88064448.18746  21506190.063                    21506195.703
 113764907.706 7  88648058.99945  21648742.555                    21648750.469
 111663504.651 8  87010691.171 7  21248874.211                    21248881.379
 106725024.332 8  83162389.713 8  20309059.039                    20309065.992
 113621880.953 8  88536628.633 7  21621524.242                    21621534.094
 11  8 21  2  2 30.0000000  0  8G10G26G29G02G30G12G05G25
 122259732.790 7  95267449.85044  23265231.516                    23265239.668
 126082054.236 6  98245835.74143  23992622.891                    23992632.375
 120370255.788 7  93795061.753 6  22905696.172                    22905705.094
 113052159.440 7  88092791.98845  21513112.016                    21513117.230
 113768771.421 7  88651069.70145  21649477.844                    21649485.781
 111716216.026 8  87051764.965 7  21258905.125                    21258911.875
 106741580.353 8  83175290.527 8  20312209.430                    20312216.270
 113610676.037 8  88527897.558 7  21619392.266                    21619401.824
 11  8 21  2  3  0.0000000  0  8G10G26G29G02G30G12G05G25
 122361020.647 7  95346375.44444  23284506.461                    23284514.375
 125987142.323 6  98171878.53044  23974562.133                    23974571.227
 120287435.573 7  93730526.593 7  22889936.414                    22889944.730
 113088622.436 8  88121204.72046  21520050.484                    21520055.699
 113773231.377 7  88654545.00545  21650326.320                    21650334.324
 111769403.622 8  87093209.842 7  21269026.508                    21269032.973
 106758678.631 8  83188613.877 8  20315463.469                    20315470.191
 113600050.302 8  88519617.799 7  21617370.117                    21617380.125
 11  8 21  2  3 30.0000000  0  8G10G26G29G02G30G12G05G25
 122462513.302 7  95425460.62744  23303819.383                    23303827.773
 125892237.069 6  98097926.49543  23956501.367                    23956511.355
 120204657.828 7  93666024.527 7  22874183.633                    22874192.254
 113125173.723 8  88149686.24946  21527006.258                    21527011.645
 113778286.830 7  88658484.34145  21651288.297                    21651296.363
 111823065.194 8  87135024.046 7  21279237.695                    21279244.555
 106776317.986 8  83202358.844 8  20318819.625                    20318826.461
 113590003.853 8  88511789.425 7  21615458.359                    21615468.371
 11  8 21  2  4  0.0000000  0  8G10G26G29G02G30G12G05G25
 122564207.879 7  95504703.13143  23323171.148                    23323179.332
 125797341.779 6  98023982.22443  23938443.609                    23938453.063
 120121924.345 7  93601556.945 6  22858439.656                    22858448.543
 113161812.663 8  88178236.06646  21533978.148                    21533983.371
 113783936.877 8  88662886.99445  21652363.531                    21652371.180
 111877198.498 8  87177205.832 7  21289538.766                    21289546.055
 106794497.126 8  83216524.424 8  20322279.391                    20322285.789
 113580536.614 8  88504412.390 7  21613657.031                    21613666.473
 11  8 21  2  4 30.0000000  0  8G10G26G29G02G30G12G05G25
 122666102.118 7  95584101.18544  23342560.844                    23342569.301
 125702459.847 6  97950048.37643  23920388.398                    23920397.949
 120039236.573 7  93537125.000 6  22842705.391                    22842713.559
 113198539.146 8  88206854.10346  21540967.227                    21540972.328
 113790180.946 8  88667752.52545  21653551.781                    21653559.961
 111931801.721 8  87219753.789 7  21299929.820                    21299936.836
 106813215.035 8  83231109.821 8  20325841.078                    20325847.910
 113571648.828 8  88497486.873 7  21611965.406                    21611975.324
 11  8 21  2  5  0.0000000  0  8G10G26G29G02G30G12G05G25
 122768192.595 7  95663652.18443  23361988.563                    23361996.633
 125607594.457 6  97876127.37743  23902335.633                    23902345.453
 119956595.888 7  93472729.752 6  22826978.734                    22826987.641
 113235352.704 8  88235539.99246  21547973.000                    21547977.871
 113797017.813 8  88673079.98045  21654852.578                    21654860.594
 111986872.051 8  87262665.725 7  21310408.953                    21310416.160
 106832469.686 8  83246113.458 8  20329505.070                    20329511.875
 113563340.087 8  88491012.567 7  21610384.125                    21610394.266
 11  8 21  2  5 30.0000000  0  8G10G26G29G02G30G12G05G25
 122870476.753 7  95743354.11543  23381452.219                    23381460.977
 125512749.118 6  97802222.00743  23884287.539                    23884296.719
 119874004.493 7  93408372.904 7  22811262.344                    22811270.746
 113272253.338 8  88264293.73346  21554994.438                    21555000.063
 113804446.982 8  88678868.96845  21656266.141                    21656273.758
 112042407.422 8  87305940.032 7  21320977.148                    21320984.336
 106852260.285 8  83261534.721 8  20333271.109                    20333277.898
 113555610.658 8  88484989.674 7  21608913.789                    21608923.129
 11  8 21  2  6  0.0000000  0  8G10G26G29G02G30G12G05G25
 122972951.754 7  95823204.76443  23400952.813                    23400960.715
 125417927.259 6  97728334.92643  23866243.453                    23866252.480
 119791464.206 7  93344055.885 7  22795555.938                    22795564.270
 113309240.816 8  88293115.14646  21562033.070                    21562038.285
 113812467.592 7  88685118.80945  21657792.977                    21657800.586
 112098405.797 7  87349575.123 7  21331633.227                    21331640.637
 106872585.644 8  83277372.676 8  20337138.922                    20337145.738
 113548460.497 8  88479418.149 7  21607552.844                    21607562.719
 11  8 21  2  6 30.0000000  0  8G10G26G29G02G30G12G05G25
 123075614.629 7  95903201.82943  23420488.445                    23420496.797
 125323132.022 6  97654468.60443  23848204.117                    23848213.305
 119708976.436 7  93279779.792 6  22779858.875                    22779867.059
 113346314.505 8  88322003.73746  21569087.961                    21569092.957
 113821078.503 7  88691828.64345  21659431.328                    21659438.918
 112154864.522 7  87393568.920 7  21342377.180                    21342384.242
 106893443.860 8  83293625.843 8  20341107.984                    20341114.840
 113541889.270 8  88474297.738 7  21606302.453                    21606312.352
 11  8 21  2  7  0.0000000  0  8G10G26G29G02G30G12G05G25
 123178462.917 7  95983343.36143  23440060.570                    23440067.992
 125228366.570 6  97580625.49043  23830171.148                    23830180.297
 119626542.624 7  93215545.735 6  22764171.727                    22764180.301
 113383474.302 8  88350959.42945  21576159.313                    21576164.527
 113830278.778 7  88698997.70545  21661181.945                    21661189.578
 112211781.441 8  87437919.762 7  21353207.891                    21353215.125
 106914833.348 8  83310292.994 8  20345178.461                    20345185.363
 113535896.832 8  88469628.336 7  21605162.008                    21605171.637
 11  8 21  2  7 30.0000000  0  8G10G26G29G02G30G12G05G25
 123281493.573 7  96063626.94943  23459666.609                    23459674.234
 125133634.531 6  97506808.39144  23812143.820                    23812153.363
 119544164.918 7  93151355.383 6  22748495.758                    22748504.055
 113420719.779 8  88379981.87245  21583246.734                    21583251.902
 113840067.366 7  88706625.19845  21663044.617                    21663052.258
 112269154.274 7  87482625.856 7  21364125.602                    21364132.641
 106936752.905 8  83327373.182 8  20349349.531                    20349356.016
 113530482.941 8  88465409.740 7  21604131.641                    21604141.629
 11  8 21  2  8  0.0000000  0  8G10G26G29G02G30G12G05G25
 123384703.611 7  96144050.36144  23479306.656                    23479314.613
 125038939.258 6  97433019.95343  23794123.344                    23794132.598
 119461844.802 7  93087209.922 7  22732831.023                    22732839.188
 113458051.016 8  88409071.15646  21590350.891                    21590355.605
 113850443.315 8  88714710.37045  21665018.930                    21665026.805
 112326980.316 8  87527685.103 7  21375129.688                    21375136.742
 106959200.839 8  83344865.099 8  20353621.297                    20353628.164
 113525647.486 8  88461641.868 7  21603211.633                    21603221.516
 11  8 21  2  8 30.0000000  0  8G10G26G29G02G30G12G05G25
 123488090.515 7  96224611.60043  23498980.523                    23498989.160
 124944284.411 6  97359263.00243  23776112.008                    23776120.930
 119379584.420 7  93023110.993 7  22717176.711                    22717185.148
 113495468.094 8  88438227.31146  21597471.133                    21597476.383
 113861406.031 8  88723252.75145  21667105.344                    21667113.047
 112385257.558 7  87573095.931 7  21386219.609                    21386226.449
 106982176.432 8  83362768.172 8  20357993.555                    20358000.176
 113521390.658 8  88458324.884 7  21602401.461                    21602411.129
 11  8 21  2  9  0.0000000  0  8G10G26G29G02G30G12G05G25
 123591651.475 6  96305308.42743  23518687.305                    23518695.598
 124849673.188 6  97285540.06144  23758107.805                    23758117.297
 119297385.039 7  92959059.589 7  22701535.273                    22701543.238
 113532970.042 8  88467449.60646  21604607.203                    21604612.473
 113872954.108 8  88732251.26945  21669302.781                    21669310.492
 112443983.698 7  87618856.548 7  21397394.773                    21397401.586
 107005677.479 8  83381080.691 8  20362465.188                    20362471.910
 113517711.791 7  88455458.238 7  21601701.180                    21601711.238
 11  8 21  2  9 30.0000000  0  8G10G26G29G02G30G12G05G25
 123695383.936 7  96386138.89143  23538426.781                    23538435.969
 124755108.961 6  97211853.74243  23740112.703                    23740122.273
 119215248.946 7  92895057.496 7  22685905.211                    22685913.008
 113570557.307 8  88496738.37245  21611759.867                    21611764.691
 113885086.642 8  88741705.20345  21671611.273                    21671619.043
 112503156.293 7  87664965.058 7  21408654.969                    21408662.379
 107029702.971 8  83399801.871 8  20367037.102                    20367043.730
 113514610.945 8  88453042.004 7  21601110.953                    21601120.848
 11  8 21  2 10  0.0000000  0  9G10G26G29G02G30G12G05G15G25
 123799284.921 6  96467100.67143  23558198.656                    23558207.410
 124660594.927 6  97138206.53243  23722127.578                    23722136.484
 119133177.471 7  92831105.750 6  22670287.078                    22670294.992
 113608228.903 8  88526092.86845  21618928.555                    21618933.859
 113897802.051 8  88751613.32245  21674031.258                    21674038.820
 112562772.441 7  87711419.188 7  21419999.219                    21420006.250
 107054250.701 8  83418929.980 8  20371708.508                    20371715.293
 129411237.93015 100840011.51616  24626150.289                    24626159.945
 113512087.243 8  88451075.497 7  21600630.813                    21600641.031
 11  8 21  2 10 30.0000000  0  9G10G26G29G02G30G12G05G15G25
 123903351.828 6  96548191.75843  23578001.750                    23578010.316
 124566134.721 6  97064601.26043  23704152.117                    23704160.887
 119051172.645 7  92767205.931 7  22654682.328                    22654690.629
 113645984.969 8  88555513.16345  21626113.305                    21626118.430
 113911099.492 8  88761974.96845  21676561.297                    21676569.207
 112622830.181 8  87758217.421 7  21431427.836                    21431435.191
 107079319.561 8  83438464.167 8  20376479.438                    20376485.758
 129318419.300 6 100767685.556 6  24608487.227                    24608497.742
 113510140.720 8  88449558.730 7  21600260.953                    21600270.695
 11  8 21  2 11  0.0000000  0  9G10G26G29G02G30G12G05G15G25
 124007581.984 6  96629410.01643  23597836.992                    23597844.625
 124471731.426 6  96991040.33943  23686187.563                    23686196.707
 118969236.250 7  92703359.431 7  22639090.141                    22639098.133
 113683825.102 8  88584998.97145  21633314.531                    21633319.242
 113924977.661 8  88772789.12845  21679202.203                    21679210.234
 112683326.553 7  87805357.447 7  21442939.953                    21442947.211
 107104907.710 8  83458402.999 8  20381348.109                    20381354.789
 129225468.251 6 100695256.378 6  24590798.906                    24590809.195
 113508770.776 8  88448491.243 7  21600000.391                    21600009.402
 11  8 21  2 11 30.0000000  0  9G10G26G29G02G30G12G05G15G25
 124111972.567 6  96710753.27743  23617701.844                    23617710.164
 124377389.119 6  96917526.93643  23668234.672                    23668244.031
 118887370.015 7  92639567.610 7  22623511.461                    22623519.809
 113721749.518 8  88614550.45845  21640530.852                    21640535.742
 113939435.821 8  88784055.22845  21681953.320                    21681961.078
 112744260.063 7  87852838.092 7  21454535.258                    21454542.492
 107131013.846 8  83478745.446 8  20386316.070                    20386323.063
 129132387.551 6 100622726.166 6  24573086.344                    24573096.574
 113507977.543 8  88447873.147 7  21599849.125                    21599858.633
 11  8 21  2 12  0.0000000  0  9G10G26G29G02G30G12G05G15G25
 124216520.966 7  96792219.54044  23637596.664                    23637604.590
 124283111.022 6  96844063.58244  23650293.992                    23650303.070
 118805575.935 7  92575832.004 7  22607946.633                    22607954.641
 113759758.197 8  88644167.59945  21647763.563                    21647768.816
 113954472.783 8  88795772.34645  21684815.164                    21684823.098
 112805627.620 8  87900656.969 7  21466213.172                    21466220.504
 107157636.633 8  83499490.483 8  20391382.227                    20391388.766
 129039179.486 6 100550096.706 6  24555349.555                    24555359.781
 113507760.626 8  88447704.121 7  21599807.727                    21599817.102
 11  8 21  2 12 30.0000000  0  9G10G26G29G02G30G12G05G15G25
 124321224.383 6  96873806.60643  23657520.578                    23657529.074
 124188900.584 6  96770652.91643  23632366.227                    23632375.672
 118723855.603 7  92512153.863 7  22592395.664                    22592403.738
 113797850.877 8  88673850.19645  21655012.180                    21655017.520
 113970086.923 8  88807939.21345  21687786.070                    21687793.922
 112867426.749 7  87948812.125 7  21477973.227                    21477980.453
 107184774.032 8  83520636.518 8  20396546.430                    20396552.770
 128945846.400 6 100477369.817 6  24537588.367                    24537598.621
 113508119.267 8  88447983.587 7  21599875.859                    21599885.301
 11  8 21  2 13  0.0000000  0  9G10G26G29G02G30G12G05G15G25
 124426080.256 6  96955512.46843  23677474.281                    23677482.293
 124094761.294 6  96697297.72243  23614451.727                    23614461.078
 118642211.236 7  92448534.909 7  22576859.945                    22576867.461
 113836027.086 8  88703597.87445  21662277.031                    21662282.277
 113986277.355 8  88820555.12445  21690867.242                    21690874.996
 112929655.599 7  87997302.134 7  21489814.492                    21489821.715
 107212424.910 8  83542182.665 8  20401808.195                    20401814.660
 128852391.238 6 100404547.801 6  24519805.203                    24519814.570
 113509053.354 8  88448711.446 7  21600053.641                    21600063.555
 11  8 21  2 13 30.0000000  0  9G10G26G29G02G30G12G05G15G25
 124531085.753 7  97037334.91143  23697456.664                    23697464.711
 124000696.619 6  96624000.65743  23596551.188                    23596561.215
 118560644.671 7  92384976.589 7  22561337.820                    22561346.121
 113874286.569 8  88733410.44645  21669557.555                    21669562.922
 114003042.628 8  88833618.98045  21694057.586                    21694065.316
 112992310.856 7  88046124.411 7  21501738.063                    21501744.953
 107240587.405 8  83564127.470 8  20407167.305                    20407174.340
 128758816.107 6 100331632.291 6  24501997.898                    24502007.809
 113510562.202 8  88449887.169 7  21600341.031                    21600350.164
 11  8 21  2 14  0.0000000  0  9G10G26G29G02G30G12G05G15G25
 124636238.082 6  97119271.76243  23717466.320                    23717474.109
 123906709.877 6  96550764.32044  23578666.398                    23578675.754
 118479157.516 7  92321480.148 7  22545831.156                    22545839.527
 113912629.516 8  88763288.06745  21676853.836                    21676859.582
 114020381.177 8  88847129.52745  21697357.133                    21697364.906
 113055390.330 8  88095277.240 7  21513741.906                    21513748.711
 107269259.343 8  83586469.241 8  20412623.242                    20412629.938
 128665123.249 6 100258625.028 5  24484168.719                    24484177.621
 113512645.127 8  88451510.229 7  21600737.516                    21600747.203
 11  8 21  2 14 30.0000000  0  9G10G26G29G02G30G12G05G15G25
 124741534.630 6  97201320.95743  23737503.102                    23737511.074
 123812804.748 6  96477591.58443  23560797.063                    23560806.383
 118397751.599 7  92258047.005 7  22530340.000                    22530348.125
 113951055.583 8  88793230.44945  21684166.680                    21684171.828
 114038291.987 8  88861086.00445  21700765.703                    21700773.082
 113118891.341 8  88144758.550 7  21525825.336                    21525832.773
 107298439.373 8  83609206.934 8  20418176.172                    20418182.895
 128571315.649 6 100185528.323 5  24466318.078                    24466326.637
 113515301.902 8  88453580.435 7  21601242.789                    21601252.566
 11  8 21  2 15  0.0000000  0  9G10G26G29G02G30G12G05G15G25
 124846972.490 7  97283480.32443  23757567.781                    23757575.895
 123718984.437 6  96404484.94044  23542943.609                    23542953.301
 118316428.463 7  92194678.365 7  22514864.547                    22514873.141
 113989564.743 8  88823237.58145  21691494.203                    21691499.840
 114056773.369 8  88875487.07945  21704282.227                    21704290.145
 113182811.267 8  88194566.276 7  21537988.766                    21537995.750
 107328125.158 8  83632338.715 8  20423824.852                    20423831.652
 128477395.513 6 100112343.913 5  24448445.109                    24448453.492
 113518531.668 8  88456097.137 7  21601857.344                    21601866.930
 11  8 21  2 15 30.0000000  0  9G10G26G29G02G30G12G05G15G25
 124952549.230 7  97365747.93443  23777658.203                    23777666.250
 123625252.626 7  96331447.26044  23525107.633                    23525116.398
 118235190.507 7  92131376.106 7  22499405.984                    22499414.137
 114028156.747 8  88853309.27245  21698838.047                    21698843.141
 114075824.126 8  88890331.82445  21707907.453                    21707915.461
 113247147.253 8  88244698.210 7  21550231.719                    21550238.754
 107358315.573 8  83655863.723 8  20429569.969                    20429577.066
 128383365.350 6 100039073.772 5  24430551.328                    24430560.621
 113522333.939 8  88459059.943 7  21602580.930                    21602590.637
 11  8 21  2 16  0.0000000  0  9G10G26G29G02G30G12G05G15G25
 125058262.171 6  97448121.64843  23797774.461                    23797782.758
 123531612.952 7  96258481.37844  23507288.250                    23507297.492
 118154039.609 7  92068141.685 7  22483963.367                    22483971.172
 114066831.335 8  88883445.31445  21706197.531                    21706202.813
 114095443.032 8  88905619.28445  21711640.953                    21711648.566
 113311897.115 8  88295152.643 7  21562553.070                    21562559.941
 107389009.045 8  83679780.718 8  20435411.039                    20435417.898
 128289228.001 6  99965720.129 6  24412637.516                    24412647.426
 113526708.310 8  88462468.537 7  21603413.219                    21603423.254
 11  8 21  2 16 30.0000000  0  9G10G26G29G02G30G12G05G15G25
 125164108.598 6  97530599.39343  23817916.109                    23817924.941
 123438068.481 7  96185589.67344  23489487.109                    23489496.375
 118072977.397 7  92004976.372 7  22468537.680                    22468545.594
 114105588.497 7  88913645.70745  21713573.234                    21713578.590
 114115628.156 8  88921347.95345  21715481.961                    21715489.918
 113377058.336 7  88345927.613 7  21574952.953                    21574960.137
 107420203.239 8  83704087.894 8  20441346.953                    20441354.035
 128194985.781 6  99892284.777 6  24394704.023                    24394713.301
 113531653.838 8  88466322.193 7  21604354.664                    21604364.137
 11  8 21  2 17  0.0000000  0  9G10G26G29G02G30G12G05G15G25
 125270085.985 6  97613179.13343  23838082.898                    23838091.457
 123344623.283 7  96112775.33444  23471705.297                    23471713.648
 117992006.010 7  91941881.836 7  22453129.039                    22453136.914
 114144428.199 7  88943910.41045  21720964.172                    21720968.961
 114136378.563 8  88937517.09145  21719430.898                    21719438.559
 113442628.598 7  88397021.318 7  21587430.313                    21587437.289
 107451896.907 8  83728784.270 8  20447377.898                    20447384.664
 128100641.543 6  99818769.916 6  24376750.344                    24376760.113
 113537170.109 8  88470620.593 7  21605404.461                    21605413.641
 11  8 21  2 17 30.0000000  0  9G10G26G29G02G30G12G05G15G25
 125376191.264 6  97695858.54343  23858274.461                    23858282.496
 123251280.326 7  96040040.65844  23453942.219                    23453951.137
 117911127.053 7  91878859.313 7  22437737.984                    22437746.023
 114183350.146 7  88974239.20545  21728370.563                    21728376.066
 114157692.247 8  88954125.16045  21723486.648                    21723494.492
 113508604.436 7  88448431.049 7  21599985.477                    21599992.602
 107484087.714 8  83753868.028 8  20453503.680                    20453510.340
 128006197.869 6  99745177.604 6  24358777.875                    24358788.305
 113543256.104 8  88475362.925 7  21606562.172                    21606571.629
 11  8 21  2 18  0.0000000  0  9G10G26G29G02G30G12G05G15G25
 125482422.397 6  97778636.00143  23878489.461                    23878497.711
 123158043.658 7  95967388.78844  23436199.977                    23436208.664
 117830342.925 7  91815910.687 7  22422365.555                    22422373.461
 114222354.573 7  89004632.26745  21735792.742                    21735797.906
 114179568.294 8  88971171.42345  21727648.953                    21727657.230
 113574983.611 7  88500155.070 7  21612616.828                    21612623.875
 107516774.766 8  83779338.472 8  20459723.875                    20459730.762
 127911657.286 6  99671509.799 6  24340787.492                    24340797.402
 113549911.650 8  88480549.062 7  21607829.039                    21607838.508
 11  8 21  2 18 30.0000000  0  9G10G26G29G02G30G12G05G15G25
 125588776.808 6  97861509.56843  23898727.805                    23898736.441
 123064916.721 7  95894822.42144  23418478.555                    23418487.109
 117749655.450 7  91753037.369 7  22407011.570                    22407019.387
 114261441.454 7  89035089.58345  21743230.828                    21743236.109
 114202004.981 8  88988654.55545  21731918.938                    21731926.875
 113641763.600 7  88552191.410 7  21625324.813                    21625331.809
 107549955.867 8  83805193.892 8  20466037.844                    20466044.668
 127817022.128 6  99597768.318 6  24322778.609                    24322788.930
 113557135.779 8  88486178.248 7  21609203.711                    21609213.199
 11  8 21  2 19  0.0000000  0  9G10G26G29G02G30G12G05G15G25
 125695251.530 6  97944476.84143  23918989.727                    23918997.813
 122971902.718 6  95822344.07544  23400778.336                    23400787.035
 117669066.500 7  91690240.817 7  22391675.977                    22391683.465
 114300610.266 7  89065610.73745  21750684.617                    21750689.563
 114225000.444 8  89006573.08945  21736294.828                    21736302.527
 113708941.831 7  88604538.074 7  21638108.602                    21638115.117
 107583628.655 8  83831432.438 8  20472445.813                    20472452.730
 127722294.989 6  99523955.197 6  24304752.055                    24304762.652
 113564927.521 8  88492249.736 7  21610686.141                    21610695.965
 11  8 21  2 19 30.0000000  0  9G10G26G29G02G30G12G05G15G25
 125801843.901 6  98027535.80743  23939273.914                    23939281.680
 122879005.479 6  95749956.69344  23383100.461                    23383109.688
 117588577.928 7  91627522.496 7  22376359.305                    22376366.781
 114339861.104 7  89096195.81645  21758153.766                    21758159.012
 114248553.313 8  89024925.97245  21740776.688                    21740784.660
 113776515.664 7  88657193.000 7  21650967.383                    21650974.359
 107617791.565 8  83858052.901 8  20478946.969                    20478953.641
 127627478.746 6  99450072.633 6  24286709.570                    24286719.723
 113573286.308 8  88498763.071 7  21612276.711                    21612286.648
 11  8 21  2 20  0.0000000  0  9G10G26G29G02G30G12G05G15G25
 125908551.443 6  98110684.49443  23959578.961                    23959587.676
 122786228.603 7  95677663.08043  23365445.563                    23365454.082
 117508191.722 7  91564883.938 7  22361061.977                    22361069.508
 114379194.008 8  89126844.84245  21765638.586                    21765643.586
 114272662.113 7  89043712.04945  21745364.820                    21745372.496
 113844481.998 7  88710153.762 7  21663900.578                    21663908.078
 107652442.930 8  83885053.981 8  20485540.500                    20485547.086
 127532576.133 6  99376122.748 6  24268650.563                    24268659.836
 113582211.392 8  88505717.682 7  21613975.125                    21613984.691
 11  8 21  2 20 30.0000000  0  9G10G26G29G02G30G12G05G15G25
 126015371.387 7  98193920.82243  23979906.594                    23979914.668
 122693575.482 6  95605465.90444  23347814.500                    23347823.238
 117427909.918 7  91502326.737 7  22345785.227                    22345792.633
 114418608.804 8  89157557.67845  21773138.961                    21773143.961
 114297325.015 8  89062929.88245  21750057.805                    21750065.652
 113912838.400 7  88763418.476 7  21676908.539                    21676915.699
 107687580.564 8  83912433.972 8  20492226.797                    20492233.988
 127437589.552 6  99302107.428 6  24250575.305                    24250584.531
 113591701.725 8  88513112.744 7  21615781.188                    21615790.996
 11  8 21  2 21  0.0000000  0  9G10G26G29G02G30G12G05G15G25
 126122301.134 7  98277242.66743  24000254.188                    24000262.234
 122601049.770 6  95533368.01344  23330207.141                    23330215.375
 117347734.504 7  91439852.440 7  22330528.180                    22330535.957
 114458105.486 8  89188334.32145  21780654.859                    21780659.973
 114322540.273 7  89082578.12245  21754856.344                    21754863.875
 113981581.931 7  88816984.852 7  21689990.211                    21689997.313
 107723202.750 8  83940191.531 8  20499005.828                    20499012.652
 127342521.605 6  99228028.700 6  24232484.344                    24232493.191
 113601756.429 8  88520947.580 7  21617694.563                    21617703.926
 11  8 21  2 21 30.0000000  0  9G10G26G29G02G30G12G05G15G25
 126229338.185 7  98360648.15143  24020623.539                    24020631.070
 122508654.841 6  95461372.03043  23312625.203                    23312633.254
 117267667.369 7  91377462.523 7  22315292.148                    22315299.539
 114497683.856 7  89219174.62545  21788186.141                    21788191.414
 114348306.181 7  89102655.44645  21759759.164                    21759766.805
 114050709.989 7  88870850.851 7  21703144.766                    21703151.695
 107759307.092 8  83968324.796 8  20505875.875                    20505882.637
 127247374.688 7  99153888.396 6  24214378.141                    24214387.063
 113612374.524 8  88529221.414 7  21619715.281                    21619724.461
 11  8 21  2 22  0.0000000  0  9G10G26G29G02G30G12G05G15G25
 126336479.808 7  98444135.11143  24041011.531                    24041019.887
 122416394.476 6  95389480.91144  23295068.469                    23295077.070
 117187710.636 7  91315158.632 7  22300076.625                    22300084.340
 114537343.862 8  89250078.51545  21795733.367                    21795738.145
 114374621.163 7  89123160.61645  21764766.641                    21764774.668
 114120220.061 7  88925014.541 7  21716371.836                    21716378.914
 107795892.113 8  83996832.614 8  20512837.953                    20512844.738
 127152151.926 7  99079688.968 6  24196257.164                    24196266.313
 113623555.269 8  88537933.677 7  21621842.953                    21621852.617
 11  8 21  2 22 30.0000000  0  9G10G26G29G02G30G12G05G15G25
 126443723.946 7  98527701.95943  24061419.367                    24061428.086
 122324272.498 6  95317697.60844  23277537.656                    23277546.598
 117107866.505 7  91252942.486 7  22284882.813                    22284890.652
 114577085.893 7  89281046.33345  21803296.406                    21803301.313
 114401483.879 7  89144092.59145  21769878.344                    21769886.352
 114190109.767 7  88979474.039 7  21729671.625                    21729678.715
 107832956.360 7  84025713.855 8  20519891.375                    20519897.586
 127056855.975 6  99005432.488 6  24178123.117                    24178132.266
 113635298.023 8  88547083.875 7  21624077.188                    21624087.000
 11  8 21  2 23  0.0000000  0  9G10G26G29G02G30G12G05G15G25
 126551067.729 6  98611346.46143  24081845.875                    24081854.898
 122232292.382 6  95246024.85444  23260034.781                    23260043.813
 117028136.718 7  91190815.445 7  22269710.555                    22269718.613
 114616909.768 7  89312077.92045  21810874.094                    21810879.707
 114428892.101 8  89165449.63545  21775094.273                    21775102.438
 114260375.493 7  89034226.544 7  21743042.609                    21743049.816
 107870497.329 8  84054966.572 8  20527034.836                    20527041.477
 126961489.147 6  98931120.787 6  24159976.039                    24159984.527
 113647601.528 8  88556671.025 7  21626418.695                    21626428.074
 11  8 21  2 23 30.0000000  0  9G10G26G29G02G30G12G05G15G25
 126658508.469 6  98695066.50143  24102291.102                    24102299.793
 122140457.375 7  95174465.18344  23242559.766                    23242568.082
 116948523.226 7  91128779.019 7  22254560.859                    22254568.473
 114656815.138 7  89343173.01445  21818467.992                    21818473.105
 114456843.934 7  89187230.27545  21780413.148                    21780421.039
 114331014.519 7  89089269.928 7  21756484.766                    21756491.918
 107908512.798 8  84084589.022 8  20534269.141                    20534275.707
 126866054.271 6  98856756.057 6  24141815.047                    24141823.367
 113660464.447 8  88566694.073 7  21628866.555                    21628876.340
 11  8 21  2 24  0.0000000  0  9G10G26G29G02G30G12G05G15G25
 126766044.114 6  98778860.50843  24122754.320                    24122763.246
 122048771.385 7  95103021.62144  23225112.008                    23225120.875
 116869028.220 7  91066834.925 7  22239433.117                    22239440.438
 114696802.393 7  89374331.92045  21826077.313                    21826082.496
 114485338.085 7  89209433.50045  21785835.492                    21785843.328
 114402025.137 7  89144602.864 7  21769997.570                    21770004.742
 107947001.365 8  84114580.123 8  20541593.086                    20541599.348
 126770554.186 6  98782340.524 6  24123641.000                    24123650.172
 113673886.379 8  88577152.728 7  21631420.500                    21631429.867
 11  8 21  2 24 30.0000000  0  9G10G26G29G02G30G12G05G15G25
 126873671.766 6  98862726.21642  24143235.938                    24143243.980
 121957237.923 7  95031696.91844  23207693.750                    23207702.445
 116789653.620 7  91004984.654 7  22224328.531                    22224336.813
 114736871.326 7  89405554.47545  21833702.195                    21833707.523
 114514372.367 7  89232057.61545  21791360.805                    21791368.246
 114473403.684 7  89200222.500 7  21783580.938                    21783587.781
 107985960.687 8  84144938.046 8  20549006.867                    20549013.703
 126674991.585 6  98707876.285 6  24105456.219                    24105466.004
 113687865.921 8  88588045.877 7  21634080.813                    21634089.957
 11  8 21  2 25  0.0000000  0  9G10G26G29G02G30G12G05G15G25
 126981388.942 6  98946661.64642  24163732.680                    24163741.594
 121865860.636 7  94960493.91544  23190305.344                    23190314.063
 116710401.662 7  90943229.946 7  22209247.484                    22209254.984
 114777021.901 7  89436840.63845  21841342.719                    21841347.703
 114543945.012 8  89255101.22745  21796988.172                    21796996.156
 114545147.305 7  89256126.614 7  21797232.773                    21797240.027
 108025388.797 8  84175661.263 8  20556509.664                    20556516.344
 126579369.074 6  98633365.352 6  24087259.883                    24087269.047
 113702402.052 8  88599372.736 7  21636847.039                    21636856.738
 11  8 21  2 25 30.0000000  0  9G10G26G29G02G30G12G05G15G25
 127089193.039 6  99030664.78542  24184248.086                    24184256.113
 121774642.988 7  94889415.28644  23172946.961                    23172955.895
 116631273.988 7  90881572.092 7  22194189.758                    22194197.703
 114817253.976 7  89468190.30945  21848998.453                    21849003.676
 114574053.963 7  89278562.75345  21802718.086                    21802725.480
 114617253.232 7  89312313.039 7  21810954.422                    21810961.441
 108065283.294 8  84206747.899 8  20564101.461                    20564108.309
 126483689.183 6  98558809.695 6  24069052.781                    24069061.320
 113717493.516 8  88611132.321 7  21639718.703                    21639728.281
 11  8 21  2 26  0.0000000  0  9G10G26G29G02G30G12G05G15G25
 127197081.199 6  99114733.50243  24204779.063                    24204786.605
 121683588.438 7  94818463.75344  23155619.719                    23155628.617
 116552272.692 7  90820012.714 7  22179156.430                    22179163.945
 114857567.470 7  89499603.42445  21856669.883                    21856674.969
 114604697.230 7  89302440.62445  21808548.969                    21808556.707
 114689718.772 7  89368779.686 7  21824744.219                    21824751.098
 108105641.857 8  84238196.139 8  20571781.531                    20571787.945
 126387954.688 7  98484211.486 6  24050835.023                    24050843.449
 113733139.063 8  88623323.657 7  21642695.875                    21642705.609
 11  8 21  2 26 30.0000000  0  9G10G26G29G02G30G12G05G15G25
 127305051.587 6  99198866.24943  24225324.070                    24225333.039
 121592700.932 7  94747642.38144  23138324.063                    23138333.063
 116473400.338 7  90758553.797 7  22164147.242                    22164154.645
 114897962.844 7  89531080.34345  21864356.586                    21864362.039
 114635873.430 7  89326733.77245  21814481.680                    21814489.043
 114762541.184 7  89425524.415 7  21838601.750                    21838608.902
 108146463.534 8  84270005.249 8  20579549.656                    20579555.930
 126292168.588 7  98409573.026 6  24032607.688                    24032616.066
 113749338.061 8  88635946.259 7  21645778.398                    21645788.047
 11  8 21  2 27  0.0000000  0  9G10G26G29G02G30G12G05G15G25
 127413101.637 6  99283061.06443  24245886.539                    24245894.039
 121501984.143 7  94676954.04844  23121061.383                    23121070.367
 116394659.109 7  90697197.059 7  22149162.773                    22149170.914
 114938440.311 7  89562621.21745  21872059.484                    21872064.527
 114667580.580 8  89351440.66345  21820515.117                    21820522.715
 114835717.743 7  89482545.106 7  21852526.820                    21852533.695
 108187746.155 8  84302173.532 8  20587405.133                    20587411.742
 126196333.498 7  98334896.411 6  24014370.758                    24014379.105
 113766089.290 8  88648999.168 7  21648966.148                    21648975.914
 11  8 21  2 27 30.0000000  0  9G10G26G29G02G30G12G05G15G25
 127521228.839 6  99367316.00143  24266461.727                    24266470.094
 121411441.899 7  94606401.71944  23103831.797                    23103840.664
 116316050.553 7  90635943.698 7  22134204.242                    22134212.320
 114978999.461 7  89594225.76245  21879777.727                    21879782.988
 114699816.508 7  89376559.57245  21826649.602                    21826657.207
 114909245.615 7  89539839.541 7  21866518.773                    21866525.766
 108229487.429 8  84334699.211 8  20595348.336                    20595355.297
 126100452.470 6  98260184.008 6  23996124.906                    23996133.469
 113783391.417 8  88662481.354 7  21652258.484                    21652268.262
 11  8 21  2 28  0.0000000  0  9G10G26G29G02G30G12G05G15G25
 127629430.812 7  99451629.21743  24287052.422                    24287060.391
 121321077.396 7  94535987.89044  23086635.922                    23086644.438
 116237576.921 7  90574795.476 7  22119271.750                    22119279.352
 115019640.247 7  89625893.91545  21887510.906                    21887516.297
 114732579.231 7  89402088.97845  21832883.891                    21832891.621
 114983121.846 7  89597405.426 7  21880576.953                    21880583.875
 108271685.044 8  84367580.474 7  20603378.281                    20603384.879
 126004527.729 6  98185437.545 6  23977871.328                    23977880.078
 113801243.189 8  88676391.829 7  21655655.727                    21655665.477
 11  8 21  2 28 30.0000000  0  9G10G26G29G02G30G12G05G15G25
 127737704.719 6  99535998.44143  24307655.852                    24307664.094
 121230894.302 7  94465715.43244  23069474.461                    23069483.191
 116159240.183 7  90513753.912 7  22104364.461                    22104372.195
 115060362.883 7  89657625.85345  21895260.328                    21895265.539
 114765866.576 8  89428027.17645  21839218.250                    21839226.223
 115057343.311 7  89655240.325 7  21894700.711                    21894707.781
 108314336.678 8  84400815.532 8  20611494.648                    20611500.988
 125908562.262 6  98110659.365 6  23959609.055                    23959618.242
 113819643.225 8  88690729.523 7  21659157.180                    21659166.410
 11  8 21  2 29  0.0000000  0  9G10G26G29G02G30G12G05G15G25
 127846048.490 6  99620422.14143  24328273.164                    24328281.371
 121140896.507 7  94395587.35844  23052348.188                    23052357.461
 116081042.564 7  90452820.762 7  22089483.852                    22089491.516
 115101167.877 7  89689421.96045  21903025.039                    21903030.184
 114799676.992 8  89454372.96945  21845652.203                    21845660.504
 115131907.545 7  89713342.309 7  21908889.781                    21908896.887
 108357440.852 7  84434403.207 7  20619697.391                    20619703.676
 125812559.037 6  98035851.765 6  23941339.883                    23941349.410
 113838590.533 8  88705493.677 7  21662762.766                    21662772.113
 11  8 21  2 29 30.0000000  0  9G10G26G29G02G30G12G05G15G25
 127954459.473 6  99704898.22243  24348903.094                    24348911.211
 121051087.155 7  94325606.11944  23035258.297                    23035266.906
 116002986.135 7  90391997.630 7  22074630.250                    22074637.914
 115142054.467 7  89721281.65445  21910805.734                    21910810.293
 114834007.945 8  89481124.37745  21852185.250                    21852193.027
 115206811.619 7  89771709.118 7  21923143.250                    21923150.828
 108400994.772 8  84468341.332 8  20627985.648                    20627992.117
 125716520.503 6  97961016.649 6  23923064.813                    23923073.480
 113858083.550 8  88720683.041 7  21666471.898                    21666481.840
 11  8 21  2 30  0.0000000  0  9G10G26G29G02G30G12G05G15G25
 128062935.590 6  99789425.05243  24369545.656                    24369553.465
 120961470.350 7  94255774.91644  23018204.602                    23018213.035
 115925073.299 7  90331286.375 7  22059803.680                    22059811.445
 115183022.943 8  89753205.13545  21918601.734                    21918606.805
 114868857.719 8  89508280.05845  21858816.852                    21858824.777
 115282052.999 7  89830338.745 7  21937461.133                    21937468.457
 108444996.972 8  84502628.767 7  20636358.555                    20636365.168
 125620449.616 6  97886156.317 6  23904783.313                    23904791.594
 113878121.245 8  88736296.840 7  21670284.867                    21670294.637
 11  8 21  2 30 30.0000000  0  9G10G26G29G02G30G12G05G15G25
 128171474.077 6  99874000.46143  24390199.508                    24390208.031
 120872049.872 7  94186096.70244  23001188.336                    23001196.766
 115847306.300 7  90270688.758 7  22045004.906                    22045012.645
 115224073.821 7  89785192.84045  21926413.305                    21926418.457
 114904224.215 8  89535838.38945  21865546.922                    21865555.035
 115357628.072 8  89889228.407 7  21951842.930                    21951850.113
 108489445.312 8  84537263.844 7  20644816.695                    20644823.340
 125524349.263 6  97811273.030 6  23886496.234                    23886504.352
 113898702.257 8  88752334.000 7  21674201.453                    21674211.156
 11  8 21  2 31  0.0000000  0  9G10G26G29G02G30G12G05G15G25
 128280072.196 5  99958622.33942  24410865.039                    24410873.395
 120782828.797 7  94116573.84444  22984210.391                    22984218.480
 115769686.440 7  90210205.798 7  22030234.297                    22030242.113
 115265206.732 8  89817244.46445  21934240.930                    21934245.875
 114940104.915 8  89563797.38645  21872374.563                    21872382.605
 115433533.819 8  89948375.733 7  21966287.563                    21966294.484
 108534336.601 8  84572244.073 8  20653359.297                    20653365.594
 125428222.023 6  97736368.782 6  23868203.188                    23868211.719
 113919824.775 8  88768793.115 7  21678220.828                    21678230.652
 11  8 21  2 31 30.0000000  0  9G10G26G29G02G30G12G05G15G25
 128388727.584 5 100043288.82042  24431541.773                    24431549.613
 120693810.936 7  94047209.34944  22967270.977                    22967279.070
 115692216.148 7  90149839.376 7  22015492.664                    22015500.105
 115306421.380 8  89849359.78645  21942083.844                    21942088.875
 114976497.649 7  89592155.36745  21879299.695                    21879307.836
 115509767.331 7  90007778.448 7  21980794.172                    21980801.266
 108579668.678 8  84607567.776 8  20661985.688                    20661992.035
 125332070.445 6  97661445.559 6  23849905.773                    23849914.426
 113941487.412 8  88785673.097 7  21682343.023                    21682353.023
 11  8 21  2 32  0.0000000  0  9G10G26G29G02G30G12G05G15G25
 128497438.289 5 100127998.44542  24452228.484                    24452236.969
 120605000.150 7  93978006.20344  22950370.852                    22950378.984
 115614898.064 7  90089591.549 7  22000779.484                    22000787.109
 115347718.662 7  89881539.48745  21949942.602                    21949947.664
 115013400.831 7  89620911.10345  21886322.336                    21886330.070
 115586326.628 7  90067435.026 7  21995362.977                    21995370.090
 108625440.588 8  84643234.214 8  20670695.766                    20670702.492
 125235898.203 7  97586506.224 6  23831605.484                    23831613.449
 113963689.280 8  88802973.266 7  21686568.008                    21686577.555
 11  8 21  2 32 30.0000000  0  9G10G26G29G02G30G12G05G15G25
 128606201.939 5 100212749.28242  24472925.242                    24472934.184
 120516400.511 7  93908967.56644  22933510.414                    22933518.832
 115537734.427 7  90029464.076 7  21986095.766                    21986103.066
 115389098.812 7  89913783.77045  21957816.891                    21957821.871
 115050812.400 7  89650062.98445  21893441.617                    21893449.230
 115663208.576 8  90127343.013 7  22009993.195                    22010000.156
 108671650.152 8  84679241.679 8  20679489.094                    20679495.695
 125139707.813 7  97511552.765 6  23813300.211                    23813308.754
 113986429.096 8  88820692.604 7  21690895.297                    21690905.016
 11  8 21  2 33  0.0000000  0  9G10G26G29G02G30G12G05G15G25
 128715016.132 6 100297539.49442  24493631.961                    24493641.098
 120428015.178 7  93840095.94244  22916691.320                    22916699.414
 115460726.891 7  89969458.251 7  21971441.539                    21971448.605
 115430561.604 7  89946092.44545  21965707.016                    21965711.703
 115088729.734 7  89679608.96545  21900656.977                    21900664.934
 115740409.659 7  90187499.673 7  22024684.008                    22024691.293
 108718294.516 8  84715587.942 7  20688365.281                    20688371.926
 125043501.774 7  97436587.121 6  23794993.430                    23795001.609
 114009704.934 8  88838829.625 7  21695324.070                    21695334.059
 11  8 21  2 33 30.0000000  0  9G10G26G29G02G30G12G05G15G25
 128823878.329 6 100382367.21242  24514347.273                    24514356.227
 120339847.656 7  93771394.02844  22899913.617                    22899921.551
 115383877.903 7  89909575.961 7  21956817.648                    21956824.996
 115472106.878 7  89978465.39745  21973612.664                    21973617.863
 115127150.547 7  89709547.26945  21907968.461                    21907976.246
 115817927.057 8  90247902.820 7  22039434.938                    22039442.227
 108765371.351 8  84752271.203 7  20697323.570                    20697330.164
 124947282.958 7  97361611.513 6  23776683.492                    23776691.941
 114033515.236 8  88857383.108 7  21699855.266                    21699865.043
 11  8 21  2 34  0.0000000  0  9G10G26G29G02G30G12G05G15G25
 128932786.204 6 100467230.36042  24535072.242                    24535081.055
 120251901.734 7  93702864.79344  22883177.828                    22883186.223
 115307189.159 8  89849818.534 7  21942224.414                    21942231.680
 115513734.889 7  90010902.80745  21981534.125                    21981539.438
 115166072.779 8  89739876.28845  21915375.125                    21915382.445
 115895758.024 8  90308550.313 7  22054246.133                    22054253.051
 108812878.443 8  84789289.728 7  20706364.016                    20706370.582
 124851054.419 7  97286628.359 6  23758371.469                    23758379.844
 114057858.642 8  88876352.005 7  21704487.945                    21704497.270
 11  8 21  2 34 30.0000000  0 10G10G26G29G02G30G12G05G15G25G21
 129041737.331 6 100552127.40342  24555804.594                    24555813.406
 120164181.026 7  93634511.06044  22866484.734                    22866493.230
 115230663.281 8  89790188.018 7  21927661.602                    21927669.383
 115555445.402 7  90043404.51145  21989471.758                    21989476.633
 115205493.966 7  89770594.10245  21922876.844                    21922884.410
 115973899.617 8  90369439.856 7  22069115.938                    22069122.883
 108860813.558 8  84826641.773 7  20715485.508                    20715492.223
 124754818.829 6  97211639.699 6  23740058.305                    23740066.984
 114082733.480 8  88895734.994 7  21709221.242                    21709230.871
 132318202.97916 103105152.09552  25179324.844                    25179332.449
 11  8 21  2 35  0.0000000  0 10G10G26G29G02G30G12G05G15G25G21
 129150729.661 6 100637056.46342  24576545.727                    24576554.020
 120076689.567 7  93566335.94944  22849835.953                    22849844.496
 115154302.583 8  89730686.218 7  21913130.773                    21913138.633
 115597239.248 7  90075971.14045  21997424.844                    21997429.805
 115245412.198 7  89801699.22545  21930472.695                    21930480.535
 116052348.811 8  90430569.085 7  22084044.102                    22084050.859
 108909174.858 8  84864325.913 8  20724688.313                    20724695.461
 124658579.349 6  97136648.008 6  23721744.750                    23721752.801
 114108138.482 8  88915531.105 7  21714055.703                    21714065.344
 132262339.734 6 103061622.45342  25168693.844                    25168703.059
 11  8 21  2 35 30.0000000  0  9G26G29G02G30G12G05G15G25G21
 119989431.928 7  93498343.04744  22833231.461                    22833239.688
 115078109.749 7  89671315.212 7  21898631.594                    21898639.086
 115639117.437 7  90108603.50245  22005393.992                    22005399.070
 115285826.033 7  89833190.52745  21938163.656                    21938171.031
 116131103.787 8  90491936.586 7  22099030.680                    22099037.660
 108957961.149 8  84902341.220 8  20733972.578                    20733978.852
 124562339.684 6  97061656.187 6  23703430.727                    23703438.758
 114134073.038 8  88935739.839 7  21718990.898                    21719000.621
 132206485.262 6 103018099.56942  25158065.094                    25158073.902
 11  8 21  2 36  0.0000000  0  9G26G29G02G30G12G05G15G25G21
 119902410.785 7  93430534.42844  22816672.109                    22816679.883
 115002086.225 7  89612076.140 7  21884164.773                    21884172.359
 115681078.944 7  90141300.78445  22013378.523                    22013383.926
 115326732.199 7  89865065.45945  21945947.281                    21945955.211
 116210160.383 7  90553539.119 7  22114074.398                    22114082.129
 109007168.913 8  84940684.937 7  20743336.117                    20743342.613
 124466101.558 6  96986665.545 6  23685117.180                    23685124.797
 114160534.437 8  88956359.109 7  21724026.133                    21724035.781
 132150638.128 6 102974582.46642  25147437.211                    25147446.344
 11  8 21  2 36 30.0000000  0  9G26G29G02G30G12G05G15G25G21
 119815629.509 7  93362912.71744  22800157.766                    22800166.281
 114926234.571 7  89552970.986 7  21869730.563                    21869738.258
 115723123.852 7  90174063.04745  22021379.438                    22021385.016
 115368128.402 7  89897322.23745  21953824.820                    21953832.359
 116289515.767 8  90615374.472 7  22129175.555                    22129182.852
 109056795.946 8  84979355.358 8  20752779.898                    20752786.680
 124369868.039 6  96911678.477 5  23666804.000                    23666812.016
 114187521.145 8  88977387.713 7  21729161.672                    21729171.742
 132094797.461 6 102931070.43042  25136810.547                    25136820.406
 11  8 21  2 37  0.0000000  0  9G26G29G02G30G12G05G15G25G21
 119729091.970 7  93295480.94144  22783690.273                    22783698.539
 114850556.712 7  89494001.272 7  21855329.672                    21855337.039
 115765252.508 7  90206890.56145  22029396.320                    22029401.414
 115410012.229 7  89929958.98145  21961795.273                    21961803.297
 116369167.166 7  90677440.479 7  22144332.445                    22144339.840
 109106839.730 8  85018350.526 7  20762303.234                    20762309.563
 124273641.786 7  96836697.043 6  23648493.539                    23648500.547
 114215031.468 8  88998824.323 7  21734396.852                    21734406.367
 132038962.501 6 102887562.74042  25126185.859                    25126195.520
 11  8 21  2 37 30.0000000  0  9G26G29G02G30G12G05G15G25G21
 119642801.937 7  93228242.02644  22767269.922                    22767278.191
 114775054.890 7  89435168.729 7  21840962.156                    21840969.457
 115807464.939 7  90239783.36345  22037429.383                    22037434.617
 115452381.477 7  89962973.96645  21969857.852                    21969865.402
 116449111.390 7  90739734.660 7  22159545.453                    22159552.684
 109157298.357 8  85057668.935 7  20771904.547                    20771911.094
 124177426.137 7  96761723.888 6  23630183.656                    23630191.703
 114243063.796 8  89020667.690 7  21739731.141                    21739741.039
 131983132.783 6 102844059.21742  25115561.766                    25115571.758
 11  8 21  2 38  0.0000000  0  9G26G29G02G30G12G05G15G25G21
 119556762.703 7  93161198.51944  22750896.758                    22750905.039
 114699731.210 7  89376474.996 7  21826628.516                    21826635.785
 115849761.034 7  90272741.36245  22045478.117                    22045483.219
 115495233.383 7  89996365.05245  21978011.977                    21978020.055
 116529344.846 7  90802254.225 7  22174813.711                    22174820.586
 109208168.998 8  85097308.402 7  20781585.219                    20781591.484
 124081223.460 7  96686760.836 6  23611876.906                    23611884.910
 114271616.163 8  89042916.296 7  21745164.438                    21745174.203
 131927307.547 6 102800559.13942  25104938.641                    25104948.273
 11  8 21  2 38 30.0000000  0  9G26G29G02G30G12G05G15G25G21
 119470977.932 7  93094353.30844  22734572.367                    22734580.590
 114624587.800 7  89317921.733 7  21812329.453                    21812336.637
 115892141.020 7  90305764.72245  22053542.719                    22053547.613
 115538565.442 7  90030130.26845  21986257.773                    21986265.766
 116609864.719 8  90864996.978 7  22190136.156                    22190143.043
 109259449.164 8  85137266.966 7  20791343.664                    20791350.145
 123985036.739 7  96611810.232 6  23593573.234                    23593581.520
 114300686.752 8  89065568.706 7  21750696.383                    21750706.086
 131871485.968 6 102757061.93442  25094316.016                    25094325.824
 11  8 21  2 39  0.0000000  0  9G26G29G02G30G12G05G15G25G21
 119385451.647 7  93027709.51144  22718297.203                    22718305.590
 114549627.109 7  89259510.848 7  21798064.578                    21798071.910
 115934605.427 7  90338853.86845  22061623.156                    22061628.484
 115582375.810 7  90064268.21645  21994595.180                    21994602.941
 116690668.750 8  90927961.170 7  22205512.750                    22205519.461
 109311137.547 8  85177543.629 7  20801179.617                    20801186.016
 123888869.313 6  96536874.668 6  23575272.977                    23575281.352
 114330274.359 8  89088623.989 7  21756326.898                    21756336.563
 131815668.255 6 102713567.71143  25083694.648                    25083703.570
 11  8 21  2 39 30.0000000  0  9G26G29G02G30G12G05G15G25G21
 119300187.287 7  92961269.79844  22702072.031                    22702080.469
 114474851.315 8  89201244.041 7  21783835.141                    21783842.426
 115977154.258 7  90372008.80145  22069720.320                    22069725.492
 115626661.607 7  90098776.61645  22003022.016                    22003030.352
 116771753.494 7  90991144.086 7  22220942.383                    22220949.313
 109363231.096 8  85218136.001 8  20811092.828                    20811099.246
 123792723.614 6  96461956.039 6  23556977.594                    23556985.461
 114360376.807 8  89112080.448 7  21762055.133                    21762064.781
 131759853.217 6 102670075.55543  25073073.391                    25073081.676
 11  8 21  2 40  0.0000000  0  9G26G29G02G30G12G05G15G25G21
 119215188.720 7  92895037.19444  22685897.320                    22685905.410
 114400262.735 8  89143123.114 7  21769641.297                    21769648.730
 116019787.673 7  90405229.64145  22077833.133                    22077838.285
 115671420.682 7  90133653.80045  22011539.602                    22011547.617
 116853115.985 7  91054543.434 7  22236425.195                    22236432.004
 109415727.756 8  85259042.481 7  20821082.117                    20821088.848
 123696602.787 7  96387056.797 6  23538685.586                    23538694.492
 114390992.607 8  89135936.917 7  21767880.891                    21767890.746
 131704040.628 6 102626585.33643  25062452.961                    25062461.258
 11  8 21  2 40 30.0000000  0  9G26G29G02G30G12G05G15G25G21
 119130459.617 7  92829014.56744  22669774.398                    22669782.160
 114325863.747 8  89085149.926 7  21755483.648                    21755490.977
 116062506.100 7  90438516.71645  22085961.695                    22085967.070
 115716650.576 8  90168897.86545  22020146.625                    22020154.012
 116934753.469 7  91118157.048 7  22251960.078                    22251967.438
 109468625.310 8  85300261.358 7  20831148.266                    20831155.188
 123600509.755 7  96312179.204 6  23520399.695                    23520407.863
 114422119.993 8  89160192.031 7  21773804.516                    21773814.078
 131648229.748 6 102583096.41543  25051831.875                    25051841.043
 11  8 21  2 41  0.0000000  0  9G26G29G02G30G12G05G15G25G21
 119046003.923 7  92763204.98844  22653702.727                    22653710.648
 114251656.868 8  89027326.424 7  21741362.359                    21741370.152
 116105309.504 7  90471870.02045  22094107.102                    22094112.012
 115762349.099 7  90204507.09045  22028842.719                    22028850.363
 117016662.795 7  91181982.480 7  22267546.867                    22267553.891
 109521921.747 8  85341791.049 7  20841290.039                    20841297.422
 123504448.050 7  96237326.007 6  23502119.742                    23502127.633
 114453757.421 8  89184844.583 7  21779824.719                    21779834.500
 131592420.129 6 102539608.50043  25041211.930                    25041220.746
 11  8 21  2 41 30.0000000  0  9G26G29G02G30G12G05G15G25G21
 118961824.623 7  92697610.77444  22637683.625                    22637691.848
 114177643.805 8  88969653.951 7  21727278.734                    21727285.988
 116148197.889 7  90505289.53145  22102268.742                    22102273.801
 115808513.054 7  90240479.00245  22037627.648                    22037635.156
 117098840.520 7  91246017.051 7  22283184.953                    22283192.535
 109575613.680 8  85383628.917 8  20851507.469                    20851514.328
 123408419.755 7  96162498.832 6  23483846.438                    23483854.230
 114485902.292 8  89209892.540 7  21785942.016                    21785951.695
 131536610.769 6 102496120.77143  25030591.688                    25030599.832
 11  8 21  2 42  0.0000000  0  9G26G29G02G30G12G05G15G25G21
 118877925.744 7  92632235.07344  22621718.648                    22621726.313
 114103826.633 8  88912134.120 7  21713231.508                    21713238.934
 116191171.868 7  90538775.74645  22110445.992                    22110451.469
 115855140.124 8  90276811.78045  22046500.297                    22046507.680
 117181284.039 7  91310258.745 7  22298873.703                    22298880.781
 109629699.218 8  85425773.489 7  20861799.773                    20861806.676
 123312428.164 7  96087700.245 6  23465579.797                    23465587.566
 114518553.093 8  89235334.719 7  21792154.766                    21792164.465
 131480801.231 6 102452632.89043  25019970.633                    25019980.371
 11  8 21  2 42 30.0000000  0  9G26G29G02G30G12G05G15G25G21
 118794310.889 7  92567080.67844  22605807.336                    22605814.773
 114030208.017 8  88854769.004 7  21699222.039                    21699229.336
 116234231.374 7  90572328.60845  22118640.586                    22118645.570
 115902227.839 8  90313503.50345  22055461.039                    22055468.445
 117263990.096 7  91374705.011 7  22314612.188                    22314618.742
 109684176.297 8  85468223.155 7  20872166.586                    20872173.281
 123216476.370 7  96012932.680 6  23447320.359                    23447328.430
 114551707.910 8  89261169.652 7  21798464.125                    21798474.125
 131424991.270 6 102409144.70543  25009350.750                    25009359.137
 11  8 21  2 43  0.0000000  0  9G26G29G02G30G12G05G15G25G21
 118710984.189 7  92502150.82044  22589949.867                    22589958.305
 113956790.652 8  88797560.708 7  21685251.359                    21685258.465
 116277377.109 7  90605948.66545  22126850.781                    22126855.430
 115949774.044 7  90350552.49545  22064508.617                    22064515.945
 117346956.083 7  91439353.826 7  22330399.984                    22330406.934
 109739043.031 8  85510976.453 7  20882607.367                    20882613.766
 123120567.459 6  95938198.554 6  23429068.969                    23429077.539
 114585365.236 8  89287396.137 7  21804869.102                    21804878.926
 131369180.282 6 102365655.71243  24998729.695                    24998738.570
 11  8 21  2 43 30.0000000  0  9G26G29G02G30G12G05G15G25G21
 118627948.552 7  92437447.77344  22574149.125                    22574156.813
 113883576.061 8  88740510.409 7  21671319.000                    21671326.320
 116320608.826 7  90639635.71745  22135077.211                    22135082.469
 115997775.556 7  90387956.27445  22073643.148                    22073650.211
 117430178.287 7  91504202.286 7  22346236.141                    22346243.930
 109794295.720 7  85554030.500 7  20893121.594                    20893128.371
 123024703.874 6  95863499.749 6  23410826.789                    23410835.078
 114619522.584 8  89314012.249 7  21811369.102                    21811378.715
 131313367.253 6 102322165.13043  24988108.766                    24988117.980
 11  8 21  2 44  0.0000000  0  9G26G29G02G30G12G05G15G25G21
 118545208.429 7  92372974.98545  22558404.430                    22558411.906
 113810567.233 8  88683620.445 7  21657426.133                    21657433.398
 116363927.263 7  90673390.34245  22143320.508                    22143325.789
 116046230.426 7  90425713.31445  22082863.539                    22082870.926
 117513654.414 7  91569248.605 7  22362121.469                    22362128.625
 109849933.060 8  85597384.267 8  20903708.742                    20903715.625
 122928889.102 6  95788839.005 6  23392593.875                    23392602.137
 114654178.511 8  89341016.863 7  21817963.406                    21817973.422
 131257551.869 6 102278672.67042  24977487.625                    24977496.703
 11  8 21  2 44 30.0000000  0  9G26G29G02G30G12G05G15G25G21
 118462766.811 7  92308734.81144  22542716.367                    22542723.895
 113737766.102 8  88626892.319 7  21643572.391                    21643579.609
 116407332.221 8  90707212.38045  22151580.195                    22151585.230
 116095135.567 7  90463821.20845  22092169.414                    22092177.590
 117597381.420 7  91634490.407 7  22378053.852                    22378061.500
 109905952.311 8  85641035.631 7  20914369.242                    20914376.094
 122833125.861 7  95714218.387 6  23374370.797                    23374378.820
 114689330.745 8  89368408.203 7  21824652.969                    21824662.391
 131201733.684 6 102235178.05142  24966865.414                    24966874.809
 11  8 21  2 45  0.0000000  0  9G26G29G02G30G12G05G15G25G21
 118380628.128 7  92244730.68544  22527085.453                    22527093.363
 113665175.126 8  88570327.953 7  21629758.492                    21629765.859
 116450824.068 8  90741102.13045  22159856.516                    22159861.410
 116144488.911 7  90502278.34945  22101560.898                    22101568.855
 117681355.864 7  91699925.021 7  22394033.828                    22394040.375
 109962351.203 8  85684982.828 7  20925101.258                    20925108.125
 122737417.298 7  95639640.378 6  23356158.547                    23356166.023
 114724977.664 8  89396185.022 7  21831436.250                    21831445.805
 131145912.082 6 102191680.89142  24956242.656                    24956252.320
 11  8 21  2 45 30.0000000  0  9G26G29G02G30G12G05G15G25G21
 118298795.452 7  92180965.00844  22511513.266                    22511521.207
 113592796.422 8  88513928.991 7  21615985.281                    21615992.520
 116494403.215 7  90775059.90245  22168148.984                    22168154.313
 116194287.329 7  90541082.29845  22111037.875                    22111045.563
 117765574.441 7  91765549.876 7  22410060.250                    22410067.570
 110019127.345 8  85729223.984 7  20935905.648                    20935912.094
 122641766.329 7  95565107.232 6  23337956.609                    23337964.520
 114761116.938 8  89424345.482 7  21838313.516                    21838323.488
 131090086.194 6 102148180.21842  24945620.391                    24945628.543
 11  8 21  2 46  0.0000000  0  9G26G29G02G30G12G05G15G25G21
 118217272.196 7  92117440.43645  22496000.406                    22496007.832
 113520632.051 8  88457697.039 7  21602252.914                    21602260.109
 116538069.433 7  90809085.52145  22176459.070                    22176463.719
 116244528.018 7  90580230.87245  22120598.188                    22120606.379
 117850033.887 7  91831362.418 7  22426132.648                    22426139.617
 110076277.992 8  85773756.960 7  20946781.023                    20946787.449
 122546175.660 7  95490621.058 6  23319766.234                    23319773.656
 114797746.232 8  89452887.775 7  21845283.953                    21845293.387
 131034255.639 6 102104675.97042  24934995.398                    24935004.141
 11  8 21  2 46 30.0000000  0  9G26G29G02G30G12G05G15G25G21
 118136062.114 7  92054159.89244  22480545.914                    22480553.777
 113448684.883 8  88401634.343 7  21588561.930                    21588569.043
 116581823.270 7  90843179.40645  22184784.773                    22184789.855
 116295208.695 7  90619722.29645  22130242.617                    22130250.809
 117934731.791 7  91897360.777 7  22442250.023                    22442257.352
 110133800.890 7  85818579.995 7  20957727.125                    20957733.805
 122450648.702 7  95416184.530 6  23301588.039                    23301595.305
 114834863.991 8  89481810.688 7  21852347.367                    21852356.914
 130978419.886 6 102061167.69143  24924370.297                    24924379.105
 11  8 21  2 47  0.0000000  0  9G26G29G02G30G12G05G15G25G21
 118055169.208 7  91991126.49444  22465152.867                    22465160.492
 113376957.032 8  88345742.544 7  21574912.625                    21574919.539
 116625664.951 7  90877341.75945  22193127.695                    22193133.027
 116346326.601 7  90659554.43145  22139969.945                    22139978.074
 118019665.385 7  91963542.781 7  22458412.406                    22458419.797
 110191693.649 8  85863691.244 7  20968743.625                    20968750.355
 122355188.422 7  95341799.962 6  23283422.531                    23283430.051
 114872467.989 8  89511112.482 7  21859503.008                    21859512.563
 130922578.096 6 102017654.73342  24913743.727                    24913752.152
 11  8 21  2 47 30.0000000  0  9G26G29G02G30G12G05G15G25G21
 117974597.108 7  91928343.09544  22449819.930                    22449828.121
 113305450.820 8  88290023.446 7  21561305.430                    21561312.309
 116669594.810 7  90911572.81945  22201487.242                    22201492.469
 116397879.048 7  90699725.16245  22149780.188                    22149787.813
 118104831.114 7  92029905.667 7  22474618.641                    22474626.324
 110249953.943 8  85909088.874 7  20979830.211                    20979837.141
 122259797.566 7  95267469.507 6  23265270.086                    23265277.684
 114910556.189 8  89540791.582 7  21866750.867                    21866760.195
 130866729.913 6 101974136.75243  24903116.000                    24903124.922
 11  8 21  2 48  0.0000000  0  9G26G29G02G30G12G05G15G25G21
 117894349.086 7  91865812.20545  22434549.492                    22434557.117
 113234168.262 8  88234478.626 7  21547740.688                    21547747.844
 116713612.887 7  90945872.61245  22209863.625                    22209869.008
 116449863.261 7  90740232.33645  22159672.359                    22159680.594
 118190225.923 7  92096447.054 7  22490868.875                    22490876.316
 110308579.116 8  85954770.833 7  20990986.383                    20990992.766
 122164478.981 7  95193195.363 6  23247131.813                    23247139.363
 114949126.410 8  89570846.283 7  21874090.703                    21874100.266
 130810874.951 6 101930613.50743  24892487.297                    24892496.508
 11  8 21  2 48 30.0000000  0  9G26G29G02G30G12G05G15G25G21
 117814429.318 7  91803537.10945  22419341.438                    22419348.887
 113163112.264 8  88179110.347 7  21534218.969                    21534226.422
 116757719.942 7  90980241.74445  22218256.430                    22218262.254
 116502276.828 7  90781074.07445  22169646.227                    22169654.258
 118275846.972 7  92163164.723 7  22507161.883                    22507169.500
 110367567.137 8  86000735.523 7  21002211.352                    21002218.156
 122069236.426 7  95118980.460 6  23229007.586                    23229015.250
 114988176.852 8  89601275.185 7  21881521.844                    21881531.207
 130755012.367 6 101887084.32243  24881857.063                    24881865.715
 11  8 21  2 49  0.0000000  0  9G26G29G02G30G12G05G15G25G21
 117734841.112 7  91741520.36645  22404196.086                    22404203.988
 113092284.807 8  88123920.163 7  21520741.094                    21520748.027
 116801916.120 7  91014680.32745  22226667.117                    22226672.383
 116555116.798 7  90822248.07245  22179701.367                    22179709.039
 118361690.921 7  92230056.099 7  22523497.328                    22523504.938
 110426915.788 8  86046981.226 7  21013505.031                    21013511.508
 121974072.879 7  95044827.129 7  23210898.414                    23210906.410
 115027705.153 8  89632076.445 7  21889043.789                    21889053.328
 130699141.664 6 101843548.84343  24871225.508                    24871233.684
 11  8 21  2 49 30.0000000  0  9G26G29G02G30G12G05G15G25G21
 117655587.627 7  91679764.46045  22389115.164                    22389122.691
 113021687.758 8  88068909.513 7  21507306.617                    21507314.219
 116846201.105 7  91049188.10045  22235094.227                    22235099.555
 116608379.984 7  90863751.85645  22189836.898                    22189844.785
 118447754.532 7  92297118.636 7  22539874.852                    22539881.934
 110486621.692 8  86093505.302 7  21024866.805                    21024873.418
 121878990.527 7  94970737.056 6  23192803.844                    23192812.113
 115067708.733 8  89663248.054 7  21896656.078                    21896665.699
 130643262.234 6 101800006.56043  24860590.906                    24860600.316
 11  8 21  2 50  0.0000000  0  9G26G29G02G30G12G05G15G25G21
 117576673.172 7  91618272.71545  22374097.359                    22374105.676
 112951324.275 8  88014080.858 7  21493916.891                    21493924.590
 116890575.916 7  91083765.86145  22243538.523                    22243543.945
 116662064.168 7  90905583.68545  22200052.539                    22200060.836
 118534035.068 7  92364350.212 7  22556293.766                    22556300.746
 110546682.993 8  86140306.316 7  21036296.156                    21036302.746
 121783992.979 7  94896713.065 6  23174726.484                    23174735.289
 115108185.911 8  89694788.698 7  21904358.539                    21904368.277
 130587373.486 6 101756456.98943  24849956.539                    24849964.938
 11  8 21  2 50 30.0000000  0  9G26G29G02G30G12G05G15G25G21
 117498101.140 7  91557047.81445  22359146.414                    22359153.688
 112881196.516 8  87959435.894 7  21480572.047                    21480579.426
 116935040.757 7  91118413.78945  22251999.609                    22252005.043
 116716166.650 7  90947741.45545  22210347.875                    22210355.832
 118620529.367 7  92431748.349 7  22572753.281                    22572760.129
 110607097.442 8  86187382.499 7  21047792.625                    21047799.059
 121689083.475 7  94822757.684 6  23156665.664                    23156673.836
 115149134.547 8  89726696.721 7  21912150.781                    21912160.590
 130531474.910 6 101712899.80643  24839318.703                    24839327.418
 11  8 21  2 51  0.0000000  0  9G26G29G02G30G12G05G15G25G21
 117419875.549 7  91496092.83945  22344259.984                    22344268.340
 112811306.934 8  87904976.522 7  21467272.781                    21467279.664
 116979595.859 7  91153132.05745  22260478.398                    22260483.840
 116770684.725 7  90990223.07345  22220722.383                    22220730.445
 118707234.807 7  92499311.020 7  22589252.828                    22589259.738
 110667862.733 8  86234732.070 7  21059355.852                    21059362.551
 121594264.889 7  94748873.141 6  23138622.797                    23138630.836
 115190552.573 8  89758970.483 7  21920032.586                    21920042.148
 130475566.384 6 101669334.86943  24828679.836                    24828688.059
 11  8 21  2 51 30.0000000  0  9G26G29G02G30G12G05G15G25G21
 117341999.655 7  91435410.37245  22329441.078                    22329448.285
 112741657.751 8  87850704.470 7  21454018.648                    21454025.773
 117024241.450 7  91187920.83045  22268974.469                    22268979.563
 116825615.386 7  91033026.18945  22231175.273                    22231183.223
 118794147.887 7  92567035.482 7  22605791.320                    22605798.422
 110728975.933 8  86282352.736 7  21070985.125                    21070991.914
 121499539.974 7  94675061.566 6  23120597.383                    23120605.195
 115232437.460 8  89791608.049 7  21928002.500                    21928012.809
 130419646.941 6 101625761.42143  24818039.133                    24818047.430
 11  8 21  2 52  0.0000000  0  9G26G29G02G30G12G05G15G25G21
 117264476.680 7  91375002.90145  22314688.000                    22314696.090
 112672250.732 8  87796621.130 7  21440810.938                    21440818.266
 117068977.551 7  91222780.13045  22277487.180                    22277492.664
 116880955.471 7  91076148.32745  22241705.961                    22241713.770
 118881265.115 7  92634919.010 7  22622369.625                    22622376.977
 110790434.503 8  86330242.527 7  21082680.414                    21082686.887
 121404911.834 7  94601325.394 6  23102590.188                    23102598.258
 115274786.751 7  89824607.485 7  21936061.898                    21936071.441
 130363716.034 6 101582179.00343  24807395.797                    24807403.270
 11  8 21  2 52 30.0000000  0  9G26G29G02G30G12G05G15G25G21
 117187310.491 7  91314873.46045  22300004.461                    22300012.070
 112603088.627 8  87742728.625 7  21427649.867                    21427656.984
 117113804.786 7  91257710.44045  22286017.953                    22286022.660
 116936702.429 7  91119587.51045  22252314.531                    22252321.973
 118968584.040 7  92702959.715 7  22638985.750                    22638993.434
 110852236.060 8  86378399.576 7  21094441.008                    21094447.617
 121310383.756 7  94527667.204 6  23084602.063                    23084609.691
 115317598.311 8  89857967.134 7  21944208.344                    21944218.203
 130307772.920 6 101538587.11043  24796749.500                    24796757.754
 11  8 21  2 53  0.0000000  0  9G26G29G02G30G12G05G15G25G21
 117110505.117 7  91255025.16045  22285388.609                    22285396.660
 112534174.546 8  87689029.388 7  21414536.008                    21414542.941
 117158723.688 7  91292712.17945  22294565.016                    22294570.512
 116992853.940 7  91163341.93545  22263000.078                    22263007.547
 119056101.735 7  92771155.289 7  22655640.047                    22655646.988
 110914378.830 8  86426822.508 7  21106266.531                    21106273.230
 121215959.215 7  94454089.693 6  23066633.711                    23066641.543
 115360870.420 8  89891685.653 7  21952442.898                    21952452.371
 130251817.505 6 101494985.63243  24786101.258                    24786109.840
 11  8 21  2 53 30.0000000  0  9G26G29G02G30G12G05G15G25G21
 117034063.418 7  91195460.24345  22270841.914                    22270850.176
 112465509.797 8  87635524.439 7  21401469.445                    21401476.867
 117203733.971 7  91327785.12945  22303130.477                    22303135.609
 117049406.183 7  91207408.60945  22273761.750                    22273769.324
 119143814.196 7  92839502.650 7  22672330.961                    22672338.258
 110976859.319 8  86475508.596 7  21118156.008                    21118162.602
 121121640.383 7  94380594.541 6  23048685.258                    23048692.910
 115404599.757 8  89925760.461 7  21960764.344                    21960774.051
 130195848.914 6 101451373.87743  24775450.742                    24775458.902
 11  8 21  2 54  0.0000000  0  9G26G29G02G30G12G05G15G25G21
 116957989.726 7  91136182.09045  22256365.758                    22256373.359
 112397097.355 8  87582216.081 7  21388450.641                    21388458.059
 117248836.636 7  91362930.06045  22311713.086                    22311718.430
 117106357.157 7  91251785.99545  22284598.727                    22284607.094
 119231719.238 7  92908000.061 7  22689058.914                    22689065.742
 111039675.924 8  86524456.587 7  21130109.453                    21130115.992
 121027430.913 7  94307184.586 6  23030757.719                    23030765.035
 115448784.956 8  89960190.484 7  21969172.500                    21969182.117
 130139866.777 6 101407751.53043  24764797.648                    24764805.520
 11  8 21  2 54 30.0000000  0  9G26G29G02G30G12G05G15G25G21
 116882287.098 7  91077193.08045  22241960.086                    22241967.547
 112328939.221 8  87529105.890 7  21375480.789                    21375488.090
 117294031.825 7  91398147.08445  22320313.672                    22320318.824
 117163703.597 7  91296471.52345  22295511.695                    22295519.914
 119319813.384 7  92976644.835 7  22705822.492                    22705829.770
 111102825.948 8  86573664.390 7  21142126.695                    21142133.457
 120933333.688 7  94233862.104 6  23012851.766                    23012859.414
 115493423.244 8  89994973.567 7  21977666.891                    21977676.355
 130083870.423 7 101364118.14943  24754141.828                    24754149.594
 11  8 21  2 55  0.0000000  0  9G26G29G02G30G12G05G15G25G21
 116806959.309 7  91018496.14645  22227625.766                    22227633.363
 112261038.075 8  87476195.940 7  21362559.602                    21362566.828
 117339319.830 7  91433436.43145  22328931.406                    22328936.637
 117221442.787 7  91341463.08745  22306499.102                    22306506.691
 119408093.608 7  93045434.601 7  22722621.797                    22722629.301
 111166306.884 8  86623130.049 7  21154206.656                    21154213.059
 120839351.883 7  94160629.556 6  22994967.773                    22994975.203
 115538512.393 8  90030107.982 7  21986246.992                    21986256.418
 130027859.436 7 101320473.32943  24743483.828                    24743491.094
 11  8 21  2 55 30.0000000  0  9G26G29G02G30G12G05G15G25G21
 116732009.664 7  90960093.88545  22213363.273                    22213370.832
 112193396.457 8  87423488.222 7  21349688.148                    21349695.098
 117384700.915 7  91468798.31045  22337567.039                    22337572.430
 117279571.592 7  91386758.25245  22317560.602                    22317568.754
 119496556.991 7  93114367.094 7  22739455.453                    22739463.035
 111230116.125 8  86672851.525 7  21166348.828                    21166356.109
 120745488.742 7  94087489.489 6  22977105.656                    22977113.418
 115584049.955 8  90065591.801 7  21994912.617                    21994922.074
 129971833.365 6 101276816.77443  24732822.031                    24732829.734
 11  8 21  2 56  0.0000000  0 10G18G26G29G02G30G12G05G15G25G21
 129723271.43716 101083147.34053  24685528.492                    24685537.086
 116657441.885 7  90901989.16345  22199173.313                    22199180.879
 112126015.973 8  87370983.983 7  21336865.719                    21336873.246
 117430175.260 7  91504232.87645  22346220.641                    22346226.273
 117338087.381 7  91432354.96145  22328695.750                    22328703.801
 119585200.305 7  93183439.782 7  22756323.969                    22756331.148
 111294251.103 8  86722826.824 7  21178553.742                    21178560.449
 120651747.118 7  94014444.115 6  22959267.953                    22959275.238
 115630033.517 8  90101423.164 7  22003663.180                    22003672.281
 129915791.504 6 101233147.90143  24722157.352                    24722165.070
 11  8 21  2 56 30.0000000  0 10G18G26G29G02G30G12G05G15G25G21
 129633782.613 6 101013415.93643  24668499.281                    24668508.172
 116583259.616 7  90844184.84845  22185056.758                    22185064.367
 112058899.445 8  87318685.419 7  21324093.930                    21324100.977
 117475743.613 7  91539740.67545  22354892.484                    22354897.227
 117396987.104 7  91478250.82145  22339904.086                    22339911.926
 119674020.483 7  93252650.292 7  22773225.594                    22773232.805
 111358709.900 8  86773054.457 7  21190819.672                    21190826.492
 120558130.065 7  93941495.819 6  22941452.758                    22941460.180
 115676460.784 8  90137600.264 7  22012497.789                    22012507.355
 129859733.429 6 101189466.42843  24711490.391                    24711497.578
 11  8 21  2 57  0.0000000  0 10G18G26G29G02G30G12G05G15G25G21
 129544458.337 6 100943812.78242  24651500.828                    24651509.922
 116509466.056 7  90786683.41345  22171014.844                    22171021.898
 111992049.158 8  87266594.322 7  21311372.539                    21311379.863
 117521405.990 7  91575321.75145  22363581.359                    22363586.637
 117456267.777 7  91524443.54645  22351184.555                    22351192.902
 119763014.306 7  93321996.110 7  22790160.953                    22790168.035
 111423489.614 8  86823532.147 7  21203146.844                    21203153.473
 120464640.632 7  93868646.972 6  22923662.313                    22923669.680
 115723329.145 8  90174121.056 7  22021416.281                    22021426.168
 129803658.646 6 101145771.93543  24700818.406                    24700826.605
 11  8 21  2 57 30.0000000  0 10G18G26G29G02G30G12G05G15G25G21
 129455299.743 6 100874338.67942  24634534.977                    24634543.836
 116436064.938 7  90729487.77245  22157046.414                    22157054.063
 111925467.531 8  87214712.558 7  21298702.703                    21298709.945
 117567162.984 7  91610976.54245  22372288.500                    22372293.918
 117515926.514 7  91570930.85445  22362537.563                    22362545.066
 119852178.826 7  93391474.937 6  22807128.188                    22807136.031
 111488587.641 8  86874257.889 7  21215534.500                    21215541.520
 120371281.978 7  93795900.028 6  22905896.422                    22905904.512
 115770636.340 8  90210983.802 7  22030418.555                    22030428.410
 129747566.480 6 101102063.91443  24690144.547                    24690152.719
 11  8 21  2 58  0.0000000  0 10G18G26G29G02G30G12G05G15G25G21
 129366308.445 6 100804994.91242  24617600.203                    24617608.793
 116363059.948 7  90672600.81045  22143154.039                    22143161.891
 111859157.058 8  87163042.087 7  21286083.805                    21286091.477
 117613014.906 7  91646705.32045  22381013.797                    22381019.262
 117575960.474 7  91617710.54945  22373962.289                    22373969.438
 119941511.306 7  93461084.634 7  22824128.063                    22824135.445
 111554001.855 8  86925230.001 7  21227982.438                    21227988.875
 120278057.363 7  93723257.515 6  22888156.555                    22888163.891
 115818379.918 8  90248186.584 7  22039503.969                    22039513.879
 129691456.549 6 101058342.05643  24679467.398                    24679475.020
 11  8 21  2 58 30.0000000  0 10G18G26G29G02G30G12G05G15G25G21
 129277485.759 6 100735782.53442  24600698.492                    24600706.426
 116290454.459 7  90616025.14545  22129337.703                    22129345.570
 111793120.394 8  87111584.971 7  21273517.898                    21273524.621
 117658962.201 7  91682508.40245  22389757.258                    22389762.797
 117636366.777 7  91664780.39045  22385456.680                    22385464.172
 120031008.223 7  93530822.483 7  22841158.305                    22841165.277
 111619729.759 8  86976446.545 7  21240490.156                    21240496.957
 120184970.119 7  93650722.038 6  22870442.063                    22870450.105
 115866557.578 7  90285727.614 7  22048671.742                    22048681.555
 129635328.320 6 101014605.92743  24668786.063                    24668793.496
 11  8 21  2 59  0.0000000  0 10G18G26G29G02G30G12G05G15G25G21
 129188832.673 6 100666702.36842  24583827.555                    24583836.156
 116218252.155 7  90559763.64245  22115598.211                    22115605.422
 111727359.556 8  87060342.785 7  21261003.719                    21261011.078
 117705005.036 7  91718385.94645  22398519.281                    22398524.402
 117697142.371 7  91712137.97945  22397021.984                    22397029.398
 120120666.486 7  93600686.042 6  22858219.891                    22858227.113
 111685768.844 8  87027905.570 7  21253056.836                    21253063.570
 120092022.909 7  93578295.689 6  22852755.258                    22852762.805
 115915166.664 8  90323604.814 7  22057921.781                    22057931.855
 129579181.420 6 100970855.22743  24658101.695                    24658109.746
 11  8 21  2 59 30.0000000  0 10G18G26G29G02G30G12G05G15G25G21
 129100350.652 5 100597755.51542  24566989.852                    24566998.273
 116146456.415 7  90503818.95445  22101936.008                    22101943.359
 111661877.205 8  87009317.597 7  21248542.609                    21248549.766
 117751144.209 7  91754338.54345  22407299.336                    22407304.852
 117758284.430 7  91759781.13345  22408656.898                    22408664.855
 120210483.343 7  93670673.183 6  22875311.078                    22875318.594
 111752116.841 8  87079605.308 7  21265682.492                    21265689.250
 119999218.784 7  93505980.843 7  22835094.883                    22835102.691
 115964204.883 8  90361816.387 7  22067253.609                    22067263.727
 129523015.194 6 100927089.44843  24647414.180                    24647421.508
 11  8 21  3  0  0.0000000  0 10G18G26G29G02G30G12G05G15G25G21
 129012041.177 5 100528943.08242  24550184.883                    24550194.035
 116075070.697 7  90448193.75945  22088351.055                    22088359.305
 111596675.520 8  86958511.115 7  21236135.508                    21236142.570
 117797379.701 7  91790366.21845  22416097.688                    22416102.680
 117819789.878 7  91807707.44245  22420361.070                    22420368.555
 120300455.976 7  93740781.702 6  22892432.406                    22892440.133
 111818770.896 8  87131543.532 7  21278366.406                    21278372.777
 119906561.290 7  93433780.248 7  22817462.563                    22817470.012
 116013669.608 8  90400360.324 7  22076666.602                    22076676.379
 129466829.116 6 100883308.22443  24636721.023                    24636729.723
 11  8 21  3  0 30.0000000  0 10G18G26G29G02G30G12G05G15G25G21
 128923905.160 5 100460265.87242  24533412.406                    24533422.473
 116004098.549 7  90392890.81745  22074845.992                    22074853.543
 111531756.939 7  86907925.229 7  21223781.695                    21223788.777
 117843712.104 7  91826469.40245  22424914.422                    22424918.914
 117881655.808 7  91855914.65445  22432133.609                    22432141.031
 120390580.806 7  93811008.809 6  22909582.742                    22909590.336
 111885728.940 8  87183718.631 7  21291108.305                    21291114.645
 119814053.499 7  93361696.314 6  22799859.133                    22799866.656
 116063558.447 8  90439234.737 7  22086159.797                    22086169.840
 129410622.918 6 100839511.28243  24626026.617                    24626033.719
 11  8 21  3  1  0.0000000  0 10G18G26G29G02G30G12G05G15G25G21
 128835943.888 6 100391724.77142  24516673.938                    24516683.832
 115933543.008 7  90337912.51145  22061419.383                    22061426.984
 111467123.348 8  86857561.421 7  21211482.430                    21211489.379
 117890141.640 7  91862648.27345  22433749.656                    22433754.730
 117943878.792 7  91904400.08745  22443974.289                    22443982.195
 120480854.666 7  93881352.054 6  22926761.469                    22926768.492
 111952988.087 8  87236128.370 7  21303907.023                    21303914.184
 119721697.968 7  93289731.012 7  22782283.867                    22782291.699
 116113868.338 8  90478437.246 7  22095734.063                    22095743.496
 129354395.666 6 100795697.87243  24615326.031                    24615334.559
 11  8 21  3  1 30.0000000  0 10G18G26G29G02G30G12G05G15G25G21
 128748158.500 6 100323320.66543  24499969.164                    24499977.754
 115863407.909 7  90283261.81245  22048073.078                    22048081.090
 111402777.827 8  86807422.075 7  21199237.703                    21199245.145
 117936668.793 7  91898903.21145  22442603.563                    22442608.504
 118006456.174 7  91953161.66445  22455882.188                    22455890.508
 120571274.787 7  93951809.268 6  22943968.359                    22943975.758
 112020545.899 8  87288770.829 7  21316763.164                    21316769.789
 119629498.222 7  93217887.107 6  22764739.148                    22764746.598
 116164597.212 8  90517966.243 7  22105387.289                    22105396.672
 129298147.165 6 100751867.95043  24604622.109                    24604629.945
 11  8 21  3  2  0.0000000  0 10G18G26G29G02G30G12G05G15G25G21
 128660550.303 6 100255054.65943  24483297.820                    24483306.477
 115793696.675 7  90228941.40345  22034807.664                    22034815.539
 111338722.359 8  86757508.749 7  21187048.484                    21187055.535
 117983293.843 7  91935234.42745  22451475.727                    22451480.543
 118069384.806 7  92002196.95245  22467856.852                    22467864.973
 120661837.830 7  94022377.850 6  22961201.703                    22961208.668
 112088399.939 8  87341644.117 7  21329675.211                    21329682.020
 119537457.363 7  93146167.003 6  22747224.578                    22747231.984
 116215742.299 8  90557819.557 7  22115119.703                    22115129.168
 129241876.794 6 100708020.97543  24593914.859                    24593922.219
 11  8 21  3  2 30.0000000  0 10G18G26G29G02G30G12G05G15G25G21
 128573120.613 6 100186927.74743  24466660.344                    24466668.664
 115724412.439 7  90174953.72145  22021623.227                    22021631.105
 111274959.419 8  86707823.374 7  21174914.281                    21174921.688
 118030017.177 7  91971642.21945  22460366.867                    22460372.176
 118132661.607 7  92051503.53645  22479898.148                    22479906.086
 120752540.615 7  94093055.331 6  22978461.766                    22978469.059
 112156547.791 8  87394746.339 7  21342643.461                    21342649.895
 119445578.164 7  93074572.869 6  22729740.383                    22729747.582
 116267300.958 8  90597995.141 7  22124930.703                    22124940.301
 129185584.060 6 100664156.58843  24583201.875                    24583209.469
 11  8 21  3  3  0.0000000  0 10G18G26G29G02G30G12G05G15G25G21
 128485870.764 6 100118940.95443  24450056.828                    24450066.000
 115655558.730 7  90121301.51045  22008520.813                    22008528.645
 111211491.154 8  86658367.609 7  21162837.414                    21162844.398
 118076838.952 7  92008126.73145  22469276.516                    22469281.934
 118196283.437 7  92101078.98445  22492005.391                    22492013.258
 120843380.251 7  94163839.438 7  22995748.258                    22995755.117
 112224986.642 8  87448075.311 7  21355666.492                    21355673.410
 119353863.822 7  93003107.202 6  22712287.648                    22712295.168
 116319270.586 8  90638490.959 7  22134820.266                    22134830.176
 129129268.514 6 100620274.38343  24572485.414                    24572492.871
 11  8 21  3  3 30.0000000  0 10G18G26G29G02G30G12G05G15G25G21
 128398801.826 6 100051095.15843  24433488.859                    24433497.184
 115587139.140 7  90067987.58045  21995501.070                    21995508.387
 111148320.027 8  86609143.383 7  21150815.953                    21150823.098
 118123759.786 7  92044688.43645  22478205.445                    22478210.707
 118260247.381 7  92150921.01545  22504177.297                    22504184.996
 120934353.620 7  94234727.744 6  23013060.109                    23013067.395
 112293714.406 8  87501629.420 7  21368745.063                    21368752.090
 119262317.498 7  92931772.460 7  22694866.938                    22694874.227
 116371648.617 8  90679305.004 7  22144787.281                    22144796.988
 129072929.716 6 100576374.09743  24561764.898                    24561771.766
 11  8 21  3  4  0.0000000  0 10G18G26G29G02G30G12G05G15G25G21
 128311914.910 6  99983391.20243  24416954.195                    24416963.406
 115519156.614 7  90015014.20645  21982564.508                    21982572.230
 111085448.194 8  86560152.365 7  21138851.891                    21138858.855
 118170780.061 7  92081327.62545  22487153.320                    22487158.781
 118324550.191 7  92201027.10245  22516413.672                    22516421.090
 121025457.585 7  94305717.835 6  23030395.836                    23030403.270
 112362728.132 8  87555406.352 7  21381877.945                    21381884.602
 119170942.178 7  92860570.965 7  22677478.961                    22677486.234
 116424432.248 8  90720435.107 7  22154832.078                    22154841.898
 129016566.934 6 100532455.15143  24551038.922                    24551046.961
 11  8 21  3  4 30.0000000  0 10G18G26G29G02G30G12G05G15G25G21
 128225211.862 6  99915830.47843  24400455.891                    24400464.039
 115451614.837 7  89962384.28345  21969711.617                    21969719.191
 111022878.681 8  86511396.936 7  21126945.172                    21126952.281
 118217900.218 7  92118044.63945  22496119.531                    22496125.141
 118389189.127 7  92251395.10545  22528714.125                    22528721.578
 121116689.409 7  94376807.544 6  23047756.523                    23047763.934
 112432026.001 8  87609404.701 7  21395064.742                    21395071.379
 119079741.287 7  92789505.388 6  22660124.102                    22660130.887
 116477619.124 8  90761879.422 7  22164953.023                    22164962.871
 128960180.093 6 100488517.47243  24540308.828                    24540316.648
 11  8 21  3  5  0.0000000  0 10G18G26G29G02G30G12G05G15G25G21
 128138693.308 6  99848413.53243  24383991.195                    24383999.328
 115384517.713 8  89910100.83745  21956943.727                    21956951.164
 110960613.966 8  86462879.010 7  21115096.844                    21115103.859
 118265120.939 7  92154840.01645  22505105.867                    22505110.980
 118454161.370 7  92302022.82145  22541077.422                    22541085.406
 121208046.122 7  94447994.559 6  23065141.289                    23065148.508
 112501605.517 8  87663622.522 7  21408305.344                    21408311.625
 118988718.253 7  92718578.395 7  22642802.469                    22642810.348
 116531206.941 8  90803636.159 7  22175150.313                    22175160.313
 128903768.874 6 100444560.76543  24529574.250                    24529582.063
 11  8 21  3  5 30.0000000  0 10G18G26G29G02G30G12G05G15G25G21
 128052360.459 6  99781141.29943  24367562.781                    24367571.234
 115317868.006 8  89858166.03345  21944260.469                    21944267.898
 110898656.138 8  86414600.215 7  21103306.438                    21103313.570
 118312442.530 7  92191713.99245  22514110.625                    22514116.008
 118519463.559 7  92352907.65845  22553504.430                    22553512.371
 121299524.464 7  94519276.364 6  23082549.414                    23082556.250
 112571463.883 8  87718057.629 7  21421598.703                    21421605.648
 118897875.829 7  92647792.143 7  22625515.727                    22625523.285
 116585192.638 8  90845702.939 7  22185423.594                    22185433.383
 128847332.520 6 100400584.47143  24518834.656                    24518842.719
 11  8 21  3  6  0.0000000  0 10G18G26G29G02G30G12G05G15G25G21
 127966214.422 6  99714014.63542  24351168.852                    24351178.160
 115251669.090 8  89806582.49545  21931662.961                    21931671.059
 110837007.360 8  86366562.240 7  21091575.188                    21091582.246
 118359865.412 7  92228666.89145  22523134.664                    22523140.539
 118585092.404 7  92404047.01645  22565993.180                    22566000.816
 121391121.187 7  94590650.409 6  23099979.453                    23099986.758
 112641598.449 8  87772707.956 7  21434945.156                    21434951.793
 118807217.159 7  92577149.075 7  22608264.531                    22608271.363
 116639573.446 8  90888077.589 7  22195771.695                    22195781.770
 128790870.264 6 100356588.04043  24508090.211                    24508097.898
 11  8 21  3  6 30.0000000  0 10G18G26G29G02G30G12G05G15G25G21
 127880256.734 6  99647034.63042  24334811.711                    24334820.590
 115185924.594 7  89755353.04845  21919152.750                    21919160.293
 110775670.256 8  86318767.124 7  21079903.328                    21079909.996
 118407389.791 7  92265698.87245  22532178.641                    22532183.840
 118651045.126 7  92455438.75045  22578543.953                    22578551.227
 121482833.635 7  94662114.638 6  23117431.938                    23117439.383
 112712007.250 8  87827571.971 7  21448343.523                    21448349.938
 118716745.118 7  92506651.421 7  22591047.883                    22591055.297
 116694346.879 8  90930758.187 7  22206195.117                    22206204.914
 128734382.316 6 100312571.58043  24497340.391                    24497348.016
 11  8 21  3  7  0.0000000  0 10G18G26G29G02G30G12G05G15G25G21
 127794488.293 6  99580202.18542  24318490.938                    24318499.250
 115120637.304 7  89704479.86545  21906728.563                    21906735.898
 110714646.684 7  86271216.319 7  21068290.742                    21068297.488
 118455016.119 7  92302810.29345  22541241.047                    22541246.602
 118717318.316 7  92507080.19845  22591154.656                    22591162.637
 121574658.245 7  94733666.261 6  23134905.727                    23134912.840
 112782687.562 8  87882647.552 7  21461793.547                    21461800.102
 118626462.963 7  92436301.736 7  22573868.133                    22573875.570
 116749510.004 8  90973742.443 7  22216692.500                    22216701.992
 128677867.587 6 100268534.22643  24486586.031                    24486594.035
 11  8 21  3  7 30.0000000  0 10G18G26G29G02G30G12G05G15G25G21
 127708910.409 6  99513518.22442  24302205.773                    24302213.941
 115055811.194 7  89653966.04345  21894392.609                    21894399.734
 110653939.918 8  86223912.384 7  21056738.297                    21056745.309
 118502745.033 7  92340001.64745  22550323.914                    22550329.242
 118783909.186 7  92558969.18045  22603826.773                    22603834.316
 121666592.369 7  94805303.206 6  23152400.453                    23152407.566
 112853636.986 8  87937932.825 7  21475294.523                    21475301.148
 118536373.859 7  92366102.492 7  22556724.102                    22556731.355
 116805060.400 8  91017028.467 7  22227263.281                    22227272.910
 128621326.095 6 100224476.05643  24475826.242                    24475834.078
 11  8 21  3  8  0.0000000  0 10G18G26G29G02G30G12G05G15G25G21
 127623524.287 6  99446983.70643  24285957.383                    24285965.629
 114991449.185 7  89603813.85845  21882144.492                    21882152.391
 110593551.739 8  86176856.690 7  21045246.781                    21045253.652
 118550576.875 7  92377273.19645  22559425.672                    22559431.453
 118850814.688 7  92611103.33644  22616558.000                    22616566.309
 121758632.839 7  94877023.028 6  23169915.102                    23169922.113
 112924853.150 8  87993425.955 7  21488846.727                    21488853.539
 118446481.491 7  92296056.542 7  22539618.414                    22539625.305
 116860995.351 8  91060614.134 7  22237907.023                    22237916.656
 128564757.178 6 100180396.47943  24465061.820                    24465069.039
 11  8 21  3  8 30.0000000  0 10G18G26G29G02G30G12G05G15G25G21
 127538330.906 6  99380599.32843  24269745.516                    24269753.473
 114927554.796 7  89554026.05545  21869986.156                    21869993.719
 110533484.777 8  86130051.296 7  21033816.539                    21033823.207
 118598512.163 7  92414625.35745  22568547.750                    22568553.309
 118918031.573 7  92663480.11145  22629349.234                    22629357.484
 121850776.663 7  94948823.381 6  23187449.258                    23187456.855
 112996333.621 8  88049125.039 7  21502448.906                    21502455.430
 118356788.564 7  92226166.003 7  22522550.375                    22522557.797
 116917312.069 7  91104497.286 7  22248624.117                    22248633.391
 128508160.557 6 100136295.31143  24454291.625                    24454299.473
 11  8 21  3  9  0.0000000  0 10G18G26G29G02G30G12G05G15G25G21
 127453331.409 6  99314366.02943  24253570.695                    24253578.730
 114864130.715 7  89504604.73145  21857916.781                    21857924.332
 110473740.808 8  86083497.587 7  21022447.680                    21022454.266
 118646550.856 7  92452058.08845  22577689.164                    22577694.727
 118985556.451 7  92716096.88245  22642198.820                    22642206.789
 121943020.793 7  95020701.878 6  23205002.492                    23205010.480
 113068075.240 8  88105027.619 7  21516101.047                    21516107.746
 118267297.760 7  92156432.950 7  22505521.094                    22505527.684
 116974007.477 7  91148675.518 7  22259412.836                    22259422.160
 128451535.520 6 100092172.00743  24443516.172                    24443523.563
 11  8 21  3  9 30.0000000  0 10G18G26G29G02G30G12G05G15G25G21
 127368527.011 6  99248284.73943  24237432.234                    24237440.762
 114801180.693 7  89455552.78845  21845938.008                    21845945.570
 110414322.744 8  86037197.828 7  21011140.469                    21011147.531
 118694693.750 7  92489572.01545  22586850.789                    22586855.715
 119053386.448 7  92768951.41745  22655106.273                    22655114.324
 122035362.120 7  95092656.127 6  23222574.375                    23222581.793
 113140076.325 8  88161132.374 7  21529802.289                    21529808.738
 118178012.724 7  92086860.231 7  22488530.367                    22488537.699
 117031079.181 7  91193146.970 7  22270273.047                    22270282.566
 128394881.928 6 100048026.44443  24432735.086                    24432742.527
 11  8 21  3 10  0.0000000  0 10G18G26G29G02G30G12G05G15G25G21
 127283918.862 6  99182356.40343  24221332.477                    24221340.648
 114738707.987 7  89406872.79245  21834049.477                    21834056.988
 110355233.112 8  85991153.989 7  20999896.203                    20999902.965
 118742941.522 7  92527167.65545  22596032.094                    22596037.023
 119121518.607 7  92822041.38744  22668071.594                    22668079.566
 122127797.769 7  95164683.890 6  23240164.398                    23240171.941
 113212334.539 8  88217437.489 7  21543552.688                    21543559.230
 118088936.414 7  92017450.163 7  22471579.227                    22471586.965
 117088524.451 7  91237909.506 7  22281204.844                    22281214.176
 128338199.241 6 100003858.18543  24421949.164                    24421956.336
 11  8 21  3 10 30.0000000  0 10G18G26G29G02G30G12G05G15G25G21
 127199508.216 6  99116581.95343  24205268.984                    24205277.336
 114676715.949 7  89358567.33545  21822252.617                    21822260.152
 110296474.308 8  85945367.931 7  20988714.531                    20988721.254
 118791294.533 7  92564845.30645  22605233.109                    22605238.277
 119189949.771 7  92875364.36145  22681093.836                    22681101.574
 122220324.539 7  95236782.645 6  23257771.930                    23257779.191
 113284847.259 8  88273940.908 7  21557351.539                    21557357.746
 118000072.330 7  91948205.466 7  22454669.117                    22454676.520
 117146340.546 8  91282961.000 7  22292206.773                    22292216.211
 128281487.169 6  99959667.01743  24411157.617                    24411164.805
 11  8 21  3 11  0.0000000  0 10G18G26G29G02G30G12G05G15G25G21
 127115296.012 6  99050962.11843  24189244.297                    24189253.070
 114615207.692 7  89310638.86045  21810548.516                    21810555.738
 110238048.442 7  85899841.315 7  20977596.680                    20977603.719
 118839753.117 7  92602605.22245  22614454.328                    22614459.719
 119258676.529 7  92928917.66845  22694171.891                    22694180.355
 122312939.557 7  95308950.174 6  23275396.086                    23275403.094
 113357611.605 8  88330640.407 7  21571198.039                    21571204.531
 117911423.189 7  91879128.253 7  22437800.039                    22437806.938
 117204524.477 7  91328299.112 7  22303278.688                    22303288.160
 128224745.116 6  99915452.50344  24400359.555                    24400367.016
 11  8 21  3 11 30.0000000  0 10G18G26G29G02G30G12G05G15G25G21
 127031283.263 6  98985497.74943  24173257.172                    24173265.578
 114554186.064 7  89263089.57445  21798936.281                    21798943.555
 110179957.630 8  85854575.766 7  20966542.523                    20966549.098
 118888317.375 7  92640447.47545  22623696.117                    22623701.254
 119327695.766 7  92982698.86944  22707306.320                    22707313.789
 122405639.601 7  95381183.954 6  23293036.273                    23293043.352
 113430625.197 8  88387534.118 7  21585091.930                    21585098.434
 117822991.958 7  91810220.836 7  22420971.734                    22420979.055
 117263073.349 7  91373921.593 7  22314420.625                    22314429.840
 128167972.678 6  99871214.30144  24389556.094                    24389563.629
 11  8 21  3 12  0.0000000  0 10G18G26G29G02G30G12G05G15G25G21
 126947471.371 6  98920189.88043  24157308.773                    24157316.164
 114493654.481 7  89215922.14145  21787417.281                    21787424.824
 110122204.708 8  85809573.510 7  20955552.633                    20955559.434
 118936988.283 7  92678372.82945  22632957.719                    22632962.797
 119397004.607 7  93036705.74545  22720495.141                    22720503.023
 122498422.293 7  95453482.130 6  23310692.320                    23310699.961
 113503886.119 8  88444620.558 7  21599033.078                    21599039.418
 117734782.208 7  91741486.009 7  22404186.211                    22404193.129
 117321984.653 7  91419826.484 7  22325630.828                    22325640.367
 128111169.403 6  99826952.08543  24378746.648                    24378754.277
 11  8 21  3 12 30.0000000  0 10G18G26G29G02G30G12G05G15G25G21
 126863860.899 6  98855039.01443  24141396.555                    24141405.898
 114433616.098 7  89169139.02345  21775991.898                    21775999.633
 110064791.562 8  85764836.016 7  20944626.891                    20944633.891
 118985765.989 7  92716381.41845  22642239.938                    22642245.645
 119466599.538 7  93090935.53945  22733738.211                    22733745.910
 122591283.994 6  95525841.860 6  23328362.625                    23328370.652
 113577391.462 8  88501897.457 7  21613020.188                    21613026.730
 117646796.514 7  91672925.765 7  22387442.563                    22387450.316
 117381255.282 7  91466011.375 7  22336909.500                    22336919.320
 128054334.950 6  99782665.56643  24367930.680                    24367939.156
 11  8 21  3 13  0.0000000  0 10G18G26G29G02G30G12G05G15G25G21
 126780453.260 6  98790046.16943  24125525.930                    24125534.063
 114374074.068 7  89122742.66845  21764661.813                    21764669.203
 110007720.850 8  85720365.354 7  20933766.766                    20933773.879
 119034651.074 7  92754473.67844  22651542.297                    22651547.859
 119536477.577 7  93145385.94244  22747035.570                    22747044.125
 122684221.652 6  95598260.771 6  23346048.563                    23346056.328
 113651138.949 8  88559363.037 7  21627054.383                    21627060.895
 117559038.377 7  91604542.852 7  22370743.375                    22370750.035
 117440882.577 7  91512474.180 7  22348255.883                    22348265.891
 127997469.037 6  99738354.52343  24357109.438                    24357117.133
 11  8 21  3 13 30.0000000  0 10G18G26G29G02G30G12G05G15G25G21
 126697249.287 6  98725212.03743  24109692.148                    24109700.211
 114315031.410 7  89076735.44045  21753426.328                    21753433.973
 109950994.557 8  85676163.059 7  20922972.055                    20922979.199
 119083643.927 7  92792649.91345  22660865.508                    22660870.684
 119606635.427 7  93200054.38644  22760386.406                    22760394.180
 122777232.132 6  95670736.428 6  23363747.648                    23363755.629
 113725126.082 8  88617015.361 7  21641133.555                    21641139.887
 117471510.927 7  91536339.682 7  22354087.086                    22354094.449
 117500863.416 7  91559212.473 7  22359670.125                    22359680.008
 127940571.183 6  99694018.61343  24346282.430                    24346290.238
 11  8 21  3 14  0.0000000  0 10G18G26G29G02G30G12G05G15G25G21
 126614250.167 6  98660537.53243  24093897.938                    24093905.875
 114256491.391 7  89031119.87145  21742286.781                    21742293.832
 109894615.369 8  85632231.233 7  20912243.305                    20912250.367
 119132745.356 7  92830910.75344  22670209.063                    22670214.102
 119677070.211 7  93254938.61044  22773789.773                    22773797.402
 122870312.864 7  95743266.836 6  23381460.602                    23381468.176
 113799350.455 8  88674852.533 7  21655257.820                    21655264.488
 117384217.120 7  91468318.576 7  22337475.648                    22337483.207
 117561195.392 7  91606224.374 7  22371150.930                    22371160.961
 127883640.792 6  99649657.33443  24335449.148                    24335456.844
 11  8 21  3 14 30.0000000  0 10G18G26G29G02G30G12G05G15G25G21
 126531456.997 6  98596023.47343  24078142.773                    24078151.195
 114198457.001 7  88985898.30745  21731243.000                    21731250.477
 109838585.496 8  85588571.604 7  20901581.539                    20901588.344
 119181955.256 7  92869256.11044  22679573.586                    22679577.914
 119747778.600 7  93310036.03544  22787244.836                    22787253.043
 122963460.732 7  95815849.565 6  23399185.891                    23399193.813
 113873809.618 8  88732872.668 7  21669427.125                    21669433.402
 117297160.067 7  91400481.955 7  22320909.547                    22320916.457
 117621875.440 7  91653507.505 7  22382697.813                    22382707.656
 127826677.836 6  99605270.70443  24324609.313                    24324616.617
 11  8 21  3 15  0.0000000  0 10G18G26G29G02G30G12G05G15G25G21
 126448871.077 6  98531670.90343  24062427.328                    24062434.656
 114140931.634 7  88941073.38045  21720296.305                    21720303.586
 109782907.990 8  85545186.549 7  20890986.250                    20890993.102
 119231274.476 7  92907686.66345  22688958.547                    22688963.621
 119818757.581 7  93365344.30944  22800751.930                    22800759.773
 123056672.929 7  95888482.428 6  23416923.961                    23416931.375
 113948501.538 8  88791074.170 7  21683640.336                    21683646.934
 117210343.574 7  91332832.784 7  22304388.820                    22304395.707
 117682900.978 7  91701059.841 7  22394311.305                    22394320.516
 127769682.515 6  99560858.81343  24313762.805                    24313770.930
 11  8 21  3 15 30.0000000  0 10G18G26G29G02G30G12G05G15G25G21
 126366493.057 6  98467480.35443  24046751.703                    24046759.563
 114083918.152 7  88896647.32245  21709446.930                    21709454.488
 109727584.758 7  85502077.553 7  20880458.867                    20880465.547
 119280703.523 7  92946202.78645  22698364.484                    22698369.922
 119890003.963 7  93420860.95544  22814309.430                    22814317.680
 123149946.787 7  95961163.321 6  23434672.961                    23434681.445
 114023423.492 8  88849454.922 7  21697897.523                    21697904.063
 117123770.180 7  91265373.038 7  22287914.367                    22287921.648
 117744268.952 7  91748879.028 7  22405988.516                    22405998.508
 127712653.689 6  99516420.83043  24302910.820                    24302918.258
 11  8 21  3 16  0.0000000  0 10G18G26G29G02G30G12G05G15G25G21
 126284323.720 6  98403452.39643  24031114.359                    24031122.684
 114027419.137 7  88852622.15545  21698695.750                    21698702.797
 109672617.268 8  85459245.748 7  20869998.625                    20870005.820
 119330242.450 7  92984804.53744  22707791.836                    22707796.801
 119961514.120 7  93476583.12444  22827917.508                    22827925.645
 123243278.442 6  96033889.275 6  23452433.656                    23452440.727
 114098572.886 8  88908012.899 7  21712198.102                    21712204.695
 117037442.684 7  91198104.907 7  22271486.547                    22271494.066
 117805976.080 7  91796962.489 7  22417731.086                    22417740.906
 127655590.712 6  99471956.25643  24292052.234                    24292058.832
 11  8 21  3 16 30.0000000  0 10G18G26G29G02G30G12G05G15G25G21
 126202364.146 6  98339587.91443  24015518.289                    24015526.051
 113971438.393 7  88809000.81945  21688042.586                    21688049.965
 109618008.654 8  85416693.595 7  20859606.859                    20859613.582
 119379892.340 7  93023492.75444  22717239.734                    22717244.699
 120033285.336 7  93532508.71844  22841575.305                    22841583.660
 123336665.277 6  96106658.213 6  23470204.500                    23470212.199
 114173947.646 8  88966746.478 7  21726541.727                    21726548.113
 116951364.493 7  91131031.032 7  22255106.352                    22255113.629
 117868019.973 7  91845308.376 7  22429538.352                    22429547.465
 127598493.588 6  99427465.01743  24281186.836                    24281193.590
 11  8 21  3 17  0.0000000  0 10G18G26G29G02G30G12G05G15G25G21
 126120615.626 6  98275887.86043  23999962.211                    23999970.066
 113915978.385 7  88765785.25945  21677489.156                    21677496.293
 109563760.799 8  85374422.547 8  20849284.039                    20849290.695
 119429653.014 7  93062267.29644  22726708.961                    22726713.770
 120105314.079 7  93588634.99544  22855281.945                    22855289.840
 123430104.165 6  96179467.710 6  23487985.281                    23487993.090
 114249544.909 8  89025653.447 7  21740927.227                    21740933.848
 116865538.462 7  91064153.658 7  22238774.320                    22238781.637
 117930397.339 7  91893914.101 7  22441408.016                    22441417.664
 127541361.817 7  99382946.79143  24270315.367                    24270321.648
